ftp/pub/palmer/observations_modified/2019/June/AR190413_BASE.txt

Download

Sample DateTime	Unit Id	WS Avg 2min	WD Avg 2min	WGS 10min	WGD 10min	Air Temp	Rel Humidity	Dew Point	Pyranometer	Quantum	Air Pressure	Snow Level	Rainfall	PW Current	Visibility	CBase 1	CBase 2	CBase 3	Vert Vis
2019/04/13 00:00:01	BASE	22.59	24	27.21	30	2.6	100	2.6	0	0	970.8	NA	0.0000	-SN BR	6000	0	0	0	2560
2019/04/13 00:01:01	BASE	22.37	24	27.21	30	2.6	100	2.6	0	0	970.8	NA	0.0000	-SN BR	4400	0	0	0	2530
2019/04/13 00:02:01	BASE	21.56	28	27.21	30	2.6	100	2.6	0	0	970.8	NA	0.0000	-SN BR	6000	0	0	0	2490
2019/04/13 00:03:01	BASE	21.84	29	27.21	30	2.6	100	2.6	0	0	970.7	NA	0.0000	-SN BR	9999	0	0	0	2400
2019/04/13 00:04:01	BASE	23.05	30	27.21	30	2.6	100	2.6	0	0	970.7	NA	0.0000	-SN BR	9999	0	0	0	2330
2019/04/13 00:05:01	BASE	22.76	29	27.21	30	2.6	100	2.6	0	0	970.7	NA	0.0000	-SN BR	8000	0	0	0	2330
2019/04/13 00:06:01	BASE	22.40	29	27.21	30	2.6	100	2.6	0	0	970.8	NA	0.0000	-SN BR	6000	0	0	0	2360
2019/04/13 00:07:01	BASE	22.80	31	27.21	30	2.7	100	2.7	0	0	970.7	NA	0.0000	-SN BR	6000	0	0	0	2360
2019/04/13 00:08:01	BASE	23.13	32	27.21	30	2.7	100	2.7	0	0	970.7	NA	0.2540	-SN BR	5000	0	0	0	2430
2019/04/13 00:09:01	BASE	22.60	31	27.21	30	2.7	100	2.7	0	0	970.7	NA	0.0000	-SN BR	5000	0	0	0	2560
2019/04/13 00:10:01	BASE	23.64	31	26.80	40	2.7	100	2.7	0	0	970.7	NA	0.0000	-SN BR	5000	0	0	0	2620
2019/04/13 00:11:01	BASE	23.66	31	26.80	40	2.7	100	2.7	0	0	970.7	NA	0.0000	-SN BR	4200	0	0	0	2620
2019/04/13 00:12:01	BASE	22.78	31	26.80	40	2.7	100	2.7	0	0	970.7	NA	0.0000	-SN BR	5000	0	0	0	2660
2019/04/13 00:13:02	BASE	23.17	29	26.80	40	2.7	100	2.7	0	0	970.7	NA	0.0000	-SN BR	6000	0	0	0	2660
2019/04/13 00:14:01	BASE	22.62	28	26.80	40	2.7	100	2.7	0	0	970.7	NA	0.0000	-SN BR	4300	0	0	0	2690
2019/04/13 00:15:01	BASE	22.66	28	26.80	40	2.7	100	2.7	0	0	970.7	NA	0.0000	-SN BR	5000	0	0	0	2790
2019/04/13 00:16:01	BASE	22.60	30	26.80	40	2.7	100	2.7	0	0	970.7	NA	0.0000	-SN BR	5000	0	0	0	2990
2019/04/13 00:17:01	BASE	22.19	31	26.80	40	2.7	100	2.7	0	0	970.7	NA	0.0000	-SN BR	6000	0	0	0	3050
2019/04/13 00:18:01	BASE	22.22	33	26.80	40	2.7	100	2.7	0	0	970.8	NA	0.0000	-SN BR	9999	0	0	0	2950
2019/04/13 00:19:01	BASE	21.03	34	26.80	40	2.7	100	2.7	0	0	970.8	NA	0.0000	-SN BR	9000	0	0	0	2950
2019/04/13 00:20:01	BASE	20.73	32	26.13	28	2.8	100	2.8	0	0	970.8	NA	0.0000	-SN BR	7000	0	0	0	2990
2019/04/13 00:21:01	BASE	20.45	33	26.13	28	2.8	100	2.8	0	0	970.8	NA	0.2540	-SN BR	7000	590	0	0	0
2019/04/13 00:22:01	BASE	19.79	31	26.13	28	2.8	100	2.8	0	0	970.8	NA	0.0000	-SN BR	9000	0	0	0	2620
2019/04/13 00:23:01	BASE	20.10	30	26.13	28	2.8	100	2.8	0	0	970.9	NA	0.0000	-SN BR	6000	0	0	0	2590
2019/04/13 00:24:01	BASE	19.86	32	26.13	28	2.8	100	2.8	0	0	970.9	NA	0.0000	-SN BR	7000	0	0	0	2590
2019/04/13 00:25:01	BASE	20.18	32	25.00	27	2.9	100	2.9	0	0	970.9	NA	0.0000	-SN BR	9000	0	0	0	2620
2019/04/13 00:26:01	BASE	19.55	33	25.00	27	2.9	100	2.9	0	0	970.9	NA	0.0000	-SN BR	7000	0	0	0	2690
2019/04/13 00:27:01	BASE	17.66	33	25.00	27	2.9	100	2.9	0	0	971.0	NA	0.0000	-SN BR	9000	390	0	0	0
2019/04/13 00:28:01	BASE	17.33	32	25.00	27	2.9	100	2.9	0	0	971.0	NA	0.0000	-SN BR	8000	390	0	0	0
2019/04/13 00:29:01	BASE	18.11	32	25.00	27	2.9	100	2.9	0	0	970.9	NA	0.0000	-SN BR	7000	390	0	0	0
2019/04/13 00:30:01	BASE	19.42	33	25.36	33	2.9	100	2.9	0	0	970.9	NA	0.0000	-SN BR	7000	0	0	0	2760
2019/04/13 00:31:01	BASE	21.27	34	25.36	33	2.9	100	2.9	0	0	970.9	NA	0.0000	-SN BR	7000	0	0	0	2790
2019/04/13 00:32:01	BASE	21.65	35	25.36	33	2.9	100	2.9	0	0	970.9	NA	0.0000	-SN BR	8000	0	0	0	2760
2019/04/13 00:33:01	BASE	20.32	33	25.36	33	2.9	100	2.9	0	0	970.9	NA	0.0000	-SN BR	9999	0	0	0	2790
2019/04/13 00:34:01	BASE	19.88	30	25.36	33	2.9	100	2.9	0	0	970.9	NA	0.0000	-SN BR	8000	0	0	0	2720
2019/04/13 00:35:01	BASE	20.73	31	25.36	33	2.9	100	2.9	0	0	970.9	NA	0.0000	-SN BR	7000	390	0	0	0
2019/04/13 00:36:01	BASE	21.00	30	25.36	33	2.9	100	2.9	0	0	970.9	NA	0.0000	-SN BR	8000	0	0	0	2690
2019/04/13 00:37:01	BASE	21.09	30	25.36	33	2.9	100	2.9	0	0	970.9	NA	0.0000	-SN BR	5000	0	0	0	2720
2019/04/13 00:38:01	BASE	20.63	33	25.36	33	2.9	100	2.9	0	0	970.9	NA	0.0000	-SN BR	6000	0	0	0	2620
2019/04/13 00:39:01	BASE	20.59	34	25.36	33	2.9	100	2.9	0	0	970.9	NA	0.0000	-SN BR	5000	390	0	0	0
2019/04/13 00:40:01	BASE	20.31	36	25.16	33	2.9	100	2.9	0	0	970.9	NA	0.0000	-SN BR	5000	390	0	0	0
2019/04/13 00:41:01	BASE	19.63	36	25.10	33	3.0	100	3.0	0	0	970.9	NA	0.0000	-SN BR	9000	0	0	0	2720
2019/04/13 00:42:01	BASE	19.06	34	25.10	33	3.0	100	3.0	0	0	970.9	NA	0.2540	-SN BR	9999	0	0	0	2720
2019/04/13 00:43:01	BASE	19.00	35	25.10	33	3.0	100	3.0	0	0	970.9	NA	0.0000	-SN BR	9999	0	0	0	2720
2019/04/13 00:44:01	BASE	19.82	35	25.10	33	3.0	100	3.0	0	0	970.8	NA	0.0000	-SN BR	6000	430	0	0	0
2019/04/13 00:45:01	BASE	19.95	34	25.10	33	3.0	100	3.0	0	0	970.8	NA	0.0000	-SN BR	7000	0	0	0	2820
2019/04/13 00:46:01	BASE	20.34	32	24.33	31	3.0	100	3.0	0	0	970.8	NA	0.0000	-SN BR	9999	0	0	0	3150
2019/04/13 00:47:01	BASE	19.78	30	24.33	31	3.0	100	3.0	0	0	970.9	NA	0.0000	-SN BR	9999	0	0	0	3020
2019/04/13 00:48:01	BASE	19.96	30	25.41	25	3.0	100	3.0	0	0	970.9	NA	0.0000	-SN BR	9000	0	0	0	3020
2019/04/13 00:49:01	BASE	20.50	33	25.41	25	3.0	100	3.0	0	0	970.9	NA	0.0000	-SN BR	8000	0	0	0	2990
2019/04/13 00:50:01	BASE	19.15	31	25.41	25	3.0	100	3.0	0	0	970.9	NA	0.0000	-SN BR	8000	0	0	0	3020
2019/04/13 00:51:01	BASE	17.92	28	25.41	25	3.0	100	3.0	0	0	970.9	NA	0.0000	-SN BR	9000	0	0	0	3050
2019/04/13 00:52:01	BASE	17.83	27	25.41	25	3.0	100	3.0	0	0	970.9	NA	0.0000	-SN BR	9000	0	0	0	3020
2019/04/13 00:53:01	BASE	18.06	29	25.41	25	3.0	100	3.0	0	0	970.9	NA	0.0000	-SN BR	5000	0	0	0	2990
2019/04/13 00:54:01	BASE	18.04	31	25.41	25	3.0	100	3.0	0	0	970.9	NA	0.0000	-SN BR	6000	0	0	0	2950
2019/04/13 00:55:01	BASE	18.74	30	25.41	25	2.9	100	2.9	0	0	970.9	NA	0.2540	-SN BR	9999	0	0	0	2950
2019/04/13 00:56:01	BASE	19.40	29	25.41	25	3.0	100	3.0	0	0	970.9	NA	0.0000	-SN BR	9999	0	0	0	2920
2019/04/13 00:57:01	BASE	18.00	28	25.41	25	3.0	100	3.0	0	0	970.9	NA	0.0000	-SN BR	9999	0	0	0	2890
2019/04/13 00:58:01	BASE	16.97	30	23.20	39	3.0	100	3.0	0	0	970.9	NA	0.0000	-SN BR	9999	0	0	0	2920
2019/04/13 00:59:01	BASE	18.07	32	23.20	39	3.0	100	3.0	0	0	970.9	NA	0.0000	-SN BR	9999	0	0	0	2950
2019/04/13 01:00:01	BASE	18.20	31	23.20	39	3.0	100	3.0	0	0	970.9	NA	0.0000	-SN BR	9999	0	0	0	3120
2019/04/13 01:01:01	BASE	17.97	32	23.20	39	3.0	100	3.0	0	0	970.8	NA	0.0000	-SN BR	9999	0	0	0	3050
2019/04/13 01:02:01	BASE	18.54	32	23.20	39	3.0	100	3.0	0	0	970.8	NA	0.0000	-SN	9999	390	0	0	0
2019/04/13 01:03:01	BASE	18.12	31	23.20	39	3.0	100	3.0	0	0	970.8	NA	0.0000	-SN	9999	0	0	0	2920
2019/04/13 01:04:01	BASE	18.49	30	23.20	39	3.0	100	3.0	0	0	970.7	NA	0.0000	-SN	9999	390	0	0	0
2019/04/13 01:05:01	BASE	18.39	30	22.64	22	3.0	100	3.0	0	0	970.8	NA	0.0000	-SN	9999	360	0	0	0
2019/04/13 01:06:01	BASE	18.05	30	22.64	22	3.0	100	3.0	0	0	970.8	NA	0.0000	-SN	9999	0	0	0	3020
2019/04/13 01:07:01	BASE	19.73	31	25.00	33	3.0	100	3.0	0	0	970.7	NA	0.0000	-SN	9999	390	0	0	0
2019/04/13 01:08:01	BASE	20.06	32	25.00	33	3.0	100	3.0	0	0	970.7	NA	0.0000	-SN	9999	0	0	0	3120
2019/04/13 01:09:01	BASE	19.92	31	25.00	33	3.0	100	3.0	0	0	970.7	NA	0.0000	-SN	9999	0	0	0	3220
2019/04/13 01:10:01	BASE	19.74	30	25.00	33	3.1	100	3.1	0	0	970.8	NA	0.0000	-SN	9999	0	0	0	3180
2019/04/13 01:11:01	BASE	19.38	31	25.00	33	3.1	100	3.1	0	0	970.7	NA	0.0000	-SN	9999	360	0	0	0
2019/04/13 01:12:01	BASE	19.20	32	25.00	33	3.0	100	3.0	0	0	970.8	NA	0.2540	-SN	9999	0	0	0	3180
2019/04/13 01:13:01	BASE	19.03	31	25.00	33	3.0	100	3.0	0	0	970.7	NA	0.0000	-SN	9999	360	0	0	0
2019/04/13 01:14:01	BASE	18.30	32	25.00	33	3.0	100	3.0	0	0	970.8	NA	0.0000	-SN	9999	360	0	0	0
2019/04/13 01:15:01	BASE	18.18	33	25.00	33	3.0	100	3.0	0	0	970.8	NA	0.0000	-SN	9999	0	0	0	2890
2019/04/13 01:16:01	BASE	19.12	32	25.00	33	3.0	100	3.0	0	0	970.8	NA	0.0000	-SN	9999	0	0	0	2950
2019/04/13 01:17:01	BASE	18.71	32	24.18	33	3.0	100	3.0	0	0	970.8	NA	0.0000	-SN	9999	390	0	0	0
2019/04/13 01:18:01	BASE	18.58	34	24.18	33	3.0	100	3.0	0	0	970.8	NA	0.0000	-SN	9999	0	0	0	2950
2019/04/13 01:19:01	BASE	18.03	33	22.89	29	3.0	100	3.0	0	0	970.9	NA	0.0000	-SN	9999	0	0	0	2990
2019/04/13 01:20:01	BASE	18.42	32	22.89	29	3.0	100	3.0	0	0	970.8	NA	0.0000	-SN	9999	0	0	0	2950
2019/04/13 01:21:01	BASE	18.62	34	22.89	29	3.1	100	3.1	0	0	970.9	NA	0.0000	-SN	9999	0	0	0	2990
2019/04/13 01:22:01	BASE	17.98	34	22.89	29	3.1	100	3.1	0	0	970.8	NA	0.0000	-SN	9999	0	0	0	2920
2019/04/13 01:23:01	BASE	18.28	31	22.89	29	3.1	100	3.1	0	0	970.8	NA	0.0000	-SN	9999	0	0	0	2890
2019/04/13 01:24:01	BASE	18.67	30	22.89	29	3.1	100	3.1	0	0	970.8	NA	0.0000	-SN	9999	0	0	0	2820
2019/04/13 01:25:01	BASE	18.25	33	22.53	30	3.1	100	3.1	0	0	970.8	NA	0.0000	-SN	9999	0	0	0	2890
2019/04/13 01:26:01	BASE	18.83	36	22.58	35	3.1	100	3.1	0	0	970.8	NA	0.0000	-SN	9999	0	0	0	3050
2019/04/13 01:27:00	BASE	19.12	37	22.58	35	3.1	100	3.1	0	0	970.9	NA	0.0000	-SN	9999	0	0	0	2990
2019/04/13 01:28:00	BASE	18.90	38	22.58	35	3.1	100	3.1	0	0	970.8	NA	0.2540	-SN	9999	0	0	0	2990
2019/04/13 01:29:01	BASE	19.76	36	22.58	35	3.1	100	3.1	0	0	970.8	NA	0.0000	-SN	9999	0	0	0	2850
2019/04/13 01:30:01	BASE	18.41	36	22.58	35	3.1	100	3.1	0	0	970.8	NA	0.0000	-SN	9999	0	0	0	2890
2019/04/13 01:31:00	BASE	18.57	37	22.58	35	3.1	100	3.1	0	0	970.8	NA	0.0000	-SN	9999	0	0	0	2920
2019/04/13 01:32:01	BASE	19.65	35	22.58	35	3.1	100	3.1	0	0	970.8	NA	0.0000	-SN	9999	0	0	0	2920
2019/04/13 01:33:01	BASE	19.39	36	22.58	35	3.1	100	3.1	0	0	970.8	NA	0.0000	-SN	9999	0	0	0	2850
2019/04/13 01:34:01	BASE	18.61	38	22.58	35	3.1	100	3.1	0	0	970.9	NA	0.0000	-SN	9999	0	0	0	2820
2019/04/13 01:35:01	BASE	18.25	36	22.58	35	3.1	100	3.1	0	0	970.9	NA	0.0000	-SN	9999	0	0	0	2760
2019/04/13 01:36:01	BASE	17.15	35	22.53	31	3.1	100	3.1	0	0	970.9	NA	0.0000	-SN	9999	0	0	0	2720
2019/04/13 01:37:01	BASE	16.46	39	22.53	31	3.1	100	3.1	0	0	970.9	NA	0.0000	-SN	9999	0	0	0	2720
2019/04/13 01:38:01	BASE	16.45	40	22.38	41	3.1	100	3.0	0	0	970.9	NA	0.0000	-SN	9999	0	0	0	2890
2019/04/13 01:39:00	BASE	15.44	40	22.38	41	3.0	100	3.0	0	0	970.9	NA	0.0000	-SN	9999	0	0	0	3150
2019/04/13 01:40:00	BASE	16.61	43	22.38	41	3.0	100	3.0	0	0	970.8	NA	0.0000	-SN	9999	0	0	0	3120
2019/04/13 01:41:00	BASE	17.94	44	22.28	38	3.0	100	3.0	0	0	970.8	NA	0.0000	-SN	9999	0	0	0	3020
2019/04/13 01:42:00	BASE	17.70	42	22.28	38	3.0	100	3.0	0	0	970.8	NA	0.0000	-SN	9999	0	0	0	3080
2019/04/13 01:43:00	BASE	17.59	43	22.28	38	3.0	100	3.0	0	0	970.7	NA	0.2540	-SN	9999	0	0	0	3080
2019/04/13 01:44:01	BASE	17.65	45	22.28	38	3.1	100	3.1	0	0	970.8	NA	0.0000	-SN	9999	0	0	0	3120
2019/04/13 01:45:00	BASE	17.60	45	21.50	42	3.1	100	3.1	0	0	970.7	NA	0.0000	-SN	9999	0	0	0	3220
2019/04/13 01:46:00	BASE	18.09	46	21.50	42	3.1	100	3.1	0	0	970.7	NA	0.0000	-SN	9999	0	0	0	3250
2019/04/13 01:47:00	BASE	18.47	47	21.50	42	3.1	100	3.1	0	0	970.6	NA	0.0000	-SN	9999	0	0	0	3380
2019/04/13 01:48:00	BASE	18.12	45	21.50	42	3.2	100	3.2	0	0	970.6	NA	0.0000	-SN	9999	0	0	0	3610
2019/04/13 01:49:00	BASE	17.40	43	21.50	42	3.2	100	3.2	0	0	970.6	NA	0.0000	-SN	9999	0	0	0	3640
2019/04/13 01:50:01	BASE	17.32	44	21.50	42	3.2	100	3.2	0	0	970.6	NA	0.0000		9999	0	0	0	3710
2019/04/13 01:51:00	BASE	17.53	45	21.50	42	3.2	100	3.2	0	0	970.6	NA	0.0000		9999	0	0	0	3770
2019/04/13 01:52:00	BASE	17.04	47	21.14	45	3.2	100	3.2	0	0	970.7	NA	0.0000		9999	0	0	0	3770
2019/04/13 01:53:00	BASE	16.44	47	21.14	45	3.2	100	3.2	0	0	970.6	NA	0.0000		9999	0	0	0	3810
2019/04/13 01:54:00	BASE	16.81	45	21.14	45	3.2	100	3.2	0	0	970.6	NA	0.0000		9999	0	0	0	3810
2019/04/13 01:55:00	BASE	16.78	46	21.14	45	3.2	100	3.2	0	0	970.6	NA	0.0000		9999	0	0	0	3810
2019/04/13 01:56:00	BASE	16.38	47	21.14	45	3.3	100	3.3	0	0	970.6	NA	0.0000		9999	0	0	0	3840
2019/04/13 01:57:00	BASE	16.81	47	21.09	39	3.3	100	3.3	0	0	970.6	NA	0.0000		9999	0	0	0	3840
2019/04/13 01:58:01	BASE	16.96	47	21.09	39	3.3	100	3.3	0	0	970.6	NA	0.0000		9999	0	0	0	3840
2019/04/13 01:59:00	BASE	16.33	46	21.09	39	3.3	100	3.3	0	0	970.6	NA	0.0000		9999	0	0	0	3740
2019/04/13 02:00:00	BASE	15.84	49	21.09	39	3.4	100	3.4	0	0	970.6	NA	0.0000		9999	0	0	0	3770
2019/04/13 02:01:00	BASE	15.07	51	20.11	47	3.4	100	3.4	0	0	970.6	NA	0.0000		9999	0	0	0	3740
2019/04/13 02:02:00	BASE	14.85	50	19.81	37	3.4	100	3.4	0	0	970.6	NA	0.0000		9999	0	0	0	3640
2019/04/13 02:03:00	BASE	15.72	50	19.81	37	3.4	100	3.4	0	0	970.6	NA	0.0000		9999	0	0	0	3540
2019/04/13 02:04:00	BASE	15.29	49	19.81	37	3.4	100	3.4	0	0	970.6	NA	0.0000		9999	0	0	0	3540
2019/04/13 02:05:01	BASE	15.10	50	19.81	37	3.3	100	3.3	0	0	970.6	NA	0.0000		9999	0	0	0	3540
2019/04/13 02:06:00	BASE	14.77	51	19.81	37	3.3	100	3.3	0	0	970.6	NA	0.0000		9999	0	0	0	3580
2019/04/13 02:07:01	BASE	14.32	51	18.52	52	3.3	100	3.3	0	0	970.6	NA	0.0000		9999	0	0	0	3640
2019/04/13 02:08:01	BASE	15.06	51	18.52	52	3.3	100	3.3	0	0	970.5	NA	0.2540		9999	0	0	0	3740
2019/04/13 02:09:00	BASE	14.87	52	18.52	52	3.3	100	3.3	0	0	970.4	NA	0.0000		9999	0	0	0	3770
2019/04/13 02:10:01	BASE	14.83	52	18.52	52	3.3	100	3.3	0	0	970.4	NA	0.0000		9999	0	0	0	3740
2019/04/13 02:11:00	BASE	15.42	49	18.52	52	3.3	100	3.3	0	0	970.4	NA	0.0000		9999	0	0	0	3740
2019/04/13 02:12:00	BASE	15.43	48	18.52	52	3.3	100	3.3	0	0	970.4	NA	0.0000		9999	0	0	0	3940
2019/04/13 02:13:00	BASE	14.70	50	17.85	48	3.3	100	3.3	0	0	970.4	NA	0.0000		9999	0	0	0	3900
2019/04/13 02:14:00	BASE	14.25	52	17.85	48	3.3	100	3.3	0	0	970.4	NA	0.0000		9999	0	0	0	3870
2019/04/13 02:15:00	BASE	14.66	53	17.75	43	3.2	100	3.2	0	0	970.4	NA	0.0000		9999	0	0	0	3900
2019/04/13 02:16:00	BASE	14.89	53	17.75	43	3.2	100	3.2	0	0	970.4	NA	0.0000		9999	0	0	0	3770
2019/04/13 02:17:00	BASE	15.21	53	17.75	43	3.2	100	3.2	0	0	970.4	NA	0.0000		9999	0	0	0	3740
2019/04/13 02:18:00	BASE	15.30	54	17.70	53	3.1	100	3.1	0	0	970.4	NA	0.0000		9999	0	0	0	3670
2019/04/13 02:19:00	BASE	14.93	54	17.70	53	3.1	100	3.1	0	0	970.4	NA	0.0000		9999	0	0	0	3580
2019/04/13 02:20:00	BASE	15.76	52	18.37	49	3.0	100	3.0	0	0	970.4	NA	0.0000		9999	0	0	0	3510
2019/04/13 02:21:00	BASE	16.59	51	18.78	61	3.0	100	3.0	0	0	970.4	NA	0.0000		9999	0	0	0	3480
2019/04/13 02:22:00	BASE	17.02	52	19.50	60	3.0	100	3.0	0	0	970.3	NA	0.0000	UP	9999	0	0	0	3510
2019/04/13 02:23:00	BASE	17.82	51	19.50	60	2.9	100	2.9	0	0	970.3	NA	0.0000	UP	9999	0	0	0	3610
2019/04/13 02:24:00	BASE	17.32	51	19.50	60	3.0	100	3.0	0	0	970.3	NA	0.0000	UP	9999	0	0	0	3580
2019/04/13 02:25:00	BASE	16.89	51	19.50	60	3.0	100	3.0	0	0	970.3	NA	0.0000	UP	9999	0	0	0	3670
2019/04/13 02:26:00	BASE	17.75	51	19.50	51	3.0	100	3.0	0	0	970.3	NA	0.0000	UP	9999	0	0	0	3810
2019/04/13 02:27:00	BASE	17.83	51	19.50	51	3.0	100	3.0	0	0	970.3	NA	0.0000	UP	9999	0	0	0	3770
2019/04/13 02:28:00	BASE	17.49	51	19.50	51	3.0	100	3.0	0	0	970.3	NA	0.0000	UP	9999	0	0	0	3900
2019/04/13 02:29:00	BASE	17.48	52	19.50	51	3.0	100	3.0	0	0	970.3	NA	0.0000	UP	9999	0	0	0	3940
2019/04/13 02:30:01	BASE	17.82	53	19.70	49	3.0	100	3.0	0	0	970.3	NA	0.0000	UP	9999	0	0	0	3970
2019/04/13 02:31:00	BASE	18.08	53	19.70	49	3.0	100	3.0	0	0	970.3	NA	0.0000	UP	9999	0	0	0	4040
2019/04/13 02:32:00	BASE	18.30	52	19.81	52	3.0	100	3.0	0	0	970.2	NA	0.0000	UP	9999	0	0	0	4130
2019/04/13 02:33:00	BASE	18.48	52	20.68	51	3.0	100	3.0	0	0	970.2	NA	0.0000	UP	9999	0	0	0	3970
2019/04/13 02:34:00	BASE	18.23	52	20.68	51	3.0	100	3.0	0	0	970.2	NA	0.0000		9999	0	0	0	3940
2019/04/13 02:35:00	BASE	17.62	52	20.68	51	3.0	100	3.0	0	0	970.2	NA	0.0000	UP	9999	0	0	0	3940
2019/04/13 02:36:00	BASE	17.93	53	20.68	51	3.0	100	3.0	0	0	970.2	NA	0.0000	UP	9999	0	0	0	3970
2019/04/13 02:37:00	BASE	18.35	53	20.68	51	3.0	100	3.0	0	0	970.2	NA	0.0000	UP	9999	0	0	0	3970
2019/04/13 02:38:00	BASE	18.08	53	20.68	51	3.0	100	3.0	0	0	970.2	NA	0.0000	UP	9999	0	0	0	3840
2019/04/13 02:39:00	BASE	17.47	54	20.68	51	3.0	100	3.0	0	0	970.2	NA	0.0000	UP	9999	0	0	0	3670
2019/04/13 02:40:00	BASE	16.47	55	20.68	51	3.0	100	3.0	0	0	970.2	NA	0.0000	UP	9999	0	0	0	3640
2019/04/13 02:41:00	BASE	16.86	56	20.68	51	3.0	100	3.0	0	0	970.2	NA	0.0000	UP	9999	0	0	0	3540
2019/04/13 02:42:00	BASE	16.72	56	20.68	51	3.0	100	3.0	0	0	970.2	NA	0.0000	UP	9999	0	0	0	3310
2019/04/13 02:43:00	BASE	16.18	55	20.42	54	3.0	100	3.0	0	0	970.2	NA	0.0000	UP	9999	0	0	0	3350
2019/04/13 02:44:00	BASE	15.97	56	20.11	50	3.0	100	3.0	0	0	970.2	NA	0.0000	UP	9999	0	0	0	3310
2019/04/13 02:45:00	BASE	15.91	59	20.11	50	3.0	100	3.0	0	0	970.2	NA	0.0000	UP	9999	0	0	0	3640
2019/04/13 02:46:00	BASE	16.44	59	20.11	50	3.0	100	3.0	0	0	970.2	NA	0.0000	UP	9999	0	0	0	4000
2019/04/13 02:47:00	BASE	16.11	59	19.60	54	3.0	100	3.0	0	0	970.2	NA	0.0000	UP	9999	0	0	0	4000
2019/04/13 02:48:00	BASE	15.62	62	19.55	51	3.0	100	3.0	0	0	970.2	NA	0.0000	UP	9999	0	0	0	3940
2019/04/13 02:49:00	BASE	15.88	65	18.42	58	3.0	100	3.0	0	0	970.2	NA	0.0000	UP	9999	0	0	0	4270
2019/04/13 02:50:00	BASE	16.15	66	18.42	58	3.0	100	3.0	0	0	970.2	NA	0.0000	UP	9999	0	0	0	4330
2019/04/13 02:51:00	BASE	15.97	68	18.21	54	3.0	100	3.0	0	0	970.2	NA	0.0000	UP	9999	0	0	0	4330
2019/04/13 02:52:00	BASE	15.60	69	18.21	54	3.1	100	3.1	0	0	970.2	NA	0.0000		9999	0	0	0	4460
2019/04/13 02:53:00	BASE	15.47	71	17.65	65	3.1	100	3.1	0	0	970.2	NA	0.0000		9999	0	0	0	4430
2019/04/13 02:54:00	BASE	14.77	72	17.65	65	3.1	100	3.1	0	0	970.2	NA	0.0000		9999	0	0	0	4200
2019/04/13 02:55:00	BASE	13.81	73	17.65	65	3.1	100	3.1	0	0	970.2	NA	0.0000		9999	0	0	0	4100
2019/04/13 02:56:00	BASE	12.76	79	17.65	65	3.1	100	3.1	0	0	970.3	NA	0.0000		9999	0	0	0	4760
2019/04/13 02:57:00	BASE	12.54	83	17.65	65	3.1	100	3.1	0	0	970.2	NA	0.0000		9999	0	0	0	4720
2019/04/13 02:58:00	BASE	13.40	85	17.65	65	3.1	99	3.0	0	0	970.2	NA	0.0000		9999	0	0	0	4950
2019/04/13 02:59:00	BASE	13.31	87	17.65	65	3.1	99	3.0	0	0	970.2	NA	0.0000		9999	0	0	0	4890
2019/04/13 03:00:00	BASE	13.57	87	17.29	67	3.1	99	2.9	0	0	970.2	NA	0.0000		9999	0	0	0	4860
2019/04/13 03:01:00	BASE	13.88	95	16.98	75	3.1	99	2.9	0	0	970.2	NA	0.0000		9999	0	0	0	5250
2019/04/13 03:02:00	BASE	13.06	105	16.98	75	3.0	99	2.9	0	0	970.2	NA	0.0000		9999	0	0	0	5180
2019/04/13 03:03:00	BASE	12.62	105	15.48	67	3.0	99	2.8	0	0	970.2	NA	0.0000		9999	0	0	0	5580
2019/04/13 03:04:00	BASE	12.24	103	15.28	84	2.9	99	2.7	0	0	970.2	NA	0.0000		9999	0	0	0	5540
2019/04/13 03:05:00	BASE	12.00	101	15.28	84	2.8	99	2.6	0	0	970.1	NA	0.0000		9999	0	0	0	5740
2019/04/13 03:06:00	BASE	12.54	100	15.28	84	2.6	99	2.6	0	0	970.1	NA	0.0000		9999	0	0	0	5910
2019/04/13 03:07:00	BASE	12.95	101	15.28	84	2.6	100	2.5	0	0	970.0	NA	0.0000		9999	0	0	0	5640
2019/04/13 03:08:00	BASE	12.53	99	15.18	87	2.5	100	2.5	0	0	970.1	NA	0.0000		9999	0	0	0	5220
2019/04/13 03:09:00	BASE	11.42	98	15.18	87	2.5	100	2.5	0	0	970.1	NA	0.0000		9999	0	0	0	4990
2019/04/13 03:10:00	BASE	10.91	98	14.97	104	2.5	100	2.5	0	0	970.0	NA	0.0000		9999	0	0	0	4920
2019/04/13 03:11:00	BASE	10.89	97	14.82	90	2.5	100	2.5	0	0	970.0	NA	0.0000		9999	0	0	0	5090
2019/04/13 03:12:00	BASE	11.32	97	14.82	90	2.5	100	2.5	0	0	969.9	NA	0.0000		9999	0	0	0	5220
2019/04/13 03:13:00	BASE	10.95	101	14.82	90	2.5	100	2.5	0	0	969.9	NA	0.0000		9999	0	0	0	5150
2019/04/13 03:14:00	BASE	10.04	104	14.82	90	2.5	100	2.5	0	0	969.9	NA	0.0000		9999	0	0	0	4990
2019/04/13 03:15:00	BASE	10.27	103	14.82	90	2.5	100	2.5	0	0	969.9	NA	0.0000		9999	3610	0	0	0
2019/04/13 03:16:00	BASE	10.09	103	14.82	90	2.5	100	2.5	0	0	969.9	NA	0.0000		9999	3410	0	0	0
2019/04/13 03:17:00	BASE	9.42	105	13.22	85	2.5	100	2.5	0	0	969.8	NA	0.0000		8000	3250	0	0	0
2019/04/13 03:18:00	BASE	9.05	105	13.12	91	2.6	100	2.6	0	0	969.8	NA	0.0000		9000	3250	0	0	0
2019/04/13 03:19:00	BASE	8.72	105	13.12	91	2.6	100	2.6	0	0	969.8	NA	0.0000		9999	3410	0	0	0
2019/04/13 03:20:00	BASE	8.75	105	13.12	91	2.6	100	2.6	0	0	969.8	NA	0.0000		9999	3540	0	0	0
2019/04/13 03:21:00	BASE	8.57	106	13.12	91	2.6	100	2.6	0	0	969.8	NA	0.0000		9999	3610	0	0	0
2019/04/13 03:22:00	BASE	7.97	108	11.21	97	2.6	100	2.6	0	0	969.8	NA	0.0000		9999	3610	0	0	0
2019/04/13 03:23:00	BASE	7.24	119	11.21	97	2.6	100	2.6	0	0	969.7	NA	0.0000		9999	3450	0	0	0
2019/04/13 03:24:00	BASE	7.02	132	11.21	97	2.5	100	2.5	0	0	969.6	NA	0.0000		9999	0	0	0	4490
2019/04/13 03:25:00	BASE	8.01	136	10.60	104	2.5	100	2.5	0	0	969.6	NA	0.0000		9999	0	0	0	4230
2019/04/13 03:26:00	BASE	8.79	138	10.29	102	2.4	100	2.4	0	0	969.5	NA	0.0000		9999	0	0	0	3870
2019/04/13 03:27:00	BASE	9.70	136	10.75	134	2.3	100	2.3	0	0	969.4	NA	0.0000		9999	0	0	0	4230
2019/04/13 03:28:00	BASE	10.36	133	11.57	131	2.3	100	2.3	0	0	969.3	NA	0.0000		9999	0	0	0	1150
2019/04/13 03:29:00	BASE	10.47	133	11.57	131	2.2	100	2.2	0	0	969.3	NA	0.0000		9999	4330	0	0	0
2019/04/13 03:30:00	BASE	11.03	133	12.04	127	2.2	100	2.2	0	0	969.2	NA	0.0000		9999	4330	0	0	0
2019/04/13 03:31:00	BASE	10.89	130	12.04	127	2.2	100	2.2	0	0	969.2	NA	0.0000		9999	4430	0	0	0
2019/04/13 03:32:00	BASE	10.47	133	12.04	127	2.2	100	2.2	0	0	969.2	NA	0.0000		9999	4560	0	0	0
2019/04/13 03:33:00	BASE	10.93	134	12.35	132	2.1	100	2.1	0	0	969.2	NA	0.0000		9999	4860	0	0	0
2019/04/13 03:34:00	BASE	11.65	134	12.81	136	2.1	100	2.1	0	0	969.1	NA	0.0000		9999	5020	0	0	0
2019/04/13 03:35:00	BASE	11.48	137	12.81	136	2.1	100	2.0	0	0	969.1	NA	0.0000		9999	5250	0	0	0
2019/04/13 03:36:00	BASE	11.60	138	12.91	136	2.0	100	2.0	0	0	969.1	NA	0.0000		9999	5710	0	0	0
2019/04/13 03:37:00	BASE	11.51	144	12.91	136	1.9	100	1.9	0	0	969.1	NA	0.0000		9999	6590	0	0	0
2019/04/13 03:38:00	BASE	9.89	141	12.91	136	1.9	100	1.8	0	0	969.1	NA	0.0000		9999	7220	0	0	0
2019/04/13 03:39:00	BASE	9.73	131	12.91	136	1.9	100	1.8	0	0	969.1	NA	0.0000		9999	5970	0	0	0
2019/04/13 03:40:00	BASE	10.15	132	12.91	136	1.8	100	1.8	0	0	969.1	NA	0.0000		9999	0	0	0	0
2019/04/13 03:41:00	BASE	9.81	140	12.91	136	1.8	100	1.8	0	0	969.0	NA	0.0000		9999	5970	0	0	0
2019/04/13 03:42:00	BASE	10.16	145	12.91	136	1.8	100	1.8	0	0	968.9	NA	0.0000		9999	6270	0	0	0
2019/04/13 03:43:00	BASE	10.07	144	12.91	136	1.8	100	1.8	0	0	968.9	NA	0.0000		9999	6370	0	0	0
2019/04/13 03:44:00	BASE	9.43	142	12.91	136	1.8	100	1.8	0	0	968.8	NA	0.0000		9999	5380	0	0	0
2019/04/13 03:45:00	BASE	8.52	140	12.91	136	1.8	100	1.8	0	0	968.8	NA	0.0000		9999	5120	0	0	0
2019/04/13 03:46:00	BASE	7.38	137	12.24	144	1.7	100	1.7	0	0	968.9	NA	0.0000		9999	5150	0	0	0
2019/04/13 03:47:00	BASE	6.62	133	11.42	138	1.7	100	1.7	0	0	968.9	NA	0.0000		9999	5250	0	0	0
2019/04/13 03:48:01	BASE	6.70	128	11.42	138	1.7	100	1.7	0	0	968.9	NA	0.0000		9999	0	0	0	0
2019/04/13 03:49:00	BASE	7.56	127	11.32	141	1.8	100	1.8	0	0	968.8	NA	0.0000		9999	8860	0	0	0
2019/04/13 03:50:00	BASE	8.58	132	11.32	141	1.8	100	1.8	0	0	968.7	NA	0.0000		9999	9190	0	0	0
2019/04/13 03:51:00	BASE	9.76	135	11.21	134	1.8	100	1.8	0	0	968.7	NA	0.0000		9999	9380	0	0	0
2019/04/13 03:52:00	BASE	10.48	136	11.83	138	1.9	100	1.9	0	0	968.6	NA	0.0000		9999	9450	0	0	0
2019/04/13 03:53:00	BASE	10.84	139	11.83	138	1.9	100	1.9	0	0	968.5	NA	0.0000		9999	9480	0	0	0
2019/04/13 03:54:00	BASE	10.28	140	11.83	138	2.0	100	2.0	0	0	968.5	NA	0.0000		9999	9450	0	0	0
2019/04/13 03:55:00	BASE	9.84	138	11.83	138	2.0	100	2.0	0	0	968.5	NA	0.0000		9999	9450	0	0	0
2019/04/13 03:56:00	BASE	9.80	134	11.83	138	2.0	100	2.0	0	0	968.5	NA	0.0000		9999	9550	0	0	0
2019/04/13 03:57:00	BASE	8.99	129	11.83	138	2.0	100	2.0	0	0	968.5	NA	0.0000		9999	9550	0	0	0
2019/04/13 03:58:00	BASE	8.67	128	11.83	138	2.0	100	2.0	0	0	968.5	NA	0.0000		9999	9550	0	0	0
2019/04/13 03:59:00	BASE	9.52	125	12.14	116	2.0	100	2.0	0	0	968.4	NA	0.0000		9999	8070	0	0	0
2019/04/13 04:00:00	BASE	10.94	121	12.86	123	2.1	100	2.0	0	0	968.4	NA	0.0000		9999	9090	0	0	0
2019/04/13 04:01:00	BASE	11.58	123	12.86	123	2.1	99	2.0	0	0	968.4	NA	0.0000		9999	9090	0	0	0
2019/04/13 04:02:00	BASE	11.63	127	12.86	123	2.1	99	2.0	0	0	968.3	NA	0.0000		9999	8920	0	0	0
2019/04/13 04:03:00	BASE	11.36	131	12.86	123	2.1	99	2.0	0	0	968.2	NA	0.0000		9999	8920	0	0	0
2019/04/13 04:04:00	BASE	10.76	133	12.86	123	2.1	99	2.0	0	0	968.2	NA	0.0000		9999	8960	0	0	0
2019/04/13 04:05:00	BASE	10.60	136	12.86	123	2.1	99	1.9	0	0	968.2	NA	0.0000		9999	8890	0	0	0
2019/04/13 04:06:00	BASE	11.06	141	12.86	123	2.1	99	1.9	0	0	968.1	NA	0.0000		9999	9120	0	0	0
2019/04/13 04:07:00	BASE	11.11	143	12.86	123	2.0	99	1.9	0	0	967.9	NA	0.0000		9999	9020	0	0	0
2019/04/13 04:08:00	BASE	11.43	140	13.22	134	2.0	99	1.9	0	0	967.9	NA	0.0000		9999	8790	0	0	0
2019/04/13 04:09:00	BASE	11.11	135	13.22	134	2.0	99	1.9	0	0	967.9	NA	0.0000		9999	8730	0	0	0
2019/04/13 04:10:00	BASE	9.40	137	13.22	134	2.0	99	1.9	0	0	967.9	NA	0.0000		9999	8400	0	0	0
2019/04/13 04:11:00	BASE	9.31	135	13.22	134	2.0	99	1.9	0	0	967.9	NA	0.0000		9999	8400	0	0	0
2019/04/13 04:12:00	BASE	11.38	128	13.58	120	2.1	99	1.9	0	0	967.9	NA	0.0000		9999	0	0	0	0
2019/04/13 04:13:00	BASE	11.87	120	13.58	120	2.2	99	2.0	0	0	967.9	NA	0.0000		9999	9020	0	0	0
2019/04/13 04:14:00	BASE	11.58	119	14.15	124	2.2	99	2.0	0	0	967.7	NA	0.0000		9999	9450	0	0	0
2019/04/13 04:15:00	BASE	12.58	127	14.15	124	2.3	98	2.0	0	0	967.7	NA	0.0000		9999	9380	0	0	0
2019/04/13 04:16:00	BASE	12.74	127	14.15	124	2.3	98	2.0	0	0	967.7	NA	0.0000		9999	9060	0	0	0
2019/04/13 04:17:00	BASE	12.49	124	14.15	124	2.3	97	1.9	0	0	967.7	NA	0.0000		9999	8790	0	0	0
2019/04/13 04:18:00	BASE	11.93	124	14.15	124	2.3	97	1.8	0	0	967.7	NA	0.0000		9999	8010	0	0	0
2019/04/13 04:19:00	BASE	11.30	118	14.15	124	2.3	96	1.7	0	0	967.8	NA	0.0000		9999	0	0	0	0
2019/04/13 04:20:00	BASE	11.36	108	14.15	124	2.2	96	1.7	0	0	967.8	NA	0.0000		9999	0	0	0	0
2019/04/13 04:21:00	BASE	11.04	107	14.15	124	2.2	96	1.6	0	0	967.8	NA	0.0000		9999	8270	0	0	0
2019/04/13 04:22:00	BASE	10.95	114	14.15	124	2.2	96	1.6	0	0	967.7	NA	0.0000		9999	0	0	0	0
2019/04/13 04:23:01	BASE	11.01	122	14.15	124	2.2	96	1.7	0	0	967.7	NA	0.0000		9999	6140	0	0	0
2019/04/13 04:24:00	BASE	10.62	124	13.94	130	2.2	96	1.7	0	0	967.7	NA	0.0000		9999	5910	0	0	0
2019/04/13 04:25:00	BASE	10.35	119	13.48	112	2.3	96	1.7	0	0	967.7	NA	0.0000		9999	6170	0	0	0
2019/04/13 04:26:01	BASE	10.01	118	13.22	125	2.3	96	1.8	0	0	967.7	NA	0.0000		9999	5770	0	0	0
2019/04/13 04:27:00	BASE	10.15	119	12.66	106	2.4	96	1.8	0	0	967.6	NA	0.0000		9999	0	0	0	0
2019/04/13 04:28:00	BASE	10.78	118	12.66	106	2.5	95	1.8	0	0	967.6	NA	0.0000		9999	0	0	0	0
2019/04/13 04:29:00	BASE	11.51	120	12.81	127	2.6	95	1.8	0	0	967.5	NA	0.0000		9999	0	0	0	0
2019/04/13 04:30:01	BASE	12.14	123	12.81	128	2.6	94	1.7	0	0	967.4	NA	0.0000		9999	0	0	0	0
2019/04/13 04:31:00	BASE	11.68	126	13.17	118	2.7	93	1.7	0	0	967.4	NA	0.0000		9999	9450	0	0	0
2019/04/13 04:32:00	BASE	12.19	125	14.76	124	2.8	92	1.6	0	0	967.3	NA	0.0000		9999	9420	0	0	0
2019/04/13 04:33:00	BASE	12.96	125	14.76	124	2.8	91	1.5	0	0	967.3	NA	0.0000		9999	9740	0	0	0
2019/04/13 04:34:00	BASE	12.61	128	14.76	124	2.9	91	1.5	0	0	967.3	NA	0.0000		9999	10010	0	0	0
2019/04/13 04:35:00	BASE	12.40	132	14.76	124	2.9	90	1.4	0	0	967.3	NA	0.0000		9999	10010	0	0	0
2019/04/13 04:36:00	BASE	12.68	131	14.76	124	2.9	89	1.3	0	0	967.2	NA	0.0000		9999	10270	0	0	0
2019/04/13 04:37:00	BASE	12.81	131	14.76	124	2.9	89	1.2	0	0	967.2	NA	0.0000		9999	10400	0	0	0
2019/04/13 04:38:00	BASE	12.03	129	14.76	124	2.9	88	1.2	0	0	967.2	NA	0.0000		9999	10660	0	0	0
2019/04/13 04:39:00	BASE	11.73	129	14.76	124	2.9	88	1.1	0	0	967.1	NA	0.0000		9999	10960	0	0	0
2019/04/13 04:40:00	BASE	12.97	133	16.72	132	2.9	88	1.1	0	0	967.0	NA	0.0000		9999	10860	0	0	0
2019/04/13 04:41:00	BASE	14.50	134	16.72	132	3.0	88	1.1	0	0	966.9	NA	0.0000		9999	10660	0	0	0
2019/04/13 04:42:00	BASE	14.25	129	16.72	132	3.0	88	1.1	0	0	967.0	NA	0.0000		9999	10700	0	0	0
2019/04/13 04:43:00	BASE	13.67	126	16.72	132	3.0	87	1.1	0	0	967.0	NA	0.0000		9999	10600	0	0	0
2019/04/13 04:44:01	BASE	13.81	130	16.72	132	3.0	87	1.1	0	0	966.9	NA	0.0000		9999	10700	0	0	0
2019/04/13 04:45:01	BASE	13.43	130	16.72	132	3.0	87	1.0	0	0	966.9	NA	0.0000		9999	7510	0	0	0
2019/04/13 04:46:00	BASE	12.57	126	16.72	132	3.0	87	1.0	0	0	967.0	NA	0.0000		9999	10630	0	0	0
2019/04/13 04:47:00	BASE	12.98	127	16.72	132	3.0	87	1.0	0	0	966.9	NA	0.0000		9999	10700	0	0	0
2019/04/13 04:48:00	BASE	14.39	130	16.72	132	3.0	87	1.0	0	0	966.8	NA	0.0000		9999	10700	0	0	0
2019/04/13 04:49:00	BASE	14.43	133	16.72	132	3.0	87	1.0	0	0	966.8	NA	0.0000		9999	10660	0	0	0
2019/04/13 04:50:00	BASE	13.06	135	16.26	131	3.0	87	1.0	0	0	966.7	NA	0.0000		9999	10600	0	0	0
2019/04/13 04:51:00	BASE	12.10	132	16.05	135	2.9	87	1.1	0	0	966.7	NA	0.0000		9999	10760	0	0	0
2019/04/13 04:52:00	BASE	11.52	130	16.05	135	2.9	88	1.1	0	0	966.7	NA	0.0000		9999	10200	0	0	0
2019/04/13 04:53:00	BASE	11.03	131	16.05	135	2.9	88	1.1	0	0	966.7	NA	0.0000		9999	10110	0	0	0
2019/04/13 04:54:00	BASE	11.64	130	16.05	135	2.9	88	1.1	0	0	966.7	NA	0.0000		9999	10070	0	0	0
2019/04/13 04:55:01	BASE	9.97	125	16.05	135	2.9	88	1.1	0	0	966.7	NA	0.0000		9999	10110	0	0	0
2019/04/13 04:56:00	BASE	7.64	122	16.05	135	2.9	88	1.1	0	0	966.7	NA	0.0000		9999	10040	0	0	0
2019/04/13 04:57:00	BASE	7.44	126	15.79	131	2.9	88	1.1	0	0	966.7	NA	0.0000		9999	9880	0	0	0
2019/04/13 04:58:00	BASE	5.85	118	15.59	139	2.9	88	1.1	0	0	966.7	NA	0.0000		9999	10890	0	0	0
2019/04/13 04:59:00	BASE	3.29	84	13.74	127	2.9	88	1.2	0	0	966.7	NA	0.0000		9999	10890	0	0	0
2019/04/13 05:00:01	BASE	2.23	31	13.74	127	3.0	88	1.2	0	0	966.6	NA	0.0000		9999	10890	0	0	0
2019/04/13 05:01:00	BASE	2.30	353	13.38	126	3.1	88	1.3	0	0	966.6	NA	0.0000		9999	10930	0	0	0
2019/04/13 05:02:00	BASE	2.69	333	13.38	126	3.2	87	1.2	0	0	966.6	NA	0.0000		9999	10760	0	0	0
2019/04/13 05:03:00	BASE	2.88	321	13.38	126	3.3	86	1.1	0	0	966.5	NA	0.0000		9999	10790	0	0	0
2019/04/13 05:04:00	BASE	2.03	299	10.44	120	3.3	85	1.0	0	0	966.6	NA	0.0000		9999	10860	0	0	0
2019/04/13 05:05:00	BASE	0.98	239	9.83	131	3.2	85	1.0	0	0	966.5	NA	0.0000		9999	10930	0	0	0
2019/04/13 05:06:00	BASE	1.54	183	8.95	133	3.2	85	0.9	0	0	966.5	NA	0.0000		9999	11060	0	0	0
2019/04/13 05:07:00	BASE	6.27	90	14.20	68	3.1	85	0.9	0	0	966.3	NA	0.0000		9999	11060	0	0	0
2019/04/13 05:08:00	BASE	12.06	77	15.48	74	3.1	86	1.0	0	0	966.2	NA	0.0000	SQ	9999	10990	0	0	0
2019/04/13 05:09:00	BASE	14.83	74	17.54	76	3.2	86	1.0	0	0	966.1	NA	0.0000	SQ	9999	10930	0	0	0
2019/04/13 05:10:00	BASE	15.22	76	17.54	76	3.2	85	1.0	0	0	966.1	NA	0.0000		9999	10760	0	0	0
2019/04/13 05:11:00	BASE	14.95	79	17.54	76	3.2	85	0.9	0	0	966.0	NA	0.0000		9999	10470	0	0	0
2019/04/13 05:12:00	BASE	13.62	82	17.54	76	3.2	85	0.9	0	0	966.1	NA	0.0000		9999	0	0	0	0
2019/04/13 05:13:00	BASE	12.30	83	17.54	76	3.2	85	0.8	0	0	966.0	NA	0.0000		9999	0	0	0	0
2019/04/13 05:14:00	BASE	12.08	84	17.54	76	3.2	85	0.8	0	0	966.0	NA	0.0000		9999	0	0	0	0
2019/04/13 05:15:00	BASE	10.97	87	17.54	76	3.2	85	0.9	0	0	966.0	NA	0.0000		9999	0	0	0	0
2019/04/13 05:16:00	BASE	10.87	87	17.54	76	3.2	85	0.9	0	0	965.9	NA	0.0000		9999	6860	0	0	0
2019/04/13 05:17:00	BASE	12.33	89	17.54	76	3.2	85	0.9	0	0	965.9	NA	0.0000		9999	0	0	0	0
2019/04/13 05:18:00	BASE	14.65	88	17.59	94	3.3	84	0.9	0	0	965.8	NA	0.0000		9999	7150	0	0	0
2019/04/13 05:19:00	BASE	16.97	88	19.14	90	3.3	84	0.8	0	0	965.7	NA	0.0000		9999	6530	0	0	0
2019/04/13 05:20:00	BASE	17.07	89	19.55	83	3.2	84	0.8	0	0	965.7	NA	0.0000		9999	0	0	0	0
2019/04/13 05:21:00	BASE	16.60	89	20.27	96	3.2	84	0.8	0	0	965.6	NA	0.0000		9999	0	0	0	0
2019/04/13 05:22:00	BASE	16.11	92	20.27	96	3.1	85	0.8	0	0	965.7	NA	0.0000		9999	5770	0	0	0
2019/04/13 05:23:00	BASE	14.02	106	20.27	96	3.1	85	0.8	0	0	965.7	NA	0.0000		9999	5910	0	0	0
2019/04/13 05:24:00	BASE	13.25	120	20.27	96	3.1	85	0.8	0	0	965.7	NA	0.0000		9999	6100	0	0	0
2019/04/13 05:25:00	BASE	13.13	121	20.27	96	3.0	85	0.8	0	0	965.6	NA	0.0000		9999	5810	0	0	0
2019/04/13 05:26:00	BASE	13.72	127	20.27	96	2.9	86	0.8	0	0	965.6	NA	0.0000		9999	5680	0	0	0
2019/04/13 05:27:00	BASE	15.74	133	20.27	96	2.9	87	0.9	0	0	965.5	NA	0.0000		9999	5770	0	0	0
2019/04/13 05:28:00	BASE	15.96	134	20.27	96	2.8	88	0.9	0	0	965.4	NA	0.0000		9999	6000	0	0	0
2019/04/13 05:29:00	BASE	16.45	132	20.27	96	2.8	89	1.1	0	0	965.4	NA	0.0000		9999	6270	0	0	0
2019/04/13 05:30:00	BASE	16.15	126	20.27	96	2.7	89	1.2	0	0	965.4	NA	0.0000		9999	5910	0	0	0
2019/04/13 05:31:00	BASE	14.90	126	20.01	130	2.7	90	1.3	0	0	965.4	NA	0.0000		9999	6100	0	0	0
2019/04/13 05:32:00	BASE	15.82	127	20.01	130	2.7	91	1.3	0	0	965.3	NA	0.0000		9999	6200	0	0	0
2019/04/13 05:33:00	BASE	16.65	129	20.01	130	2.7	91	1.4	0	0	965.3	NA	0.0000		9999	6330	0	0	0
2019/04/13 05:34:00	BASE	16.99	130	20.01	130	2.7	92	1.5	0	0	965.3	NA	0.0000		9999	6730	0	0	0
2019/04/13 05:35:00	BASE	17.04	126	20.01	130	2.7	92	1.5	0	0	965.3	NA	0.0000		9999	6920	0	0	0
2019/04/13 05:36:00	BASE	17.14	124	20.01	130	2.7	92	1.5	0	0	965.3	NA	0.0000		9999	7090	0	0	0
2019/04/13 05:37:00	BASE	17.69	122	20.01	130	2.7	92	1.5	0	0	965.3	NA	0.0000		9999	7380	0	0	0
2019/04/13 05:38:00	BASE	17.46	122	20.01	130	2.7	92	1.5	0	0	965.2	NA	0.0000		9999	6690	0	0	0
2019/04/13 05:39:00	BASE	16.48	123	19.60	120	2.7	92	1.5	0	0	965.3	NA	0.0000		9999	6820	0	0	0
2019/04/13 05:40:00	BASE	16.71	123	19.60	120	2.7	92	1.5	0	0	965.1	NA	0.0000		9999	6890	0	0	0
2019/04/13 05:41:00	BASE	18.02	125	19.60	120	2.7	92	1.5	0	0	965.0	NA	0.0000		9999	7220	0	0	0
2019/04/13 05:42:00	BASE	18.23	122	19.60	120	2.7	92	1.5	0	0	965.0	NA	0.0000		9999	6660	0	0	0
2019/04/13 05:43:00	BASE	17.95	121	19.60	120	2.6	92	1.5	0	0	964.9	NA	0.0000		9999	6730	0	0	0
2019/04/13 05:44:00	BASE	17.71	122	19.60	120	2.6	92	1.5	0	0	964.9	NA	0.0000		9999	6400	0	0	0
2019/04/13 05:45:00	BASE	18.43	120	20.83	118	2.6	93	1.5	0	0	964.8	NA	0.0000		9999	7050	0	0	0
2019/04/13 05:46:00	BASE	19.81	115	22.79	106	2.6	93	1.6	0	0	964.8	NA	0.0000		9999	6690	0	0	0
2019/04/13 05:47:00	BASE	19.80	110	22.79	106	2.6	93	1.6	0	0	964.8	NA	0.0000		9999	6730	0	0	0
2019/04/13 05:48:00	BASE	19.29	109	22.79	106	2.6	93	1.6	0	0	964.7	NA	0.0000		9999	6400	0	0	0
2019/04/13 05:49:00	BASE	20.60	108	23.56	107	2.6	93	1.6	0	0	964.6	NA	0.0000		9999	7510	0	0	0
2019/04/13 05:50:00	BASE	20.67	108	23.56	107	2.7	93	1.6	0	0	964.6	NA	0.0000		9999	7150	0	0	0
2019/04/13 05:51:00	BASE	19.38	107	23.56	107	2.7	93	1.7	0	0	964.6	NA	0.0000		9999	7480	0	0	0
2019/04/13 05:52:00	BASE	18.53	106	23.56	107	2.7	93	1.6	0	0	964.6	NA	0.0000		9999	7710	0	0	0
2019/04/13 05:53:00	BASE	17.99	100	23.56	107	2.7	93	1.7	0	0	964.5	NA	0.0000		9999	7740	0	0	0
2019/04/13 05:54:00	BASE	18.44	97	23.56	107	2.7	93	1.6	0	0	964.5	NA	0.0000		9999	7680	0	0	0
2019/04/13 05:55:00	BASE	18.79	100	23.56	107	2.8	92	1.7	0	0	964.3	NA	0.0000		9999	7640	0	0	0
2019/04/13 05:56:00	BASE	17.57	102	23.56	107	2.8	92	1.7	0	0	964.4	NA	0.0000		9999	7940	0	0	0
2019/04/13 05:57:00	BASE	16.34	106	23.56	107	2.9	92	1.7	0	0	964.4	NA	0.0000		9999	7710	0	0	0
2019/04/13 05:58:00	BASE	16.76	110	23.56	107	2.9	91	1.6	0	0	964.3	NA	0.0000		9999	7810	0	0	0
2019/04/13 05:59:00	BASE	18.01	112	22.48	106	2.9	91	1.6	0	0	964.2	NA	0.0000		9999	7510	0	0	0
2019/04/13 06:00:00	BASE	18.05	110	20.78	107	2.9	90	1.5	0	0	964.2	NA	0.0000		9999	8070	0	0	0
2019/04/13 06:01:00	BASE	16.77	110	20.32	108	2.9	90	1.4	0	0	964.2	NA	0.0000		9999	8370	0	0	0
2019/04/13 06:02:00	BASE	16.54	115	20.32	108	2.9	90	1.4	0	0	964.1	NA	0.0000		9999	8560	0	0	0
2019/04/13 06:03:01	BASE	17.00	114	20.32	108	2.9	90	1.4	0	0	964.0	NA	0.0000		9999	8560	0	0	0
2019/04/13 06:04:00	BASE	18.13	111	20.32	108	2.9	90	1.4	0	0	963.9	NA	0.0000		9999	8270	0	0	0
2019/04/13 06:05:00	BASE	18.01	109	20.32	108	2.9	90	1.4	0	0	963.9	NA	0.0000		9999	8400	0	0	0
2019/04/13 06:06:00	BASE	17.06	108	20.32	108	2.9	90	1.5	0	0	964.0	NA	0.0000		9999	8500	0	0	0
2019/04/13 06:07:00	BASE	15.87	108	20.32	108	3.0	90	1.4	0	0	963.9	NA	0.0000		9999	8660	0	0	0
2019/04/13 06:08:00	BASE	15.26	106	20.32	108	3.0	90	1.5	0	0	963.8	NA	0.0000		9999	8690	0	0	0
2019/04/13 06:09:00	BASE	15.40	108	20.17	113	3.1	89	1.5	0	0	963.8	NA	0.0000		9999	8830	0	0	0
2019/04/13 06:10:00	BASE	16.15	107	20.17	113	3.1	89	1.4	0	0	963.8	NA	0.0000		9999	9220	0	0	0
2019/04/13 06:11:00	BASE	17.50	99	20.17	113	3.1	88	1.4	0	0	963.8	NA	0.0000		9999	9420	0	0	0
2019/04/13 06:12:00	BASE	16.67	96	20.17	113	3.2	88	1.3	0	0	963.7	NA	0.0000		9999	9420	0	0	0
2019/04/13 06:13:00	BASE	16.65	100	20.17	113	3.1	88	1.3	0	0	963.7	NA	0.0000		9999	9650	0	0	0
2019/04/13 06:14:00	BASE	17.08	102	19.81	101	3.1	88	1.2	0	0	963.7	NA	0.0000		9999	9810	0	0	0
2019/04/13 06:15:00	BASE	18.27	96	21.66	85	3.1	88	1.2	0	0	963.6	NA	0.0000		9999	9810	0	0	0
2019/04/13 06:16:00	BASE	19.77	99	21.66	85	3.0	88	1.2	0	0	963.5	NA	0.0000		9999	9940	0	0	0
2019/04/13 06:17:00	BASE	18.72	108	21.66	85	3.0	88	1.2	0	0	963.5	NA	0.0000		9999	10110	0	0	0
2019/04/13 06:18:00	BASE	18.24	110	21.66	85	3.0	88	1.2	0	0	963.5	NA	0.0000		9999	10240	0	0	0
2019/04/13 06:19:00	BASE	16.81	111	21.66	85	3.0	88	1.3	0	0	963.6	NA	0.0000		9999	9020	0	0	0
2019/04/13 06:20:00	BASE	17.82	112	23.30	117	3.0	88	1.3	0	0	963.5	NA	0.0000		9999	9020	0	0	0
2019/04/13 06:21:00	BASE	21.42	113	23.77	120	3.0	89	1.3	0	0	963.4	NA	0.0000		9999	11290	0	0	0
2019/04/13 06:22:00	BASE	20.22	122	23.77	120	3.0	89	1.4	0	0	963.3	NA	0.0000		9999	8890	0	0	0
2019/04/13 06:23:00	BASE	19.09	125	23.77	120	3.0	89	1.4	0	0	963.3	NA	0.0000		9999	8860	0	0	0
2019/04/13 06:24:00	BASE	21.25	119	25.36	118	3.0	89	1.4	0	0	963.2	NA	0.0000		9999	8920	0	0	0
2019/04/13 06:25:00	BASE	21.52	117	25.36	118	3.0	89	1.4	0	0	963.2	NA	0.0000		9999	9060	0	0	0
2019/04/13 06:26:00	BASE	20.70	112	25.36	118	3.0	89	1.4	0	0	963.2	NA	0.0000		9999	9090	0	0	0
2019/04/13 06:27:00	BASE	21.22	109	25.36	118	3.0	89	1.4	0	0	963.1	NA	0.0000		9999	8760	9710	0	0
2019/04/13 06:28:00	BASE	19.49	116	25.36	118	2.9	90	1.4	0	0	963.1	NA	0.0000		9999	8860	0	0	0
2019/04/13 06:29:00	BASE	17.48	124	25.36	118	2.9	90	1.5	0	0	963.1	NA	0.0000		9999	8560	0	0	0
2019/04/13 06:30:00	BASE	17.13	123	25.36	118	2.9	91	1.5	0	0	963.1	NA	0.0000		9999	8890	0	0	0
2019/04/13 06:31:00	BASE	16.00	117	25.36	118	2.9	91	1.5	0	0	963.1	NA	0.0000		9999	8890	10240	0	0
2019/04/13 06:32:00	BASE	17.83	110	25.36	118	2.9	91	1.6	0	0	962.9	NA	0.0000		9999	9060	0	0	0
2019/04/13 06:33:00	BASE	20.34	103	25.36	118	2.9	91	1.6	0	0	962.9	NA	0.0000		9999	10110	0	0	0
2019/04/13 06:34:00	BASE	18.88	100	24.90	104	3.0	91	1.6	0	0	963.0	NA	0.0000		9999	10200	0	0	0
2019/04/13 06:35:00	BASE	18.13	103	24.90	104	3.0	91	1.7	0	0	962.9	NA	0.0000		9999	9940	0	0	0
2019/04/13 06:36:00	BASE	20.81	107	26.44	113	3.0	91	1.7	0	0	962.8	NA	0.0000		9999	9810	0	0	0
2019/04/13 06:37:00	BASE	21.87	111	26.44	113	3.0	91	1.7	0	0	962.8	NA	0.0000		9999	9610	0	0	0
2019/04/13 06:38:00	BASE	21.05	111	26.44	113	3.0	91	1.7	0	0	962.7	NA	0.0000		9999	9020	0	0	0
2019/04/13 06:39:00	BASE	22.21	107	26.44	113	3.1	91	1.7	0	0	962.6	NA	0.0000		9999	9510	0	0	0
2019/04/13 06:40:00	BASE	22.42	107	26.44	113	3.1	91	1.7	0	0	962.5	NA	0.0000		9999	9550	0	0	0
2019/04/13 06:41:00	BASE	22.29	107	26.44	113	3.2	90	1.7	0	0	962.5	NA	0.0000		9999	9550	0	0	0
2019/04/13 06:42:00	BASE	23.54	102	28.35	94	3.2	90	1.7	0	0	962.5	NA	0.0000		9999	8530	0	0	0
2019/04/13 06:43:00	BASE	23.10	97	28.35	94	3.2	90	1.7	0	0	962.6	NA	0.0000		9999	8530	0	0	0
2019/04/13 06:44:00	BASE	22.45	98	28.35	94	3.2	90	1.7	0	0	962.5	NA	0.0000		9999	9580	0	0	0
2019/04/13 06:45:00	BASE	21.06	104	28.35	94	3.3	90	1.7	0	0	962.5	NA	0.0000		9999	8460	0	0	0
2019/04/13 06:46:00	BASE	19.08	107	28.35	94	3.3	89	1.7	0	0	962.5	NA	0.0000		9999	9290	0	0	0
2019/04/13 06:47:00	BASE	19.76	106	28.35	94	3.3	89	1.7	0	0	962.3	NA	0.0000		9999	8990	0	0	0
2019/04/13 06:48:00	BASE	22.76	103	28.96	100	3.3	89	1.7	0	0	962.2	NA	0.0000		9999	8140	0	0	0
2019/04/13 06:49:00	BASE	25.62	100	28.96	100	3.4	89	1.6	0	0	962.1	NA	0.0000		9999	9190	0	0	0
2019/04/13 06:50:00	BASE	25.86	103	30.09	111	3.4	88	1.7	0	0	962.1	NA	0.0000		9999	8630	0	0	0
2019/04/13 06:51:00	BASE	26.77	109	32.26	118	3.4	88	1.7	0	0	961.9	NA	0.0000		9999	7190	0	0	0
2019/04/13 06:52:00	BASE	27.05	108	32.26	118	3.5	88	1.6	0	0	962.1	NA	0.0000		9999	7480	0	0	0
2019/04/13 06:53:00	BASE	25.45	102	32.26	118	3.5	88	1.6	0	0	962.3	NA	0.0000		9999	8760	0	0	0
2019/04/13 06:54:00	BASE	23.28	104	32.26	118	3.5	87	1.6	0	0	962.2	NA	0.0000		9999	8530	0	0	0
2019/04/13 06:55:00	BASE	24.10	110	32.26	118	3.5	87	1.5	0	0	962.0	NA	0.0000		9999	7450	0	0	0
2019/04/13 06:56:00	BASE	27.18	107	32.26	118	3.5	86	1.5	0	0	962.0	NA	0.0000		9999	7050	0	0	0
2019/04/13 06:57:00	BASE	26.48	106	32.26	118	3.6	86	1.5	0	0	962.1	NA	0.0000		9999	6990	0	0	0
2019/04/13 06:58:00	BASE	25.32	108	32.26	118	3.5	86	1.4	0	0	962.2	NA	0.0000		9999	6960	0	0	0
2019/04/13 06:59:00	BASE	24.89	106	32.26	118	3.5	86	1.4	0	0	962.2	NA	0.0000		9999	6630	0	0	0
2019/04/13 07:00:00	BASE	24.92	110	32.26	118	3.5	86	1.4	0	0	962.1	NA	0.0000		9999	6300	0	0	0
2019/04/13 07:01:00	BASE	25.19	118	32.15	107	3.5	86	1.5	0	0	962.1	NA	0.0000		9999	6730	0	0	0
2019/04/13 07:02:00	BASE	24.05	119	32.15	107	3.6	87	1.5	0	0	962.1	NA	0.0000		9999	6530	0	0	0
2019/04/13 07:03:00	BASE	23.65	123	32.15	107	3.6	87	1.6	0	0	962.1	NA	0.0000		9999	5870	0	0	0
2019/04/13 07:04:00	BASE	23.14	128	32.15	107	3.6	87	1.6	0	0	962.0	NA	0.0000		9999	6790	0	0	0
2019/04/13 07:05:00	BASE	22.57	124	32.15	107	3.7	86	1.6	0	0	962.1	NA	0.0000		9999	6630	0	0	0
2019/04/13 07:06:00	BASE	22.85	116	30.20	103	3.7	86	1.6	0	0	962.1	NA	0.0000		9999	6590	0	0	0
2019/04/13 07:07:00	BASE	21.64	118	30.20	103	3.7	86	1.5	0	0	962.1	NA	0.0000		9999	6140	0	0	0
2019/04/13 07:08:00	BASE	19.46	126	30.20	103	3.7	85	1.5	0	0	962.1	NA	0.0000		9999	5680	0	0	0
2019/04/13 07:09:00	BASE	18.99	134	28.55	121	3.7	85	1.4	0	0	962.1	NA	0.0000		9999	6100	0	0	0
2019/04/13 07:10:00	BASE	17.58	132	28.55	121	3.7	85	1.4	0	0	962.3	NA	0.0000		9999	6270	0	0	0
2019/04/13 07:11:00	BASE	16.05	127	28.09	124	3.7	85	1.4	0	0	962.2	NA	0.0000		9999	6370	0	0	0
2019/04/13 07:12:00	BASE	14.18	129	27.68	130	3.7	85	1.4	0	0	962.2	NA	0.0000		9999	6330	0	0	0
2019/04/13 07:13:00	BASE	11.68	121	27.57	134	3.7	85	1.4	0	0	962.2	NA	0.0000		9999	6790	0	0	0
2019/04/13 07:14:00	BASE	10.86	115	26.13	118	3.7	85	1.4	0	0	962.2	NA	0.0000		9999	6530	0	0	0
2019/04/13 07:15:00	BASE	12.24	124	26.13	118	3.7	85	1.4	0	0	962.1	NA	0.0000		9999	6330	0	0	0
2019/04/13 07:16:00	BASE	14.67	122	23.51	146	3.7	85	1.4	0	0	961.9	NA	0.0000		9999	5050	0	0	0
2019/04/13 07:17:00	BASE	16.57	113	23.51	146	3.7	85	1.4	0	0	961.8	NA	0.0000		9999	5910	0	0	0
2019/04/13 07:18:00	BASE	18.45	102	24.38	100	3.8	85	1.5	0	0	961.7	NA	0.0000		9999	6200	0	0	0
2019/04/13 07:19:00	BASE	21.02	93	26.80	87	3.8	85	1.5	0	0	961.5	NA	0.0000		9999	5250	0	0	0
2019/04/13 07:20:00	BASE	21.38	95	26.80	87	3.8	85	1.5	0	0	961.5	NA	0.0000		9999	5320	0	0	0
2019/04/13 07:21:00	BASE	20.62	98	26.80	87	3.8	85	1.5	0	0	961.4	NA	0.0000		9999	6200	0	0	0
2019/04/13 07:22:00	BASE	19.73	93	26.80	87	3.9	85	1.5	0	0	961.5	NA	0.0000		9999	5610	0	0	0
2019/04/13 07:23:00	BASE	18.44	100	26.80	87	3.9	85	1.5	0	0	961.3	NA	0.0000		9999	5610	0	0	0
2019/04/13 07:24:00	BASE	21.44	102	30.09	93	3.9	84	1.5	0	0	961.3	NA	0.0000		9999	5610	0	0	0
2019/04/13 07:25:00	BASE	23.92	80	30.09	93	4.0	84	1.5	0	0	961.3	NA	0.0000		9999	5090	0	0	0
2019/04/13 07:26:00	BASE	23.06	70	30.09	93	4.0	83	1.4	0	0	961.2	NA	0.0000		9999	5640	0	0	0
2019/04/13 07:27:00	BASE	20.45	86	30.09	93	4.0	83	1.4	0	0	961.4	NA	0.0000		9999	6370	0	0	0
2019/04/13 07:28:00	BASE	18.11	97	30.09	93	4.1	82	1.3	0	0	961.4	NA	0.0000		9999	4760	0	0	0
2019/04/13 07:29:00	BASE	18.19	98	30.09	93	4.1	82	1.3	0	0	961.3	NA	0.0000		9999	5480	0	0	0
2019/04/13 07:30:00	BASE	18.08	113	30.09	93	4.1	82	1.3	0	0	961.3	NA	0.0000		9999	5510	0	0	0
2019/04/13 07:31:00	BASE	16.89	119	30.09	93	4.1	82	1.2	0	0	961.3	NA	0.0000		9999	5510	0	0	0
2019/04/13 07:32:00	BASE	15.41	109	30.09	93	4.1	82	1.2	0	0	961.4	NA	0.0000		9999	6300	0	0	0
2019/04/13 07:33:00	BASE	16.57	108	30.09	93	4.1	81	1.2	0	0	961.1	NA	0.0000		9999	5410	0	0	0
2019/04/13 07:34:00	BASE	19.29	105	27.57	72	4.2	81	1.2	0	0	961.1	NA	0.0000		9999	5450	0	0	0
2019/04/13 07:35:00	BASE	20.49	104	25.00	80	4.2	80	1.1	0	0	961.0	NA	0.0000		9999	5740	0	0	0
2019/04/13 07:36:00	BASE	20.58	103	23.97	92	4.3	79	1.0	0	0	961.1	NA	0.0000		9999	3740	0	0	0
2019/04/13 07:37:00	BASE	17.36	99	23.97	92	4.4	79	1.0	0	0	961.2	NA	0.0000		9999	4490	0	0	0
2019/04/13 07:38:00	BASE	14.72	103	23.97	92	4.4	78	0.9	0	0	961.2	NA	0.0000		9999	4790	0	0	0
2019/04/13 07:39:00	BASE	15.80	111	23.97	92	4.3	78	0.8	0	0	961.1	NA	0.0000		9999	5510	0	0	0
2019/04/13 07:40:00	BASE	16.67	114	23.97	92	4.3	78	0.8	0	0	961.0	NA	0.0000		9999	4860	0	0	0
2019/04/13 07:41:00	BASE	16.09	109	23.97	92	4.3	78	0.8	0	0	961.0	NA	0.0000		9999	4530	0	0	0
2019/04/13 07:42:00	BASE	15.16	102	23.97	92	4.2	78	0.8	0	0	960.9	NA	0.0000		9999	3250	0	0	0
2019/04/13 07:43:00	BASE	17.04	98	25.46	107	4.2	79	0.9	0	0	960.8	NA	0.0000		9999	3610	0	0	0
2019/04/13 07:44:00	BASE	17.59	103	25.46	107	4.2	79	0.9	0	0	960.9	NA	0.0000		9999	4200	0	0	0
2019/04/13 07:45:00	BASE	20.74	104	27.47	110	4.1	80	1.0	0	0	960.6	NA	0.0000		9999	4760	0	0	0
2019/04/13 07:46:00	BASE	24.27	99	27.47	110	4.1	80	1.1	0	0	960.6	NA	0.0000		9999	6040	0	0	0
2019/04/13 07:47:00	BASE	23.60	100	28.04	90	4.1	81	1.1	0	0	960.6	NA	0.0000		9999	3900	0	0	0
2019/04/13 07:48:00	BASE	23.63	100	28.04	90	4.2	81	1.1	0	0	960.7	NA	0.0000		9999	5020	0	0	0
2019/04/13 07:49:00	BASE	21.05	100	28.04	90	4.2	80	1.1	0	0	960.7	NA	0.0000		9999	3050	0	0	0
2019/04/13 07:50:00	BASE	23.11	100	30.30	90	4.3	80	1.1	0	0	960.5	NA	0.0000		9999	4490	0	0	0
2019/04/13 07:51:00	BASE	25.90	98	30.30	90	4.3	79	1.0	0	0	960.5	NA	0.0000		9999	2360	0	0	0
2019/04/13 07:52:00	BASE	24.74	104	30.30	90	4.4	79	1.0	0	0	960.6	NA	0.0000		9999	5680	0	0	0
2019/04/13 07:53:00	BASE	21.45	106	30.30	90	4.4	78	0.9	0	0	960.7	NA	0.0000		9999	3710	0	0	0
2019/04/13 07:54:00	BASE	17.05	101	30.30	90	4.4	78	0.8	0	0	960.8	NA	0.0000		9999	4270	0	0	0
2019/04/13 07:55:00	BASE	18.79	103	30.30	90	4.3	77	0.7	0	0	960.5	NA	0.0000		9999	5020	0	0	0
2019/04/13 07:56:00	BASE	22.58	104	30.30	90	4.3	77	0.7	0	0	960.4	NA	0.0000		9999	4230	0	0	0
2019/04/13 07:57:00	BASE	22.03	101	30.30	90	4.3	77	0.6	0	0	960.4	NA	0.0000		9999	4360	0	0	0
2019/04/13 07:58:00	BASE	20.97	99	30.30	90	4.3	77	0.5	0	0	960.4	NA	0.0000		9999	5280	0	0	0
2019/04/13 07:59:00	BASE	21.50	96	30.30	90	4.3	76	0.5	0	0	960.4	NA	0.0000		9999	4860	0	0	0
2019/04/13 08:00:00	BASE	21.42	98	29.84	102	4.3	76	0.4	0	0	960.3	NA	0.0000		9999	4590	0	0	0
2019/04/13 08:01:00	BASE	19.97	98	28.04	103	4.3	75	0.3	0	0	960.3	NA	0.0000		9999	2790	3410	0	0
2019/04/13 08:02:00	BASE	22.09	94	29.73	101	4.3	75	0.3	0	0	960.2	NA	0.0000		9999	4760	0	0	0
2019/04/13 08:03:00	BASE	24.72	89	29.73	101	4.4	75	0.4	0	0	960.1	NA	0.0000		9999	4230	0	0	0
2019/04/13 08:04:00	BASE	24.62	87	31.12	91	4.4	76	0.5	0	0	960.2	NA	0.0000		9999	2920	3710	0	0
2019/04/13 08:05:00	BASE	24.15	92	33.13	98	4.4	76	0.6	0	0	960.1	NA	0.0000		9999	4820	0	0	0
2019/04/13 08:06:00	BASE	25.23	100	33.13	98	4.5	76	0.6	0	0	959.9	NA	0.0000		9999	5320	0	0	0
2019/04/13 08:07:00	BASE	27.15	100	33.13	98	4.5	76	0.6	0	0	959.9	NA	0.0000		9999	4200	0	0	0
2019/04/13 08:08:00	BASE	25.68	93	33.13	98	4.5	75	0.5	0	0	960.1	NA	0.0000		9999	4590	0	0	0
2019/04/13 08:09:00	BASE	21.42	92	33.13	98	4.6	74	0.4	0	0	960.2	NA	0.0000		9999	4590	0	0	0
2019/04/13 08:10:00	BASE	21.41	98	33.39	99	4.6	73	0.2	0	0	960.0	NA	0.0000		9999	3580	0	0	0
2019/04/13 08:11:00	BASE	26.66	101	33.39	99	4.6	73	0.1	0	0	959.8	NA	0.0000		9999	5120	0	0	0
2019/04/13 08:12:00	BASE	27.62	101	33.39	99	4.6	72	-0.0	0	0	959.9	NA	0.0000	SQ	9999	5970	0	0	0
2019/04/13 08:13:00	BASE	23.90	100	33.39	99	4.5	72	-0.1	0	0	959.9	NA	0.0000		9999	5350	0	0	0
2019/04/13 08:14:00	BASE	24.65	101	33.39	99	4.4	73	-0.1	0	0	959.8	NA	0.0000		9999	6400	0	0	0
2019/04/13 08:15:00	BASE	25.91	106	33.39	99	4.3	73	-0.1	0	0	959.8	NA	0.0000		9999	5610	0	0	0
2019/04/13 08:16:00	BASE	24.28	111	33.39	99	4.2	74	-0.0	0	0	959.7	NA	0.0000		9999	4200	0	0	0
2019/04/13 08:17:00	BASE	22.83	113	33.39	99	4.2	75	0.1	0	0	959.7	NA	0.0000		9999	5280	0	0	0
2019/04/13 08:18:00	BASE	21.87	112	33.39	99	4.1	75	0.1	0	0	959.7	NA	0.0000		9999	5770	0	0	0
2019/04/13 08:19:00	BASE	23.14	115	33.39	99	4.1	75	0.2	0	0	959.6	NA	0.0000		9999	5810	0	0	0
2019/04/13 08:20:00	BASE	23.46	120	32.67	103	4.2	75	0.2	0	0	959.5	NA	0.0000		9999	4760	0	0	0
2019/04/13 08:21:00	BASE	21.63	120	31.43	108	4.2	75	0.1	0	0	959.6	NA	0.0000		9999	5680	0	0	0
2019/04/13 08:22:00	BASE	21.15	115	31.43	108	4.3	74	0.0	0	0	959.6	NA	0.0000		9999	4990	0	0	0
2019/04/13 08:23:00	BASE	23.35	109	31.43	108	4.3	74	-0.0	0	0	959.5	NA	0.0000		9999	4720	0	0	0
2019/04/13 08:24:00	BASE	23.21	106	30.30	107	4.2	74	-0.1	0	0	959.5	NA	0.0000		9999	5320	0	0	0
2019/04/13 08:25:00	BASE	22.28	102	29.32	108	4.2	74	-0.1	0	0	959.5	NA	0.0000		9999	3020	0	0	0
2019/04/13 08:26:00	BASE	23.05	100	29.32	108	4.1	74	-0.0	0	0	959.5	NA	0.0000		9999	5350	0	0	0
2019/04/13 08:27:00	BASE	20.40	104	29.32	108	4.1	75	0.1	0	0	959.5	NA	0.0000		9999	5350	0	0	0
2019/04/13 08:28:00	BASE	15.46	108	29.32	108	4.1	75	0.1	0	0	959.7	NA	0.0000		9999	5540	0	0	0
2019/04/13 08:29:00	BASE	14.75	109	29.32	108	4.1	76	0.2	0	0	959.6	NA	0.0000		9999	5150	0	0	0
2019/04/13 08:30:00	BASE	17.78	110	29.32	108	4.1	76	0.2	0	0	959.5	NA	0.0000		9999	5220	0	0	0
2019/04/13 08:31:00	BASE	21.74	108	29.32	108	4.0	76	0.2	0	0	959.3	NA	0.0000		9999	5350	0	0	0
2019/04/13 08:32:00	BASE	24.00	102	30.40	96	4.0	76	0.1	0	0	959.3	NA	0.0000		9999	5180	0	0	0
2019/04/13 08:33:00	BASE	21.31	106	30.40	96	4.0	76	0.1	0	0	959.3	NA	0.0000		9999	5380	0	0	0
2019/04/13 08:34:00	BASE	21.17	117	30.40	96	4.0	76	0.1	0	0	959.0	NA	0.0000		9999	4630	0	0	0
2019/04/13 08:35:00	BASE	26.22	114	33.95	109	4.0	75	0.0	0	0	958.9	NA	0.0000		9999	5320	0	0	0
2019/04/13 08:36:00	BASE	27.64	106	33.95	109	4.1	75	-0.0	0	0	958.9	NA	0.0000		9999	5180	0	0	0
2019/04/13 08:37:00	BASE	26.75	103	33.95	109	4.1	74	-0.1	0	0	959.0	NA	0.0000		9999	4230	0	0	0
2019/04/13 08:38:00	BASE	27.13	100	33.95	109	4.1	74	-0.1	0	0	959.0	NA	0.0000		9999	4890	0	0	0
2019/04/13 08:39:00	BASE	28.09	100	33.95	109	4.1	74	-0.1	0	0	959.0	NA	0.0000		9999	5280	0	0	0
2019/04/13 08:40:00	BASE	27.64	98	33.95	109	4.1	74	-0.1	0	0	959.0	NA	0.0000		9999	5410	0	0	0
2019/04/13 08:41:00	BASE	24.83	97	33.95	109	4.1	74	-0.2	0	0	959.1	NA	0.0000		9999	5350	0	0	0
2019/04/13 08:42:00	BASE	22.85	100	33.95	109	4.0	74	-0.2	0	0	959.0	NA	0.0000		9999	5540	0	0	0
2019/04/13 08:43:00	BASE	22.85	103	33.95	109	4.0	75	-0.1	0	0	959.0	NA	0.0000		9999	4760	0	0	0
2019/04/13 08:44:00	BASE	22.99	105	33.95	109	3.9	75	-0.1	0	0	959.0	NA	0.0000		9999	5090	0	0	0
2019/04/13 08:45:00	BASE	23.14	109	32.72	94	3.9	76	-0.0	0	0	958.8	NA	0.0000		9999	5840	0	0	0
2019/04/13 08:46:00	BASE	24.46	110	32.72	94	3.8	77	0.1	0	0	958.8	NA	0.0000		9999	5840	0	0	0
2019/04/13 08:47:00	BASE	25.85	108	32.72	94	3.8	77	0.1	0	0	958.7	NA	0.0000		9999	4760	0	0	0
2019/04/13 08:48:00	BASE	25.50	108	32.72	94	3.7	78	0.2	0	0	958.7	NA	0.0000		9999	6070	0	0	0
2019/04/13 08:49:00	BASE	24.13	108	30.97	97	3.7	78	0.3	0	0	958.7	NA	0.0000		9999	5740	0	0	0
2019/04/13 08:50:00	BASE	22.80	108	29.27	113	3.6	79	0.3	0	0	958.8	NA	0.0000		9999	5640	0	0	0
2019/04/13 08:51:00	BASE	23.70	106	29.27	113	3.6	80	0.4	0	0	958.7	NA	0.0000		9999	5770	0	0	0
2019/04/13 08:52:00	BASE	23.09	109	29.27	113	3.5	81	0.5	0	0	958.6	NA	0.0000		8000	5280	0	0	0
2019/04/13 08:53:00	BASE	19.74	111	29.27	113	3.5	81	0.6	0	0	958.7	NA	0.0000		9000	5680	0	0	0
2019/04/13 08:54:00	BASE	20.90	109	29.27	113	3.5	82	0.6	0	0	958.5	NA	0.0000		9999	6100	0	0	0
2019/04/13 08:55:00	BASE	26.05	108	32.10	119	3.4	82	0.7	0	0	958.4	NA	0.0000		9999	6000	0	0	0
2019/04/13 08:56:00	BASE	27.90	106	32.10	119	3.4	83	0.8	0	0	958.5	NA	0.0000	SQ	9999	5450	0	0	0
2019/04/13 08:57:00	BASE	25.07	109	32.10	119	3.4	83	0.8	0	0	958.5	NA	0.0000		9999	5540	0	0	0
2019/04/13 08:58:00	BASE	22.67	113	32.10	119	3.4	83	0.8	0	0	958.5	NA	0.0000		9999	5970	0	0	0
2019/04/13 08:59:00	BASE	21.14	116	32.10	119	3.5	83	0.9	0	0	958.6	NA	0.0000		9999	5020	0	0	0
2019/04/13 09:00:00	BASE	19.94	114	32.10	119	3.5	83	0.9	0	0	958.5	NA	0.0000		9999	5870	0	0	0
2019/04/13 09:01:00	BASE	21.27	113	32.10	119	3.5	83	0.9	0	0	958.4	NA	0.0000		9999	4990	0	0	0
2019/04/13 09:02:00	BASE	22.23	114	32.10	119	3.5	83	0.9	0	0	958.5	NA	0.0000		9999	3670	0	0	0
2019/04/13 09:03:00	BASE	19.69	114	32.10	119	3.6	82	0.8	0	0	958.6	NA	0.0000		9999	5610	0	0	0
2019/04/13 09:04:00	BASE	18.33	117	32.10	119	3.6	82	0.8	0	0	958.4	NA	0.0000		9999	5810	0	0	0
2019/04/13 09:05:00	BASE	22.13	118	30.40	103	3.6	82	0.8	0	0	958.3	NA	0.0000		9999	5580	0	0	0
2019/04/13 09:06:00	BASE	23.77	116	29.22	111	3.6	82	0.7	0	0	958.3	NA	0.0000		9999	4590	0	0	0
2019/04/13 09:07:00	BASE	23.29	116	28.81	112	3.6	81	0.7	0	0	958.2	NA	0.0000		9999	4920	0	0	0
2019/04/13 09:08:00	BASE	22.64	113	28.81	112	3.6	81	0.6	0	0	958.4	NA	0.0000		9999	4400	0	0	0
2019/04/13 09:09:00	BASE	19.71	114	28.81	112	3.6	80	0.5	0	0	958.4	NA	0.0000		9999	5050	0	0	0
2019/04/13 09:10:00	BASE	16.31	125	28.81	112	3.7	80	0.5	0	0	958.4	NA	0.0000		9999	5380	0	0	0
2019/04/13 09:11:00	BASE	12.86	131	28.81	112	3.7	79	0.4	0	0	958.5	NA	0.0000		9999	4400	0	0	0
2019/04/13 09:12:00	BASE	14.67	127	28.81	112	3.7	78	0.3	0	0	958.3	NA	0.0000		9999	4590	6070	0	0
2019/04/13 09:13:00	BASE	17.53	123	28.81	112	3.7	78	0.2	0	0	958.3	NA	0.0000		9999	4820	0	0	0
2019/04/13 09:14:00	BASE	19.01	126	28.81	112	3.7	77	0.1	0	0	958.1	NA	0.0000		9999	4760	0	0	0
2019/04/13 09:15:00	BASE	22.36	133	26.08	110	3.8	76	0.0	0	0	958.0	NA	0.0000		9999	6270	0	0	0
2019/04/13 09:16:00	BASE	22.29	131	26.08	110	3.9	75	-0.1	0	0	958.1	NA	0.0000		9999	5870	0	0	0
2019/04/13 09:17:00	BASE	20.06	132	25.88	138	3.9	74	-0.2	0	0	958.1	NA	0.0000		9999	5740	0	0	0
2019/04/13 09:18:00	BASE	21.91	130	28.14	124	3.9	74	-0.3	0	0	958.0	NA	0.0000		9999	5580	0	0	0
2019/04/13 09:19:00	BASE	22.35	126	28.14	124	4.0	73	-0.5	0	0	958.1	NA	0.0000		9999	6370	0	0	0
2019/04/13 09:20:00	BASE	20.33	125	28.14	124	4.0	72	-0.5	0	0	958.0	NA	0.0000		9999	5450	0	0	0
2019/04/13 09:21:00	BASE	19.94	119	28.14	124	3.9	72	-0.6	0	0	958.1	NA	0.0000		9999	6230	0	0	0
2019/04/13 09:22:00	BASE	21.37	118	28.35	130	3.9	73	-0.5	0	0	957.9	NA	0.0000		9999	6270	0	0	0
2019/04/13 09:23:00	BASE	24.01	123	29.68	129	3.9	73	-0.5	0	0	957.9	NA	0.0000		9999	6500	0	0	0
2019/04/13 09:24:00	BASE	23.28	120	29.68	129	3.9	73	-0.5	0	0	958.0	NA	0.0000		9999	3940	6170	0	0
2019/04/13 09:25:00	BASE	21.65	116	29.68	129	3.9	73	-0.5	0	0	957.9	NA	0.0000		9999	3740	4430	0	0
2019/04/13 09:26:00	BASE	21.67	119	29.68	129	3.9	73	-0.5	0	0	957.9	NA	0.0000		9999	6200	0	0	0
2019/04/13 09:27:00	BASE	24.65	119	32.98	126	3.8	73	-0.5	0	0	957.7	NA	0.0000		9999	6400	0	0	0
2019/04/13 09:28:00	BASE	26.23	119	32.98	126	3.8	73	-0.5	0	0	957.7	NA	0.0000		9999	6790	0	0	0
2019/04/13 09:29:00	BASE	25.60	120	33.13	125	3.8	73	-0.6	0	0	957.7	NA	0.0000		9999	6990	0	0	0
2019/04/13 09:30:00	BASE	27.84	120	33.13	125	3.8	73	-0.6	0	0	957.6	NA	0.0000		9999	6760	0	0	0
2019/04/13 09:31:00	BASE	29.24	121	33.13	125	3.8	72	-0.7	0	0	957.6	NA	0.0000		9999	6730	0	0	0
2019/04/13 09:32:00	BASE	27.97	127	33.13	125	3.9	72	-0.8	0	0	957.5	NA	0.0000		9999	7450	0	0	0
2019/04/13 09:33:00	BASE	26.59	126	33.13	125	3.9	71	-0.8	0	0	957.6	NA	0.0000		9999	6820	0	0	0
2019/04/13 09:34:00	BASE	27.92	125	33.13	125	3.9	71	-0.8	0	0	957.5	NA	0.0000		9999	6630	0	0	0
2019/04/13 09:35:00	BASE	27.26	124	33.13	125	3.9	72	-0.8	0	0	957.5	NA	0.0000		8000	6660	0	0	0
2019/04/13 09:36:00	BASE	25.88	123	33.13	125	3.8	72	-0.8	0	0	957.5	NA	0.0000		8000	6660	0	0	0
2019/04/13 09:37:00	BASE	27.92	125	33.13	125	3.8	73	-0.7	0	0	957.3	NA	0.0000	UP	6000	6590	0	0	0
2019/04/13 09:38:00	BASE	28.00	121	33.13	125	3.7	73	-0.6	0	0	957.5	NA	0.0000	UP	6000	6560	0	0	0
2019/04/13 09:39:00	BASE	25.25	114	32.41	122	3.7	74	-0.6	0	0	957.6	NA	0.0000	UP	9000	6530	0	0	0
2019/04/13 09:40:00	BASE	22.24	111	32.41	122	3.6	74	-0.5	0	0	957.7	NA	0.0000	UP	9999	6960	0	0	0
2019/04/13 09:41:00	BASE	20.26	115	32.26	129	3.5	75	-0.5	0	0	957.6	NA	0.0000	UP	9999	6860	0	0	0
2019/04/13 09:42:00	BASE	21.57	118	32.26	129	3.4	76	-0.4	0	0	957.5	NA	0.0000	UP	9999	7050	0	0	0
2019/04/13 09:43:00	BASE	25.28	116	32.26	129	3.4	77	-0.3	0	0	957.4	NA	0.0000	UP	9999	6820	0	0	0
2019/04/13 09:44:00	BASE	24.74	115	32.26	129	3.3	78	-0.2	0	0	957.4	NA	0.0000	UP	4600	7120	0	0	0
2019/04/13 09:45:00	BASE	21.04	118	32.26	129	3.2	79	-0.1	0	0	957.4	NA	0.0000	UP	3400	0	0	0	2000
2019/04/13 09:46:00	BASE	21.57	122	32.26	129	3.2	79	-0.1	0	0	957.3	NA	0.0000	UP	3500	0	0	0	1800
2019/04/13 09:47:00	BASE	22.85	123	29.32	115	3.2	80	0.0	0	0	957.3	NA	0.0000	UP	3700	7050	0	0	0
2019/04/13 09:48:00	BASE	22.34	120	29.32	115	3.2	80	0.1	0	0	957.2	NA	0.0000	UP	3700	0	0	0	1900
2019/04/13 09:49:00	BASE	20.64	123	29.32	115	3.2	80	0.1	0	0	957.3	NA	0.0000	UP	3700	6790	0	0	0
2019/04/13 09:50:00	BASE	21.31	123	29.32	115	3.2	81	0.1	0	0	957.1	NA	0.0000	UP	3700	6920	0	0	0
2019/04/13 09:51:00	BASE	24.59	118	29.32	115	3.1	81	0.2	0	0	957.0	NA	0.0000	UP	3600	6990	0	0	0
2019/04/13 09:52:00	BASE	25.52	115	29.32	115	3.1	81	0.2	0	0	956.9	NA	0.0000	UP	3400	6790	0	0	0
2019/04/13 09:53:01	BASE	24.36	115	28.76	104	3.1	82	0.2	0	0	956.9	NA	0.0000	UP	3200	0	0	0	1770
2019/04/13 09:54:00	BASE	24.05	114	28.76	104	3.0	82	0.2	0	0	956.9	NA	0.0000	UP	3200	7050	0	0	0
2019/04/13 09:55:00	BASE	25.79	113	31.07	111	3.0	83	0.3	0	0	956.8	NA	0.0000	UP	2900	0	0	0	2170
2019/04/13 09:56:00	BASE	27.21	115	31.07	111	2.9	83	0.4	0	0	956.7	NA	0.0000	UP	2600	0	0	0	1740
2019/04/13 09:57:00	BASE	25.75	119	31.07	111	2.9	84	0.5	0	0	956.7	NA	0.0000	UP	2400	0	0	0	1840
2019/04/13 09:58:00	BASE	22.25	122	31.07	111	2.9	84	0.5	0	0	956.7	NA	0.0000	UP	2600	0	0	0	2230
2019/04/13 09:59:00	BASE	20.50	120	31.07	111	2.9	85	0.6	0	0	956.8	NA	0.0000	UP	3100	0	0	0	2200
2019/04/13 10:00:00	BASE	20.88	116	31.07	111	2.9	85	0.6	0	0	956.7	NA	0.0000	UP	3900	0	0	0	2460
2019/04/13 10:01:00	BASE	22.33	114	31.07	111	2.9	85	0.6	0	0	956.6	NA	0.0000	UP	4700	0	0	0	2030
2019/04/13 10:02:00	BASE	23.29	113	31.07	111	2.9	85	0.6	0	0	956.6	NA	0.0000	UP	5000	0	0	0	2230
2019/04/13 10:03:00	BASE	23.23	111	31.07	111	2.8	85	0.6	0	0	956.5	NA	0.0000	UP BR	5000	0	0	0	2300
2019/04/13 10:04:00	BASE	21.58	111	31.07	111	2.8	86	0.6	0	0	956.5	NA	0.0000	UP BR	4800	0	0	0	2200
2019/04/13 10:05:00	BASE	20.52	110	30.30	119	2.7	86	0.6	0	0	956.5	NA	0.0000	UP BR	4600	1970	0	0	0
2019/04/13 10:06:00	BASE	20.60	109	27.57	117	2.7	87	0.7	0	0	956.5	NA	0.0000	UP BR	4600	0	0	0	1840
2019/04/13 10:07:00	BASE	22.18	111	27.11	102	2.7	87	0.7	0	0	956.4	NA	0.0000	UP BR	4600	0	0	0	2260
2019/04/13 10:08:00	BASE	24.46	111	27.11	109	2.7	87	0.8	0	0	956.4	NA	0.0000	UP BR	4600	0	0	0	2360
2019/04/13 10:09:00	BASE	25.08	109	27.47	111	2.7	88	0.8	0	0	956.3	NA	0.0000	UP BR	3200	0	0	0	2360
2019/04/13 10:10:00	BASE	24.33	109	27.47	111	2.7	88	0.9	0	0	956.2	NA	0.0000	UP BR	2800	0	0	0	1840
2019/04/13 10:11:00	BASE	22.39	111	27.47	111	2.7	88	0.9	0	0	956.3	NA	0.0000	UP BR	3000	0	0	0	2170
2019/04/13 10:12:00	BASE	21.17	113	27.47	111	2.7	88	0.9	0	0	956.2	NA	0.0000	UP BR	3000	0	0	0	2400
2019/04/13 10:13:00	BASE	20.62	111	27.47	111	2.7	88	0.9	0	0	956.2	NA	0.0000	UP BR	3900	0	0	0	2660
2019/04/13 10:14:00	BASE	19.48	110	27.47	111	2.7	88	0.9	0	0	956.2	NA	0.0000	UP BR	5000	0	0	0	2490
2019/04/13 10:15:00	BASE	17.84	111	27.47	111	2.7	88	0.9	0	0	956.3	NA	0.0000	UP BR	7000	1800	0	0	0
2019/04/13 10:16:00	BASE	17.18	116	27.47	111	2.7	88	0.9	0	0	956.1	NA	0.0000	UP BR	8000	0	0	0	2530
2019/04/13 10:17:00	BASE	17.03	120	27.47	111	2.7	88	0.9	0	0	956.1	NA	0.0000	UP BR	9000	2170	0	0	0
2019/04/13 10:18:00	BASE	18.10	118	27.47	111	2.7	88	0.9	0	0	956.1	NA	0.0000	UP BR	9999	0	0	0	2690
2019/04/13 10:19:00	BASE	19.69	116	25.31	112	2.7	88	0.9	0	0	956.1	NA	0.0000	UP BR	9999	7190	0	0	0
2019/04/13 10:20:00	BASE	18.76	112	24.08	112	2.7	88	0.9	0	0	956.1	NA	0.0000	UP BR	9999	2430	0	0	0
2019/04/13 10:21:00	BASE	18.05	111	22.17	112	2.7	88	1.0	0	0	956.0	NA	0.0000	UP BR	9999	2430	0	0	0
2019/04/13 10:22:00	BASE	17.41	118	22.17	112	2.8	88	1.0	0	0	956.0	NA	0.0000	BR	9999	0	0	0	0
2019/04/13 10:23:00	BASE	15.64	124	21.66	118	2.8	88	1.0	0	0	955.9	NA	0.0000	BR	9999	0	0	0	0
2019/04/13 10:24:00	BASE	16.16	126	21.66	118	2.8	88	0.9	0	0	955.8	NA	0.0000		9999	2230	0	0	0
2019/04/13 10:25:00	BASE	16.84	122	21.66	118	2.8	87	0.9	0	0	955.8	NA	0.0000		9999	0	0	0	0
2019/04/13 10:26:00	BASE	16.49	117	21.66	118	2.8	87	0.9	0	0	955.8	NA	0.0000		9999	7910	0	0	0
2019/04/13 10:27:00	BASE	16.94	118	21.66	118	2.8	87	0.8	0	0	955.7	NA	0.0000		9999	7190	0	0	0
2019/04/13 10:28:00	BASE	16.91	121	21.66	118	2.8	87	0.8	0	0	955.6	NA	0.0000		9999	0	0	0	0
2019/04/13 10:29:00	BASE	15.76	123	21.14	126	2.8	86	0.8	0	0	955.6	NA	0.0000		9999	7220	0	0	0
2019/04/13 10:30:00	BASE	13.96	121	21.14	126	2.9	86	0.7	0	0	955.6	NA	0.0000		9999	7380	0	0	0
2019/04/13 10:31:00	BASE	13.51	118	21.14	126	2.9	86	0.7	0	0	955.6	NA	0.0000		9999	7320	0	0	0
2019/04/13 10:32:00	BASE	15.12	118	21.14	126	2.9	85	0.7	0	0	955.5	NA	0.0000		9999	7190	0	0	0
2019/04/13 10:33:00	BASE	15.68	121	21.14	126	2.9	85	0.6	0	0	955.5	NA	0.0000		9999	6960	0	0	0
2019/04/13 10:34:00	BASE	15.04	121	18.57	119	2.9	85	0.6	0	0	955.5	NA	0.0000		9999	6920	0	0	0
2019/04/13 10:35:00	BASE	14.23	119	18.57	119	2.9	84	0.5	0	0	955.5	NA	0.0000		9999	7250	0	0	0
2019/04/13 10:36:00	BASE	13.58	123	18.57	119	2.9	84	0.5	0	0	955.4	NA	0.0000		9999	7250	0	0	0
2019/04/13 10:37:00	BASE	13.61	124	18.47	115	2.9	83	0.4	0	0	955.4	NA	0.0000		9999	4070	7220	0	0
2019/04/13 10:38:00	BASE	13.29	121	18.47	115	2.9	83	0.4	0	0	955.4	NA	0.0000		9999	3610	7220	0	0
2019/04/13 10:39:00	BASE	13.11	116	18.47	115	2.9	83	0.3	0	0	955.4	NA	0.0000		9999	7550	0	0	0
2019/04/13 10:40:00	BASE	13.66	114	18.47	115	2.9	83	0.3	0	0	955.3	NA	0.0000		9999	7350	0	0	0
2019/04/13 10:41:00	BASE	14.07	119	18.47	115	3.0	83	0.3	0	0	955.2	NA	0.0000		9999	7220	0	0	0
2019/04/13 10:42:00	BASE	13.93	122	16.72	112	3.0	82	0.2	0	0	955.2	NA	0.0000		9999	7250	0	0	0
2019/04/13 10:43:00	BASE	13.36	122	16.72	112	3.0	82	0.2	0	0	955.1	NA	0.0000		9999	7640	0	0	0
2019/04/13 10:44:00	BASE	13.93	124	17.54	124	2.9	82	0.1	0	0	955.1	NA	0.0000		9999	7580	0	0	0
2019/04/13 10:45:00	BASE	15.87	121	18.52	113	2.9	82	0.1	0	0	955.0	NA	0.0000		9999	7580	0	0	0
2019/04/13 10:46:00	BASE	16.37	118	18.52	113	2.9	82	0.1	0	0	954.9	NA	0.0000		9999	7710	0	0	0
2019/04/13 10:47:00	BASE	16.50	118	18.98	121	2.9	82	0.1	0	0	954.9	NA	0.0000		9999	7740	0	0	0
2019/04/13 10:48:00	BASE	17.72	117	19.75	116	2.9	82	0.1	0	0	954.9	NA	0.0000		9999	7780	0	0	0
2019/04/13 10:49:00	BASE	17.50	117	19.75	116	2.9	82	0.1	0	0	954.8	NA	0.0000		9999	7450	0	0	0
2019/04/13 10:50:00	BASE	16.20	117	19.75	116	2.9	82	0.1	0	0	954.7	NA	0.0000		9999	7350	0	0	0
2019/04/13 10:51:00	BASE	17.42	118	21.61	116	2.9	82	0.1	0	0	954.6	NA	0.0000		9999	7810	0	0	0
2019/04/13 10:52:00	BASE	18.12	122	21.61	116	2.9	82	0.1	0	0	954.6	NA	0.0000		9999	8400	0	0	0
2019/04/13 10:53:00	BASE	15.92	122	21.61	116	2.9	82	0.1	0	0	954.6	NA	0.0000		9999	8790	0	0	0
2019/04/13 10:54:00	BASE	13.98	117	21.61	116	3.0	81	0.0	0	0	954.7	NA	0.0000		9999	8430	0	0	0
2019/04/13 10:55:00	BASE	13.65	114	21.61	116	3.0	81	0.0	0	0	954.7	NA	0.0000		9999	8140	0	0	0
2019/04/13 10:56:00	BASE	13.52	113	21.61	116	2.9	81	-0.0	0	0	954.8	NA	0.0000		9999	7610	0	0	0
2019/04/13 10:57:00	BASE	15.01	112	21.61	116	2.9	81	-0.0	0	0	954.6	NA	0.0000		9999	7940	0	0	0
2019/04/13 10:58:00	BASE	17.23	118	21.61	116	2.9	81	-0.0	0	0	954.6	NA	0.0000		9999	7810	0	0	0
2019/04/13 10:59:00	BASE	18.25	121	21.61	116	2.9	81	-0.0	0	0	954.6	NA	0.0000		9999	7740	0	0	0
2019/04/13 11:00:00	BASE	18.07	121	21.61	116	2.9	81	-0.1	0	0	954.6	NA	0.0000		9999	7510	0	0	0
2019/04/13 11:01:00	BASE	15.87	119	21.09	118	2.9	81	-0.1	0	0	954.6	NA	0.0000		9999	7280	0	0	0
2019/04/13 11:02:00	BASE	15.57	117	21.09	118	2.9	81	-0.1	0	0	954.5	NA	0.0000		9999	4460	0	0	0
2019/04/13 11:03:00	BASE	15.30	117	21.09	118	2.9	81	-0.1	0	0	954.5	NA	0.0000		9999	7280	0	0	0
2019/04/13 11:04:00	BASE	14.67	112	21.09	118	2.8	81	-0.1	0	0	954.4	NA	0.0000		9999	8070	0	0	0
2019/04/13 11:05:00	BASE	15.24	115	21.09	118	2.8	82	-0.0	0	0	954.3	NA	0.0000		9999	8140	0	0	0
2019/04/13 11:06:00	BASE	16.11	120	21.09	118	2.8	82	0.0	0	0	954.2	NA	0.0000		9999	2170	0	0	0
2019/04/13 11:07:00	BASE	17.40	116	21.09	118	2.8	82	0.1	0	0	954.2	NA	0.0000		9999	7610	0	0	0
2019/04/13 11:08:00	BASE	17.77	113	21.09	118	2.7	83	0.1	0	0	954.2	NA	0.0000		9999	7480	0	0	0
2019/04/13 11:09:00	BASE	18.03	114	20.78	123	2.7	83	0.1	0	0	954.1	NA	0.0000		9999	7910	0	0	0
2019/04/13 11:10:00	BASE	19.11	113	24.38	110	2.7	83	0.1	0	0	954.1	NA	0.0000		9999	7740	0	0	0
2019/04/13 11:11:00	BASE	20.29	110	24.38	110	2.7	83	0.2	0	0	954.1	NA	0.0000		9999	0	0	0	2560
2019/04/13 11:12:00	BASE	20.75	107	24.38	110	2.7	84	0.2	0	0	954.1	NA	0.0000		9999	7680	0	0	0
2019/04/13 11:13:00	BASE	20.14	108	24.38	110	2.6	84	0.2	0	0	954.0	NA	0.0000	UP	9999	7710	0	0	0
2019/04/13 11:14:00	BASE	19.67	108	24.38	110	2.6	84	0.3	0	0	954.0	NA	0.0000	UP	9999	7870	0	0	0
2019/04/13 11:15:00	BASE	18.91	106	24.38	110	2.6	85	0.3	1	0	954.1	NA	0.0000	UP	9999	7350	0	0	0
2019/04/13 11:16:00	BASE	18.17	108	24.38	110	2.6	85	0.3	1	0	954.0	NA	0.0000	UP	9999	7190	0	0	0
2019/04/13 11:17:00	BASE	18.64	107	24.38	110	2.5	85	0.3	1	0	954.0	NA	0.0000	UP	9999	7580	0	0	0
2019/04/13 11:18:00	BASE	19.93	105	24.38	110	2.5	86	0.3	1	0	954.0	NA	0.0000	UP	9999	7150	0	0	0
2019/04/13 11:19:00	BASE	21.15	107	24.38	110	2.5	86	0.4	1	0	953.9	NA	0.0000	UP	9999	7020	0	0	0
2019/04/13 11:20:00	BASE	20.12	107	24.02	112	2.5	86	0.4	1	0	954.0	NA	0.0000	UP	9999	6990	0	0	0
2019/04/13 11:21:00	BASE	19.34	108	23.51	106	2.6	86	0.5	1	0	953.8	NA	0.0000		9999	7350	0	0	0
2019/04/13 11:22:00	BASE	20.30	113	23.51	106	2.6	86	0.5	1	0	953.8	NA	0.0000		9999	7420	0	0	0
2019/04/13 11:23:00	BASE	20.06	115	23.51	106	2.6	86	0.5	1	0	953.8	NA	0.0000		9999	7090	0	0	0
2019/04/13 11:24:00	BASE	20.86	114	24.64	115	2.6	86	0.5	1	0	953.8	NA	0.0000		9999	6860	0	0	0
2019/04/13 11:25:00	BASE	21.82	112	24.64	115	2.6	86	0.5	1	0	953.8	NA	0.0000		9999	6860	0	0	0
2019/04/13 11:26:00	BASE	19.99	111	24.64	115	2.6	86	0.5	1	0	953.8	NA	0.0000		9999	7190	0	0	0
2019/04/13 11:27:00	BASE	19.63	111	24.64	115	2.6	85	0.4	1	0	953.6	NA	0.0000		9999	7280	0	0	0
2019/04/13 11:28:00	BASE	19.71	114	24.64	115	2.6	85	0.4	2	0	953.5	NA	0.0000		9999	7420	0	0	0
2019/04/13 11:29:00	BASE	19.22	114	24.64	115	2.6	85	0.4	2	0	953.5	NA	0.0000		9000	8270	0	0	0
2019/04/13 11:30:00	BASE	20.50	111	24.64	115	2.6	85	0.4	2	0	953.5	NA	0.0000		9999	7910	0	0	0
2019/04/13 11:31:00	BASE	20.18	110	24.64	115	2.5	86	0.4	2	0	953.5	NA	0.0000		9999	7910	0	0	0
2019/04/13 11:32:00	BASE	18.21	108	24.64	115	2.5	86	0.4	2	0	953.5	NA	0.0000		9999	4460	0	0	0
2019/04/13 11:33:00	BASE	17.70	107	24.64	115	2.5	86	0.4	2	0	953.5	NA	0.0000		9999	7220	0	0	0
2019/04/13 11:34:00	BASE	17.40	109	23.87	113	2.4	87	0.4	2	0	953.5	NA	0.0000		9999	7840	0	0	0
2019/04/13 11:35:00	BASE	16.15	108	23.77	108	2.4	87	0.4	2	0	953.5	NA	0.0000		9999	7680	0	0	0
2019/04/13 11:36:00	BASE	15.83	109	23.77	108	2.4	87	0.5	2	0	953.4	NA	0.0000		9999	7580	0	0	0
2019/04/13 11:37:00	BASE	16.99	108	23.77	108	2.4	87	0.5	3	0	953.3	NA	0.0000	UP	9999	0	0	0	8460
2019/04/13 11:38:00	BASE	19.66	108	25.41	112	2.4	87	0.5	3	0	953.2	NA	0.0000	UP	9999	7050	0	0	0
2019/04/13 11:39:00	BASE	22.74	108	25.46	111	2.4	87	0.5	3	0	953.1	NA	0.0000	UP	9999	0	0	0	7640
2019/04/13 11:40:00	BASE	23.33	106	27.93	111	2.4	88	0.6	3	0	953.1	NA	0.0000	UP	9999	0	0	0	7870
2019/04/13 11:41:00	BASE	22.88	107	27.93	111	2.5	88	0.6	4	0	953.1	NA	0.0000	UP	9999	6590	0	0	0
2019/04/13 11:42:00	BASE	22.72	108	27.93	111	2.5	88	0.7	4	0	953.1	NA	0.0000	UP	9999	6430	0	0	0
2019/04/13 11:43:00	BASE	22.42	106	27.93	111	2.6	87	0.7	4	0	953.1	NA	0.0000	UP	9999	0	0	0	8170
2019/04/13 11:44:00	BASE	21.21	110	27.93	111	2.6	87	0.7	4	0	953.1	NA	0.0000	UP	9999	6630	0	0	0
2019/04/13 11:45:00	BASE	21.15	116	27.93	111	2.6	86	0.6	4	0	953.1	NA	0.0000	UP	9999	6430	0	0	0
2019/04/13 11:46:00	BASE	22.71	118	27.93	111	2.6	86	0.5	4	0	952.8	NA	0.0000	UP	9999	6300	0	0	0
2019/04/13 11:47:00	BASE	23.88	120	27.93	111	2.6	86	0.4	4	0	952.7	NA	0.0000	UP	9999	0	0	0	7450
2019/04/13 11:48:00	BASE	22.92	120	27.93	111	2.6	85	0.3	4	0	952.8	NA	0.0000	UP	9999	0	0	0	7550
2019/04/13 11:49:00	BASE	21.53	117	27.93	111	2.5	85	0.3	5	0	952.8	NA	0.0000	UP	9999	0	0	0	7450
2019/04/13 11:50:00	BASE	21.02	108	27.21	106	2.5	85	0.3	5	0	952.9	NA	0.0000	UP	9999	0	0	0	7220
2019/04/13 11:51:00	BASE	19.80	104	27.21	106	2.6	85	0.3	5	0	953.0	NA	0.0000	UP	9000	5870	0	0	0
2019/04/13 11:52:00	BASE	18.53	110	25.98	119	2.6	84	0.3	5	0	953.0	NA	0.0000	UP	8000	6170	0	0	0
2019/04/13 11:53:00	BASE	18.43	115	25.98	119	2.7	84	0.3	5	0	953.0	NA	0.0000	UP	9000	0	0	0	7680
2019/04/13 11:54:00	BASE	19.18	116	25.98	119	2.7	83	0.2	5	0	952.9	NA	0.0000	UP	9000	0	0	0	7250
2019/04/13 11:55:00	BASE	18.29	113	25.98	119	2.7	83	0.1	6	0	953.0	NA	0.0000	UP	9999	6530	0	0	0
2019/04/13 11:56:00	BASE	16.86	111	25.98	119	2.7	83	-0.0	6	0	953.0	NA	0.0000	UP	9999	6500	0	0	0
2019/04/13 11:57:00	BASE	17.95	110	25.36	119	2.6	83	-0.0	6	0	953.0	NA	0.0000	UP	9999	6200	0	0	0
2019/04/13 11:58:01	BASE	18.53	109	25.31	96	2.5	83	-0.1	7	0	953.1	NA	0.0000	UP	9000	2430	0	0	0
2019/04/13 11:59:00	BASE	17.52	118	25.31	96	2.4	83	-0.1	7	0	952.9	NA	0.0000	UP	9000	0	0	0	7380
2019/04/13 12:00:00	BASE	19.14	127	26.96	130	2.4	84	-0.0	8	0	952.6	NA	0.0000	UP	8000	0	0	0	7450
2019/04/13 12:01:00	BASE	20.83	131	26.96	130	2.4	84	0.0	9	0	952.6	NA	0.0000	UP	8000	6820	0	0	0
2019/04/13 12:02:00	BASE	20.34	129	26.96	130	2.4	85	0.1	9	0	952.7	NA	0.0000	UP	8000	7220	0	0	0
2019/04/13 12:03:00	BASE	19.06	123	26.96	130	2.4	85	0.1	9	0	952.8	NA	0.0000	UP	8000	7120	0	0	0
2019/04/13 12:04:00	BASE	17.64	121	26.96	130	2.5	85	0.2	9	0	952.8	NA	0.0000	UP	8000	6820	0	0	0
2019/04/13 12:05:00	BASE	18.09	122	26.96	130	2.6	84	0.3	9	0	952.7	NA	0.0000	UP	8000	6730	0	0	0
2019/04/13 12:06:00	BASE	18.59	124	26.96	130	2.8	84	0.3	10	0	952.9	NA	0.0000	UP	8000	7020	0	0	0
2019/04/13 12:07:00	BASE	16.10	117	26.96	130	2.8	83	0.2	11	0	953.0	NA	0.0000	UP	8000	6960	0	0	0
2019/04/13 12:08:00	BASE	14.66	105	26.96	130	2.8	82	0.1	12	0	952.8	NA	0.0000	UP	8000	6820	0	0	0
2019/04/13 12:09:00	BASE	14.57	104	26.96	130	2.8	82	-0.0	12	0	952.7	NA	0.0000	HZ	8000	6860	0	0	0
2019/04/13 12:10:00	BASE	15.41	111	24.44	128	2.7	82	-0.1	13	0	952.7	NA	0.0000	HZ	8000	6790	0	0	0
2019/04/13 12:11:00	BASE	15.96	113	23.72	132	2.6	82	-0.1	14	0	952.6	NA	0.0000	HZ	8000	7190	0	0	0
2019/04/13 12:12:00	BASE	14.95	115	22.17	130	2.6	82	-0.1	15	0	952.6	NA	0.0000	HZ	8000	7020	0	0	0
2019/04/13 12:13:00	BASE	14.10	120	22.17	130	2.6	83	-0.1	16	0	952.6	NA	0.0000	HZ	9000	6820	0	0	0
2019/04/13 12:14:00	BASE	13.96	119	22.17	130	2.6	83	-0.0	17	0	952.6	NA	0.0000	HZ	9000	6630	0	0	0
2019/04/13 12:15:00	BASE	16.46	111	20.78	103	2.6	84	0.1	18	0	952.6	NA	0.0000	HZ	9000	6630	0	0	0
2019/04/13 12:16:00	BASE	17.31	104	20.78	103	2.6	84	0.1	20	0	952.6	NA	0.0000	HZ	9000	6990	0	0	0
2019/04/13 12:17:00	BASE	17.19	102	20.78	103	2.6	84	0.1	20	0	952.5	NA	0.0000	HZ	9000	6730	0	0	0
2019/04/13 12:18:00	BASE	18.53	105	21.09	102	2.5	84	0.1	21	0	952.5	NA	0.0000	HZ	9000	3020	6400	0	0
2019/04/13 12:19:00	BASE	19.02	115	23.61	137	2.5	84	0.1	21	0	952.5	NA	0.0000	HZ	9000	6330	0	0	0
2019/04/13 12:20:00	BASE	19.79	125	23.61	137	2.4	84	0.1	22	0	952.4	NA	0.0000	HZ	9000	3180	6200	0	0
2019/04/13 12:21:00	BASE	21.04	125	23.61	137	2.4	85	0.0	23	0	952.3	NA	0.0000	HZ	8000	2820	0	0	0
2019/04/13 12:22:00	BASE	19.68	118	23.61	137	2.3	85	0.0	25	0	952.4	NA	0.0000	HZ	8000	3020	6230	0	0
2019/04/13 12:23:00	BASE	16.82	116	23.61	137	2.3	85	0.1	26	0	952.4	NA	0.0000	HZ	8000	5510	6170	0	0
2019/04/13 12:24:00	BASE	16.75	116	23.61	137	2.3	85	0.0	26	0	952.4	NA	0.0000	HZ	8000	6230	0	0	0
2019/04/13 12:25:00	BASE	16.74	119	23.61	137	2.3	85	0.0	26	0	952.3	NA	0.0000	HZ	9000	2690	6590	8070	0
2019/04/13 12:26:00	BASE	16.66	132	23.61	137	2.2	85	0.0	27	0	952.2	NA	0.0000	BR	9000	2490	6370	0	0
2019/04/13 12:27:00	BASE	18.20	137	23.61	137	2.2	86	0.1	28	0	952.2	NA	0.0000	BR	9000	5640	6430	0	0
2019/04/13 12:28:00	BASE	18.56	126	23.61	137	2.3	86	0.2	28	0	952.3	NA	0.0000	BR	9000	3080	5680	0	0
2019/04/13 12:29:00	BASE	19.47	113	23.87	113	2.3	86	0.3	29	0	952.3	NA	0.0000	BR	9000	2890	5610	0	0
2019/04/13 12:30:00	BASE	20.14	122	25.57	126	2.4	86	0.3	30	0	952.2	NA	0.0000	BR	9999	3280	5680	0	0
2019/04/13 12:31:00	BASE	16.52	124	25.57	126	2.4	86	0.3	31	0	952.4	NA	0.0000	BR	9000	2920	0	0	0
2019/04/13 12:32:00	BASE	14.22	119	25.57	126	2.5	86	0.3	33	0	952.4	NA	0.0000	BR	7000	2430	3510	0	0
2019/04/13 12:33:00	BASE	16.07	119	25.57	126	2.5	85	0.2	35	0	952.3	NA	0.0000	HZ	7000	2460	5640	0	0
2019/04/13 12:34:00	BASE	16.33	115	25.57	126	2.5	85	0.2	37	0	952.3	NA	0.0000	UP	7000	5740	0	0	0
2019/04/13 12:35:00	BASE	15.17	117	25.57	126	2.4	85	0.2	39	0	952.2	NA	0.0000	UP	8000	5770	0	0	0
2019/04/13 12:36:00	BASE	15.43	114	25.57	126	2.4	85	0.2	40	0	952.2	NA	0.0000	UP	8000	5740	0	0	0
2019/04/13 12:37:00	BASE	16.67	113	25.57	126	2.4	85	0.1	42	0	952.2	NA	0.0000	UP	7000	5870	6590	0	0
2019/04/13 12:38:00	BASE	19.67	116	26.75	108	2.3	85	0.1	45	0	952.2	NA	0.0000	UP	8000	6500	0	0	0
2019/04/13 12:39:00	BASE	21.71	114	26.75	108	2.3	85	0.1	48	0	952.1	NA	0.0000	UP BR	8000	6040	0	0	0
2019/04/13 12:40:00	BASE	21.29	118	26.75	108	2.2	86	0.1	52	0	952.0	NA	0.0000	UP BR	7000	6000	0	0	0
2019/04/13 12:41:00	BASE	20.63	125	26.75	108	2.2	86	0.1	55	0	952.0	NA	0.0000	UP BR	7000	6000	0	0	0
2019/04/13 12:42:00	BASE	19.98	127	26.75	108	2.2	86	0.1	55	0	951.9	NA	0.0000	UP BR	7000	6300	0	0	0
2019/04/13 12:43:00	BASE	18.83	127	26.75	108	2.2	86	0.1	57	0	952.0	NA	0.0000	UP BR	7000	7280	0	0	0
2019/04/13 12:44:00	BASE	16.58	132	26.75	108	2.2	86	0.1	60	0	952.0	NA	0.0000	UP BR	7000	2530	7680	8100	0
2019/04/13 12:45:00	BASE	16.54	130	26.75	108	2.2	86	0.2	62	0	952.0	NA	0.0000	UP BR	7000	5640	0	0	0
2019/04/13 12:46:00	BASE	17.39	124	26.75	108	2.2	87	0.2	64	0	952.0	NA	0.0000	UP BR	7000	6300	0	0	0
2019/04/13 12:47:00	BASE	16.88	123	26.75	108	2.2	87	0.3	64	0	951.9	NA	0.0000	UP BR	7000	6330	8010	0	0
2019/04/13 12:48:00	BASE	17.76	118	23.72	123	2.2	87	0.3	63	0	952.0	NA	0.0000	UP BR	7000	6430	0	0	0
2019/04/13 12:49:00	BASE	19.46	111	23.72	123	2.2	87	0.3	62	0	952.0	NA	0.0000	UP BR	6000	5740	0	0	0
2019/04/13 12:50:00	BASE	20.81	106	25.46	110	2.2	87	0.3	63	0	951.9	NA	0.0000	UP BR	6000	6370	0	0	0
2019/04/13 12:51:00	BASE	21.22	114	25.46	110	2.2	87	0.3	63	0	951.8	NA	0.0000	UP BR	6000	6170	0	0	0
2019/04/13 12:52:00	BASE	19.07	116	25.46	110	2.2	87	0.3	63	0	951.9	NA	0.0000	UP BR	6000	6170	0	0	0
2019/04/13 12:53:00	BASE	17.05	115	25.46	110	2.3	87	0.3	64	0	951.9	NA	0.0000	UP BR	6000	6070	0	0	0
2019/04/13 12:54:00	BASE	16.86	118	25.46	110	2.3	87	0.3	63	0	951.9	NA	0.0000	UP BR	6000	6070	0	0	0
2019/04/13 12:55:00	BASE	16.58	114	25.46	110	2.3	87	0.4	61	0	951.9	NA	0.0000	UP BR	6000	5970	0	0	0
2019/04/13 12:56:00	BASE	20.49	108	28.96	100	2.3	87	0.4	59	0	951.8	NA	0.0000	UP BR	6000	6070	0	0	0
2019/04/13 12:57:00	BASE	22.87	105	28.96	100	2.3	87	0.4	57	0	951.9	NA	0.0000	UP BR	6000	6270	0	0	0
2019/04/13 12:58:00	BASE	20.35	110	28.96	100	2.3	87	0.3	56	0	951.8	NA	0.0000	UP BR	6000	6170	0	0	0
2019/04/13 12:59:00	BASE	17.27	118	28.96	100	2.2	87	0.3	53	0	951.9	NA	0.0000	UP BR	6000	6230	0	0	0
2019/04/13 13:00:00	BASE	17.47	109	28.96	100	2.1	87	0.2	48	0	951.7	NA	0.0000	UP BR	7000	7320	0	0	0
2019/04/13 13:01:00	BASE	20.49	105	28.96	100	2.0	87	0.1	43	0	951.7	NA	0.0000	UP BR	6000	6860	7450	0	0
2019/04/13 13:02:00	BASE	19.95	115	28.96	100	1.9	87	0.1	39	0	951.8	NA	0.0000	UP BR	6000	2400	6300	0	0
2019/04/13 13:03:00	BASE	17.31	116	28.96	100	1.9	88	0.1	36	0	951.8	NA	0.0000	UP BR	6000	2330	5910	0	0
2019/04/13 13:04:00	BASE	16.75	108	28.96	100	1.9	88	0.1	34	0	951.8	NA	0.0000	UP BR	6000	5840	0	0	0
2019/04/13 13:05:00	BASE	17.79	101	28.96	100	1.9	88	0.1	34	0	951.7	NA	0.0000	UP BR	6000	5710	0	0	0
2019/04/13 13:06:00	BASE	19.62	100	26.80	106	1.8	89	0.2	34	0	951.7	NA	0.0000	UP BR	6000	2460	5940	0	0
2019/04/13 13:07:00	BASE	21.19	104	26.80	106	1.8	89	0.2	35	0	951.6	NA	0.0000	UP BR	6000	5870	0	0	0
2019/04/13 13:08:00	BASE	19.99	107	26.80	106	1.8	89	0.1	35	0	951.7	NA	0.0000	UP BR	6000	6070	0	0	0
2019/04/13 13:09:00	BASE	18.12	106	26.80	106	1.8	89	0.1	36	0	951.7	NA	0.0000	UP BR	6000	6100	0	0	0
2019/04/13 13:10:00	BASE	18.46	108	25.62	108	1.7	89	0.1	38	0	951.6	NA	0.0000	UP BR	6000	6000	0	0	0
2019/04/13 13:11:00	BASE	19.61	107	25.98	105	1.7	89	0.2	39	0	951.6	NA	0.0000	BR	6000	5970	0	0	0
2019/04/13 13:12:00	BASE	19.89	105	25.98	105	1.8	90	0.3	41	0	951.5	NA	0.0000	BR	6000	6070	0	0	0
2019/04/13 13:13:00	BASE	19.28	105	25.98	105	1.8	90	0.3	42	0	951.5	NA	0.0000	BR	6000	6040	0	0	0
2019/04/13 13:14:00	BASE	17.90	108	25.98	105	1.9	90	0.4	43	0	951.5	NA	0.0000	BR	6000	6100	0	0	0
2019/04/13 13:15:00	BASE	16.27	111	25.98	105	1.9	90	0.4	43	0	951.5	NA	0.0000	BR	6000	6100	0	0	0
2019/04/13 13:16:00	BASE	17.06	105	25.98	105	1.9	90	0.5	43	0	951.5	NA	0.0000	BR	6000	5970	0	0	0
2019/04/13 13:17:00	BASE	21.00	99	26.85	102	1.9	90	0.5	42	0	951.5	NA	0.0000	BR	6000	6070	0	0	0
2019/04/13 13:18:00	BASE	23.16	104	28.04	108	1.9	90	0.4	42	0	951.4	NA	0.0000	BR	6000	6300	0	0	0
2019/04/13 13:19:00	BASE	25.04	104	29.12	102	1.8	90	0.4	42	0	951.2	NA	0.0000	UP BR	6000	6070	0	0	0
2019/04/13 13:20:00	BASE	26.12	103	30.20	101	1.8	90	0.4	41	0	951.3	NA	0.0000	UP BR	6000	7510	0	0	0
2019/04/13 13:21:00	BASE	25.52	101	30.20	101	1.8	90	0.3	41	0	951.3	NA	0.0000	UP BR	6000	7320	0	0	0
2019/04/13 13:22:00	BASE	24.08	100	30.20	101	1.7	90	0.2	40	0	951.4	NA	0.0000	UP BR	6000	6230	0	0	0
2019/04/13 13:23:00	BASE	22.78	103	30.20	101	1.6	90	0.2	39	0	951.3	NA	0.0000	UP BR	6000	6170	0	0	0
2019/04/13 13:24:00	BASE	20.85	102	30.20	101	1.6	90	0.2	37	0	951.4	NA	0.0000	UP BR	6000	6040	0	0	0
2019/04/13 13:25:00	BASE	17.64	99	30.20	101	1.5	91	0.2	35	0	951.5	NA	0.0000	UP BR	7000	7120	0	0	0
2019/04/13 13:26:00	BASE	18.26	103	30.20	101	1.5	91	0.2	33	0	951.4	NA	0.0000	UP BR	7000	6300	0	0	0
2019/04/13 13:27:00	BASE	23.45	111	30.30	112	1.6	91	0.3	31	0	951.3	NA	0.0000	UP BR	7000	6230	0	0	0
2019/04/13 13:28:00	BASE	25.39	110	30.30	112	1.7	91	0.4	29	0	951.4	NA	0.0000	UP BR SQ	6000	5910	0	0	0
2019/04/13 13:29:00	BASE	22.26	102	30.30	112	1.7	91	0.5	27	0	951.6	NA	0.0000	UP BR	6000	5910	0	0	0
2019/04/13 13:30:00	BASE	20.61	105	30.30	112	1.7	91	0.5	25	0	951.5	NA	0.0000	UP BR	6000	0	0	0	1050
2019/04/13 13:31:00	BASE	20.19	115	30.30	112	1.7	91	0.5	22	0	951.5	NA	0.0000	UP BR	6000	0	0	0	920
2019/04/13 13:32:00	BASE	19.50	120	30.30	112	1.7	91	0.4	21	0	951.4	NA	0.0000	UP BR	6000	6070	0	0	0
2019/04/13 13:33:00	BASE	21.52	113	30.30	112	1.6	91	0.3	20	0	951.4	NA	0.0000	UP BR	7000	5940	0	0	0
2019/04/13 13:34:00	BASE	24.15	101	30.30	112	1.5	91	0.2	19	0	951.4	NA	0.0000	UP BR	7000	5770	0	0	0
2019/04/13 13:35:00	BASE	22.62	102	30.30	112	1.5	91	0.2	18	0	951.4	NA	0.0000	UP BR	7000	6890	0	0	0
2019/04/13 13:36:00	BASE	21.36	104	30.30	112	1.4	91	0.1	17	0	951.4	NA	0.0000	UP BR	7000	5380	0	0	0
2019/04/13 13:37:00	BASE	20.30	107	27.01	116	1.4	91	0.1	16	0	951.6	NA	0.0000	UP BR	7000	2460	0	0	0
2019/04/13 13:38:00	BASE	19.16	113	26.70	111	1.4	92	0.2	15	0	951.5	NA	0.0000	UP BR	7000	2130	0	0	0
2019/04/13 13:39:00	BASE	19.27	111	26.70	111	1.4	92	0.3	15	0	951.5	NA	0.0000	UP BR	6000	4820	0	0	0
2019/04/13 13:40:00	BASE	18.60	107	26.70	111	1.4	92	0.3	14	0	951.4	NA	0.0000	UP BR	7000	0	0	0	6300
2019/04/13 13:41:00	BASE	20.79	105	26.70	111	1.4	92	0.3	14	0	951.3	NA	0.0000	UP BR	6000	4660	0	0	0
2019/04/13 13:42:00	BASE	23.59	101	27.93	92	1.3	92	0.2	14	0	951.3	NA	0.0000	UP BR	6000	4460	0	0	0
2019/04/13 13:43:00	BASE	22.83	110	27.93	92	1.3	92	0.2	14	0	951.4	NA	0.0000	UP BR	6000	0	0	0	1940
2019/04/13 13:44:00	BASE	22.11	115	27.93	92	1.3	92	0.2	15	0	951.4	NA	0.0000	UP BR	6000	0	0	0	1900
2019/04/13 13:45:00	BASE	22.72	109	28.86	104	1.2	92	0.1	15	0	951.3	NA	0.0000	UP BR	5000	0	0	0	2100
2019/04/13 13:46:00	BASE	23.25	109	28.86	104	1.2	92	0.1	16	0	951.3	NA	0.0000	UP BR	5000	0	0	0	2330
2019/04/13 13:47:00	BASE	23.59	106	29.43	95	1.2	93	0.2	16	0	951.4	NA	0.0000	UP BR	5000	0	0	0	2620
2019/04/13 13:48:00	BASE	23.57	100	29.43	95	1.2	93	0.1	16	0	951.4	NA	0.0000	UP BR	6000	0	0	0	3020
2019/04/13 13:49:00	BASE	22.00	101	29.43	95	1.1	93	0.1	16	0	951.5	NA	0.0000	UP BR	6000	0	0	0	3310
2019/04/13 13:50:00	BASE	20.57	102	29.43	95	1.1	93	0.1	17	0	951.4	NA	0.0000	UP BR	6000	0	0	0	5940
2019/04/13 13:51:00	BASE	20.01	107	29.43	95	1.1	93	0.2	17	0	951.4	NA	0.0000	UP BR	6000	0	0	0	6070
2019/04/13 13:52:00	BASE	20.33	108	29.43	95	1.2	94	0.2	18	0	951.4	NA	0.0000	UP BR	6000	0	0	0	5740
2019/04/13 13:53:00	BASE	19.83	107	29.43	95	1.2	94	0.3	18	0	951.4	NA	0.0000	UP BR	6000	0	0	0	5840
2019/04/13 13:54:00	BASE	19.98	114	29.43	95	1.3	94	0.4	19	0	951.4	NA	0.0000	UP BR	6000	0	0	0	5350
2019/04/13 13:55:00	BASE	23.14	112	29.43	95	1.3	94	0.4	20	0	951.4	NA	0.0000	UP BR	6000	0	0	0	5450
2019/04/13 13:56:00	BASE	22.33	108	29.43	95	1.3	94	0.4	21	0	951.4	NA	0.0000	UP BR	5000	0	0	0	5280
2019/04/13 13:57:00	BASE	19.60	113	27.11	127	1.3	93	0.3	21	0	951.4	NA	0.0000	UP BR	7000	0	0	0	5280
2019/04/13 13:58:00	BASE	19.34	114	27.11	127	1.2	93	0.2	20	0	951.4	NA	0.0000	UP BR	8000	0	0	0	5050
2019/04/13 13:59:00	BASE	19.07	119	27.11	127	1.2	93	0.2	19	0	951.4	NA	0.0000	UP BR	7000	0	0	0	4920
2019/04/13 14:00:00	BASE	18.95	117	27.11	127	1.2	93	0.3	18	0	951.5	NA	0.0000	UP BR	7000	0	0	0	5020
2019/04/13 14:01:00	BASE	19.11	104	27.11	127	1.2	93	0.3	16	0	951.6	NA	0.0000	UP BR	7000	0	0	0	4890
2019/04/13 14:02:00	BASE	19.86	101	27.11	127	1.3	93	0.3	15	0	951.5	NA	0.0000	UP BR	7000	0	0	0	4490
2019/04/13 14:03:00	BASE	22.99	101	28.81	103	1.3	93	0.3	14	0	951.3	NA	0.0000	UP BR	7000	0	0	0	4360
2019/04/13 14:04:00	BASE	25.31	102	28.81	103	1.3	93	0.2	13	0	951.3	NA	0.0000	UP BR	6000	1770	0	0	0
2019/04/13 14:05:00	BASE	22.82	104	28.81	103	1.2	92	0.1	13	0	951.3	NA	0.0000	UP BR	6000	0	0	0	3450
2019/04/13 14:06:00	BASE	21.53	103	28.81	103	1.2	92	0.1	14	0	951.3	NA	0.0000	UP BR	6000	0	0	0	3770
2019/04/13 14:07:00	BASE	22.03	100	28.81	103	1.2	92	0.0	14	0	951.4	NA	0.0000	UP BR	6000	0	0	0	3640
2019/04/13 14:08:00	BASE	20.24	100	28.81	103	1.2	92	0.1	14	0	951.4	NA	0.0000	UP BR	6000	0	0	0	3540
2019/04/13 14:09:00	BASE	18.86	101	28.81	103	1.2	92	0.1	14	0	951.4	NA	0.0000	UP BR	7000	2030	0	0	0
2019/04/13 14:10:00	BASE	20.10	101	28.81	103	1.3	92	0.1	14	0	951.4	NA	0.0000	UP BR	7000	0	0	0	3250
2019/04/13 14:11:00	BASE	19.68	98	28.81	103	1.4	92	0.2	15	0	951.5	NA	0.0000	UP BR	7000	1610	0	0	0
2019/04/13 14:12:00	BASE	19.16	98	28.81	103	1.4	91	0.2	15	0	951.4	NA	0.0000	UP BR	7000	3150	0	0	0
2019/04/13 14:13:00	BASE	18.70	100	28.35	102	1.5	91	0.2	14	0	951.5	NA	0.0000	UP BR	6000	0	0	0	3900
2019/04/13 14:14:00	BASE	16.93	103	26.08	93	1.5	91	0.1	14	0	951.5	NA	0.0000	UP BR	6000	0	0	0	3380
2019/04/13 14:15:00	BASE	17.34	103	26.08	93	1.5	90	0.1	14	0	951.6	NA	0.0000	UP BR	6000	0	0	0	3610
2019/04/13 14:16:00	BASE	17.87	101	24.49	102	1.5	91	0.1	14	0	951.6	NA	0.0000	UP BR	5000	0	0	0	3280
2019/04/13 14:17:00	BASE	17.98	101	24.49	102	1.4	91	0.1	14	0	951.6	NA	0.0000	UP BR	6000	0	0	0	3310
2019/04/13 14:18:00	BASE	17.01	100	24.49	102	1.4	92	0.2	14	0	951.6	NA	0.0000	UP BR	5000	0	0	0	3410
2019/04/13 14:19:00	BASE	16.67	103	24.49	102	1.4	92	0.2	14	0	951.5	NA	0.0000	UP BR	4400	0	0	0	3080
2019/04/13 14:20:00	BASE	17.49	102	22.84	101	1.3	93	0.3	14	0	951.5	NA	0.0000	-SN BR	4900	0	0	0	3280
2019/04/13 14:21:00	BASE	17.21	102	22.84	101	1.3	93	0.3	14	0	951.5	NA	0.0000	-SN BR	5000	950	0	0	0
2019/04/13 14:22:00	BASE	15.87	103	20.47	102	1.3	94	0.3	14	0	951.6	NA	0.0000	-SN BR	6000	430	0	0	0
2019/04/13 14:23:00	BASE	15.13	109	20.47	102	1.3	94	0.4	14	0	951.6	NA	0.0000	-SN BR	4600	790	0	0	0
2019/04/13 14:24:00	BASE	16.09	116	20.47	102	1.2	94	0.4	15	0	951.5	NA	0.0000	-SN BR	2800	360	0	0	0
2019/04/13 14:25:00	BASE	17.31	116	20.27	113	1.2	94	0.4	14	0	951.5	NA	0.0000	-SN BR	3500	1410	0	0	0
2019/04/13 14:26:00	BASE	18.02	119	21.92	120	1.2	95	0.4	15	0	951.5	NA	0.0000	-SN BR	4800	360	0	0	0
2019/04/13 14:27:00	BASE	19.10	120	23.00	118	1.2	95	0.5	16	0	951.6	NA	0.0000	-SN BR	3100	0	0	0	3120
2019/04/13 14:28:00	BASE	19.70	119	23.00	118	1.1	96	0.5	16	0	951.5	NA	0.0000	-SN BR	4600	460	0	0	0
2019/04/13 14:29:00	BASE	20.09	119	23.00	118	1.1	96	0.5	18	0	951.4	NA	0.0000	-SN BR	6000	620	0	0	0
2019/04/13 14:30:00	BASE	21.33	119	25.31	116	1.1	96	0.6	19	0	951.4	NA	0.0000	-SN BR	4500	920	0	0	0
2019/04/13 14:31:00	BASE	22.86	119	26.19	116	1.0	97	0.5	20	0	951.3	NA	0.0000	-SN BR	5000	0	0	0	3220
2019/04/13 14:32:00	BASE	23.07	117	26.19	116	1.0	97	0.5	22	0	951.2	NA	0.0000	-SN BR	5000	390	0	0	0
2019/04/13 14:33:00	BASE	21.87	115	26.19	116	0.9	97	0.5	24	0	951.3	NA	0.0000	-SN BR	6000	0	0	0	3180
2019/04/13 14:34:00	BASE	20.74	113	26.19	116	0.9	97	0.5	28	0	951.2	NA	0.0000	-SN BR	9000	0	0	0	3120
2019/04/13 14:35:00	BASE	18.67	120	26.19	116	1.0	96	0.5	29	0	951.2	NA	0.0000	-SN BR	9999	0	0	0	3410
2019/04/13 14:36:00	BASE	18.61	120	26.19	116	1.0	96	0.4	31	0	951.2	NA	0.0000	-SN BR	9999	0	0	0	3250
2019/04/13 14:37:00	BASE	19.38	108	26.19	116	1.1	96	0.5	35	0	951.3	NA	0.0000	-SN BR	5000	0	0	0	3480
2019/04/13 14:38:00	BASE	19.88	106	26.19	116	1.2	95	0.5	37	0	951.1	NA	0.0000	-SN BR	5000	0	0	0	3740
2019/04/13 14:39:00	BASE	20.32	111	26.19	116	1.3	95	0.6	39	0	951.1	NA	0.0000	-SN BR	9999	0	0	0	4230
2019/04/13 14:40:00	BASE	18.28	114	26.19	116	1.5	94	0.6	41	0	951.2	NA	0.0000	-SN BR	9999	0	0	0	4690
2019/04/13 14:41:00	BASE	16.71	111	24.23	113	1.6	93	0.6	43	0	951.2	NA	0.0000	-SN BR	9999	0	0	0	5120
2019/04/13 14:42:00	BASE	15.87	107	23.36	110	1.7	92	0.5	44	0	951.2	NA	0.0000	-SN BR	9999	0	0	0	6040
2019/04/13 14:43:00	BASE	14.28	107	23.36	110	1.8	91	0.4	45	0	951.3	NA	0.0000	-SN BR	9999	0	0	0	5090
2019/04/13 14:44:00	BASE	12.85	106	23.36	110	1.8	90	0.3	46	0	951.3	NA	0.0000	-SN	9999	3970	0	0	0
2019/04/13 14:45:00	BASE	11.03	103	23.36	110	1.8	89	0.1	49	0	951.2	NA	0.0000	-SN	9999	4300	0	0	0
2019/04/13 14:46:00	BASE	10.27	100	23.36	110	1.7	89	0.1	52	0	951.2	NA	0.0000	-SN	9999	0	0	0	5710
2019/04/13 14:47:00	BASE	12.76	92	23.36	110	1.7	89	-0.0	55	0	951.1	NA	0.0000	-SN	9999	5120	0	0	0
2019/04/13 14:48:00	BASE	13.25	94	21.66	108	1.6	89	-0.0	59	0	951.1	NA	0.0000		9999	5250	0	0	0
2019/04/13 14:49:00	BASE	12.07	107	18.78	106	1.7	89	-0.0	62	0	951.1	NA	0.0000		9999	5280	0	0	0
2019/04/13 14:50:00	BASE	14.13	112	20.11	119	1.7	89	-0.0	64	0	951.0	NA	0.0000		9999	5180	0	0	0
2019/04/13 14:51:00	BASE	16.51	109	20.11	119	1.7	88	-0.0	66	0	950.9	NA	0.0000		9999	5350	0	0	0
2019/04/13 14:52:00	BASE	16.53	108	20.11	119	1.8	88	-0.0	67	0	950.8	NA	0.0000		9999	5220	0	0	0
2019/04/13 14:53:00	BASE	16.45	108	20.11	119	1.8	87	-0.1	68	0	950.8	NA	0.0000		9999	5020	0	0	0
2019/04/13 14:54:00	BASE	15.75	107	20.11	119	1.8	87	-0.2	69	0	950.8	NA	0.0000		9999	5120	0	0	0
2019/04/13 14:55:00	BASE	16.84	107	22.69	116	1.9	86	-0.3	70	0	950.8	NA	0.0000		9999	4990	0	0	0
2019/04/13 14:56:00	BASE	17.69	107	22.69	116	1.9	85	-0.3	71	0	950.9	NA	0.0000		9999	5680	0	0	0
2019/04/13 14:57:00	BASE	18.07	111	22.69	116	1.9	85	-0.4	74	0	950.8	NA	0.0000		9999	6140	0	0	0
2019/04/13 14:58:00	BASE	19.36	113	22.69	116	1.9	85	-0.4	77	0	950.9	NA	0.0000		9999	5970	0	0	0
2019/04/13 14:59:00	BASE	18.57	110	22.69	116	1.8	85	-0.5	80	0	950.9	NA	0.0000		9999	5640	0	0	0
2019/04/13 15:00:00	BASE	20.47	110	24.49	103	1.8	85	-0.4	82	0	950.8	NA	0.0000		9999	5350	0	0	0
2019/04/13 15:01:00	BASE	21.16	106	24.49	103	1.8	85	-0.5	85	0	950.8	NA	0.0000		9999	5050	0	0	0
2019/04/13 15:02:00	BASE	20.99	105	26.91	122	1.8	85	-0.5	91	0	950.7	NA	0.0000		9999	3050	0	0	0
2019/04/13 15:03:00	BASE	23.52	111	26.91	120	1.8	85	-0.5	101	0	950.5	NA	0.0000		9999	2490	0	0	0
2019/04/13 15:04:00	BASE	25.33	107	30.04	101	1.8	85	-0.5	109	0	950.5	NA	0.0000		9999	2690	7090	0	0
2019/04/13 15:05:00	BASE	25.59	102	30.61	96	1.7	85	-0.5	114	0	950.4	NA	0.0000		9999	2400	6990	0	0
2019/04/13 15:06:00	BASE	23.11	103	30.61	96	1.7	85	-0.6	116	0	950.4	NA	0.0000		9999	2690	7190	0	0
2019/04/13 15:07:00	BASE	20.50	106	30.61	96	1.6	85	-0.6	118	0	950.3	NA	0.0000		9999	7190	0	0	0
2019/04/13 15:08:00	BASE	21.67	115	30.61	96	1.6	85	-0.5	120	0	950.2	NA	0.0000		9999	7190	0	0	0
2019/04/13 15:09:00	BASE	23.26	118	30.61	96	1.7	86	-0.5	124	0	950.3	NA	0.0000		9999	6560	0	0	0
2019/04/13 15:10:00	BASE	21.35	115	30.61	96	1.7	86	-0.4	130	0	950.5	NA	0.0000		9999	6330	0	0	0
2019/04/13 15:11:00	BASE	19.65	117	30.61	96	1.8	85	-0.4	138	0	950.3	NA	0.0000		9999	5580	6370	0	0
2019/04/13 15:12:00	BASE	21.64	122	30.61	96	1.8	85	-0.5	149	0	950.1	NA	0.0000		9999	5510	0	0	0
2019/04/13 15:13:00	BASE	24.59	118	30.61	96	1.7	85	-0.5	158	0	950.2	NA	0.0000		9999	5510	5970	7090	0
2019/04/13 15:14:00	BASE	24.64	113	30.61	96	1.7	85	-0.5	165	0	950.1	NA	0.0000		9999	6990	0	0	0
2019/04/13 15:15:00	BASE	25.92	116	33.70	118	1.7	86	-0.5	171	0	949.9	NA	0.0000		9999	6920	0	0	0
2019/04/13 15:16:00	BASE	29.07	120	33.70	118	1.6	86	-0.5	174	0	949.9	NA	0.0000		9999	5640	6990	0	0
2019/04/13 15:17:00	BASE	27.49	119	33.70	118	1.6	86	-0.5	178	0	950.0	NA	0.0000		9999	5220	6730	0	0
2019/04/13 15:18:00	BASE	24.38	113	33.70	118	1.6	86	-0.5	181	0	950.1	NA	0.0000		9999	6860	0	0	0
2019/04/13 15:19:00	BASE	23.39	110	33.70	118	1.6	85	-0.5	183	0	950.1	NA	0.0000		9999	7090	0	0	0
2019/04/13 15:20:00	BASE	23.91	117	33.70	118	1.7	85	-0.6	181	0	950.0	NA	0.0000		9999	7050	7480	0	0
2019/04/13 15:21:00	BASE	24.48	119	33.70	118	1.7	85	-0.6	177	0	950.1	NA	0.0000		9999	7050	0	0	0
2019/04/13 15:22:00	BASE	23.79	117	33.70	118	1.8	84	-0.6	173	0	950.1	NA	0.0000		9999	7020	0	0	0
2019/04/13 15:23:00	BASE	24.30	118	33.70	118	1.8	84	-0.6	170	0	950.1	NA	0.0000		9999	6820	0	0	0
2019/04/13 15:24:00	BASE	24.57	116	33.70	118	1.9	84	-0.6	169	0	950.1	NA	0.0000		9999	6760	19190	0	0
2019/04/13 15:25:00	BASE	24.91	113	32.15	127	1.9	84	-0.6	166	0	950.0	NA	0.0000		9999	6920	0	0	0
2019/04/13 15:26:00	BASE	24.41	113	28.71	117	2.0	83	-0.5	159	0	950.0	NA	0.0000		9999	6920	0	0	0
2019/04/13 15:27:00	BASE	22.07	111	28.71	117	2.1	83	-0.6	160	0	950.0	NA	0.0000		9999	6790	0	0	0
2019/04/13 15:28:00	BASE	22.29	112	28.71	117	2.2	82	-0.6	163	0	950.0	NA	0.0000		9999	6790	0	0	0
2019/04/13 15:29:00	BASE	23.62	116	28.71	117	2.2	81	-0.7	161	0	949.9	NA	0.0000		9999	6370	7380	0	0
2019/04/13 15:30:00	BASE	24.45	114	28.60	113	2.2	80	-0.8	156	0	949.9	NA	0.0000		9999	7120	0	0	0
2019/04/13 15:31:00	BASE	25.69	108	31.28	94	2.2	80	-1.0	160	0	950.0	NA	0.0000		9999	6990	0	0	0
2019/04/13 15:32:00	BASE	26.18	104	31.28	94	2.1	79	-1.2	161	0	949.9	NA	0.0000		9999	6990	7510	0	0
2019/04/13 15:33:00	BASE	25.62	103	31.28	94	2.0	79	-1.2	157	0	949.9	NA	0.0000		9999	7640	0	0	0
2019/04/13 15:34:00	BASE	24.43	102	31.28	94	2.0	79	-1.3	148	0	950.0	NA	0.0000		9999	7550	0	0	0
2019/04/13 15:35:00	BASE	22.82	100	31.28	94	1.9	79	-1.3	141	0	949.9	NA	0.0000		9999	8070	0	0	0
2019/04/13 15:36:00	BASE	21.23	100	31.28	94	1.9	79	-1.4	146	0	950.0	NA	0.0000		9999	0	0	0	0
2019/04/13 15:37:00	BASE	19.82	100	31.28	94	1.9	79	-1.3	155	0	950.1	NA	0.0000		9999	0	0	0	0
2019/04/13 15:38:00	BASE	18.98	100	31.28	94	2.0	79	-1.3	148	0	950.1	NA	0.0000		9999	0	0	0	0
2019/04/13 15:39:00	BASE	17.54	99	31.28	94	2.0	79	-1.3	145	0	950.1	NA	0.0000		9999	0	0	0	0
2019/04/13 15:40:00	BASE	16.95	96	31.28	94	2.0	79	-1.3	142	0	950.0	NA	0.0000		9999	7870	0	0	0
2019/04/13 15:41:00	BASE	18.01	95	28.24	99	2.0	78	-1.3	139	0	949.9	NA	0.0000		9999	0	0	0	0
2019/04/13 15:42:00	BASE	17.21	99	26.85	96	2.1	78	-1.3	130	0	949.9	NA	0.0000		9999	7550	0	0	0
2019/04/13 15:43:00	BASE	14.93	106	25.67	101	2.1	77	-1.4	131	0	950.0	NA	0.0000		9999	0	0	0	0
2019/04/13 15:44:00	BASE	14.51	107	24.18	100	2.2	77	-1.4	131	0	950.0	NA	0.0000		9999	0	0	0	0
2019/04/13 15:45:00	BASE	17.39	105	24.18	100	2.2	77	-1.4	129	0	950.0	NA	0.0000		9999	0	0	0	0
2019/04/13 15:46:00	BASE	20.96	103	25.98	98	2.2	77	-1.5	129	0	949.9	NA	0.0000		9999	0	0	0	0
2019/04/13 15:47:00	BASE	20.95	106	25.98	98	2.1	76	-1.6	129	0	950.0	NA	0.0000		9999	0	0	0	0
2019/04/13 15:48:00	BASE	18.57	106	25.98	98	2.1	76	-1.7	128	0	950.0	NA	0.0000		9999	0	0	0	0
2019/04/13 15:49:00	BASE	20.86	101	28.96	96	2.0	76	-1.7	135	0	950.0	NA	0.0000		9999	0	0	0	0
2019/04/13 15:50:00	BASE	24.69	97	28.96	96	1.9	76	-1.8	220	0	949.9	NA	0.0000		9999	0	0	0	0
2019/04/13 15:51:00	BASE	24.27	100	29.58	111	1.9	77	-1.8	377	0	949.9	NA	0.0000		9999	0	0	0	0
2019/04/13 15:52:00	BASE	24.27	104	30.40	103	2.0	77	-1.7	268	0	949.9	NA	0.0000		9999	0	0	0	0
2019/04/13 15:53:00	BASE	24.07	103	30.40	103	2.0	77	-1.6	320	0	949.9	NA	0.0000		9999	0	0	0	0
2019/04/13 15:54:00	BASE	22.48	105	30.40	103	2.1	76	-1.6	136	0	950.1	NA	0.0000		9999	0	0	0	0
2019/04/13 15:55:00	BASE	22.58	112	30.40	103	2.2	76	-1.6	385	0	950.0	NA	0.0000		9999	0	0	0	0
2019/04/13 15:56:00	BASE	23.61	113	30.40	103	2.3	76	-1.5	370	0	949.9	NA	0.0000		9999	0	0	0	0
2019/04/13 15:57:00	BASE	24.89	108	30.76	107	2.4	75	-1.5	364	0	949.9	NA	0.0000		9999	0	0	0	0
2019/04/13 15:58:00	BASE	23.57	105	30.76	107	2.4	76	-1.5	365	0	949.9	NA	0.0000		9999	0	0	0	0
2019/04/13 15:59:00	BASE	20.47	104	30.76	107	2.5	76	-1.3	367	0	950.0	NA	0.0000		9999	0	0	0	0
2019/04/13 16:00:00	BASE	20.01	103	30.76	107	2.6	76	-1.2	374	0	950.0	NA	0.0000		9999	0	0	0	0
2019/04/13 16:01:00	BASE	20.60	101	30.76	107	2.6	76	-1.2	374	0	950.0	NA	0.0000		9999	0	0	0	0
2019/04/13 16:02:00	BASE	21.49	101	30.76	107	2.6	76	-1.2	369	0	950.0	NA	0.0000		9999	0	0	0	0
2019/04/13 16:03:00	BASE	23.00	102	30.76	107	2.6	75	-1.3	370	0	949.9	NA	0.0000		9999	0	0	0	0
2019/04/13 16:04:00	BASE	24.61	102	31.54	113	2.6	75	-1.4	360	0	949.8	NA	0.0000		9999	6660	0	0	0
2019/04/13 16:05:00	BASE	25.37	104	31.54	113	2.7	74	-1.6	363	0	949.8	NA	0.0000		9999	0	0	0	0
2019/04/13 16:06:00	BASE	25.53	102	31.54	113	2.7	73	-1.7	183	0	949.7	NA	0.0000		9999	0	0	0	0
2019/04/13 16:07:00	BASE	25.59	101	31.54	113	2.8	72	-1.9	246	0	949.7	NA	0.0000		9999	0	0	0	0
2019/04/13 16:08:00	BASE	25.69	103	31.54	113	2.8	71	-2.0	324	0	949.7	NA	0.0000		9999	0	0	0	0
2019/04/13 16:09:00	BASE	25.30	104	31.54	113	2.7	70	-2.2	133	0	949.7	NA	0.0000		9999	9190	0	0	0
2019/04/13 16:10:00	BASE	23.47	106	31.54	113	2.6	70	-2.3	97	0	949.6	NA	0.0000		9999	9090	0	0	0
2019/04/13 16:11:00	BASE	24.32	108	31.54	113	2.5	70	-2.4	89	0	949.5	NA	0.0000		9999	0	0	0	0
2019/04/13 16:12:00	BASE	26.02	108	31.54	113	2.4	70	-2.5	152	0	949.4	NA	0.0000		9999	0	0	0	0
2019/04/13 16:13:00	BASE	27.06	105	31.84	103	2.3	71	-2.5	297	0	949.4	NA	0.0000		9999	0	0	0	0
2019/04/13 16:14:00	BASE	27.55	104	31.84	103	2.3	71	-2.5	221	0	949.4	NA	0.0000		9999	0	0	0	0
2019/04/13 16:15:00	BASE	26.66	105	31.84	103	2.2	71	-2.5	296	0	949.4	NA	0.0000		9999	8920	0	0	0
2019/04/13 16:16:00	BASE	25.54	105	31.84	103	2.3	71	-2.5	112	0	949.4	NA	0.0000		9999	0	0	0	0
2019/04/13 16:17:00	BASE	24.92	106	31.84	103	2.3	71	-2.5	80	0	949.4	NA	0.0000		9999	0	0	0	0
2019/04/13 16:18:00	BASE	25.34	105	31.84	103	2.4	70	-2.5	75	0	949.3	NA	0.0000		9999	0	0	0	0
2019/04/13 16:19:00	BASE	25.70	103	31.84	103	2.3	70	-2.5	79	0	949.4	NA	0.0000		9999	0	0	0	0
2019/04/13 16:20:00	BASE	24.63	103	31.84	103	2.3	70	-2.6	85	0	949.4	NA	0.0000		9999	0	0	0	0
2019/04/13 16:21:00	BASE	23.60	103	31.84	103	2.2	70	-2.7	90	0	949.4	NA	0.0000		9999	10600	0	0	0
2019/04/13 16:22:00	BASE	25.30	109	31.84	103	2.2	70	-2.7	91	0	949.2	NA	0.0000		9999	10300	0	0	0
2019/04/13 16:23:00	BASE	25.37	111	30.04	100	2.2	70	-2.7	91	0	949.3	NA	0.0000		9999	10240	0	0	0
2019/04/13 16:24:00	BASE	23.24	108	30.04	100	2.2	70	-2.7	88	0	949.4	NA	0.0000		9999	9970	0	0	0
2019/04/13 16:25:00	BASE	23.39	103	30.04	100	2.2	70	-2.6	92	0	949.4	NA	0.0000		9999	0	0	0	0
2019/04/13 16:26:00	BASE	23.59	104	30.04	100	2.2	71	-2.6	97	0	949.5	NA	0.0000		9999	0	0	0	0
2019/04/13 16:27:00	BASE	23.26	105	30.04	100	2.3	71	-2.5	102	0	949.4	NA	0.0000		9999	0	0	0	0
2019/04/13 16:28:00	BASE	22.88	101	29.73	96	2.3	71	-2.4	100	0	949.4	NA	0.0000		9999	10270	0	0	0
2019/04/13 16:29:00	BASE	23.84	98	29.17	102	2.4	71	-2.4	98	0	949.4	NA	0.0000		9999	9710	0	0	0
2019/04/13 16:30:00	BASE	24.43	96	29.17	102	2.4	70	-2.5	102	0	949.4	NA	0.0000		9999	0	0	0	0
2019/04/13 16:31:00	BASE	23.66	94	30.04	91	2.4	70	-2.5	107	0	949.3	NA	0.0000		9999	9120	0	0	0
2019/04/13 16:32:00	BASE	25.24	91	30.46	91	2.4	69	-2.6	116	0	949.4	NA	0.0000		9999	9350	0	0	0
2019/04/13 16:33:00	BASE	25.89	91	30.46	91	2.4	69	-2.8	117	0	949.4	NA	0.0000		9999	0	0	0	0
2019/04/13 16:34:00	BASE	24.44	89	30.46	91	2.3	69	-2.9	109	0	949.5	NA	0.0000		9999	8760	9190	16370	0
2019/04/13 16:35:00	BASE	23.61	90	30.46	91	2.3	69	-2.9	100	0	949.4	NA	0.0000		9999	9020	0	0	0
2019/04/13 16:36:00	BASE	24.22	93	30.46	91	2.2	69	-3.0	94	0	949.5	NA	0.0000		9999	9120	0	0	0
2019/04/13 16:37:00	BASE	23.38	95	30.46	91	2.1	69	-3.0	88	0	949.5	NA	0.0000		9999	0	0	0	0
2019/04/13 16:38:00	BASE	23.61	95	30.46	91	2.0	70	-2.9	80	0	949.5	NA	0.0000		9999	9740	0	0	0
2019/04/13 16:39:00	BASE	24.91	94	30.46	91	2.0	70	-2.9	78	0	949.5	NA	0.0000		9999	9250	0	0	0
2019/04/13 16:40:00	BASE	23.55	95	30.46	91	1.9	70	-2.9	80	0	949.6	NA	0.0000		9999	0	0	0	0
2019/04/13 16:41:00	BASE	24.71	95	30.46	91	1.9	70	-2.9	83	0	949.5	NA	0.0000		9999	9020	0	0	0
2019/04/13 16:42:00	BASE	27.05	94	29.73	90	1.9	70	-2.9	88	0	949.5	NA	0.0000		9999	9090	9580	0	0
2019/04/13 16:43:00	BASE	26.17	96	29.48	99	1.9	70	-2.9	93	0	949.4	NA	0.0000		9999	8830	0	0	0
2019/04/13 16:44:00	BASE	25.93	96	29.48	99	2.0	70	-2.9	99	0	949.4	NA	0.0000		9999	8860	0	0	0
2019/04/13 16:45:00	BASE	24.26	96	29.48	99	2.0	70	-2.9	100	0	949.5	NA	0.0000		9999	8760	0	0	0
2019/04/13 16:46:00	BASE	23.29	97	29.48	99	2.0	70	-2.9	97	0	949.4	NA	0.0000		9999	7970	8830	0	0
2019/04/13 16:47:00	BASE	23.87	97	29.48	99	2.1	70	-2.9	93	0	949.5	NA	0.0000		9999	8890	0	0	0
2019/04/13 16:48:00	BASE	23.69	97	29.48	99	2.1	70	-2.9	90	0	949.4	NA	0.0000		9999	8430	0	0	0
2019/04/13 16:49:00	BASE	24.28	98	29.48	99	2.1	70	-2.9	88	0	949.4	NA	0.0000		9999	8200	0	0	0
2019/04/13 16:50:00	BASE	24.33	96	29.48	99	2.1	70	-2.9	88	0	949.5	NA	0.0000		9999	8140	0	0	0
2019/04/13 16:51:00	BASE	23.61	94	29.48	99	2.1	70	-2.8	90	0	949.5	NA	0.0000		9999	8100	0	0	0
2019/04/13 16:52:00	BASE	22.86	97	28.76	100	2.1	70	-2.8	91	0	949.4	NA	0.0000		9999	8370	0	0	0
2019/04/13 16:53:00	BASE	22.51	97	28.76	100	2.1	71	-2.7	89	0	949.4	NA	0.0000		9999	8070	8960	0	0
2019/04/13 16:54:00	BASE	21.92	96	28.55	94	2.1	71	-2.6	87	0	949.4	NA	0.0000		9999	8890	0	0	0
2019/04/13 16:55:00	BASE	22.65	98	28.55	94	2.1	71	-2.6	87	0	949.4	NA	0.0000		9999	8760	0	0	0
2019/04/13 16:56:00	BASE	23.80	96	28.04	100	2.2	71	-2.6	87	0	949.3	NA	0.0000		9999	9190	0	0	0
2019/04/13 16:57:00	BASE	24.07	96	28.04	100	2.2	71	-2.5	88	0	949.3	NA	0.0000		9999	9650	0	0	0
2019/04/13 16:58:00	BASE	22.98	96	28.04	100	2.2	71	-2.5	93	0	949.3	NA	0.0000		9999	9220	0	0	0
2019/04/13 16:59:00	BASE	22.74	94	28.04	100	2.2	72	-2.4	93	0	949.2	NA	0.0000		9999	8830	0	0	0
2019/04/13 17:00:00	BASE	22.58	93	28.04	100	2.1	72	-2.4	88	0	949.2	NA	0.0000		9999	8660	9220	0	0
2019/04/13 17:01:00	BASE	21.06	93	28.04	100	2.1	72	-2.4	83	0	949.2	NA	0.0000		9999	7910	0	0	0
2019/04/13 17:02:00	BASE	19.73	95	28.04	100	2.1	72	-2.4	81	0	949.3	NA	0.0000		9999	8860	0	0	0
2019/04/13 17:03:00	BASE	18.93	95	28.04	100	2.1	73	-2.3	79	0	949.3	NA	0.0000		9999	7710	0	0	0
2019/04/13 17:04:00	BASE	19.02	93	28.04	100	2.0	73	-2.3	77	0	949.3	NA	0.0000		9999	6890	0	0	0
2019/04/13 17:05:00	BASE	18.91	96	26.70	98	2.0	73	-2.2	76	0	949.2	NA	0.0000		9999	8760	0	0	0
2019/04/13 17:06:00	BASE	20.06	98	26.70	98	2.0	74	-2.2	75	0	949.2	NA	0.0000		9999	8690	0	0	0
2019/04/13 17:07:00	BASE	21.66	99	26.65	88	2.0	74	-2.2	74	0	949.1	NA	0.0000		9999	8600	0	0	0
2019/04/13 17:08:00	BASE	20.39	97	26.65	88	2.0	74	-2.2	75	0	949.2	NA	0.0000		9999	8460	0	0	0
2019/04/13 17:09:00	BASE	19.72	98	24.85	97	2.1	73	-2.2	79	0	949.2	NA	0.0000		9999	0	0	0	0
2019/04/13 17:10:00	BASE	19.62	102	24.85	97	2.1	73	-2.3	81	0	949.3	NA	0.0000		9999	0	0	0	0
2019/04/13 17:11:00	BASE	18.47	101	24.85	97	2.1	72	-2.4	84	0	949.3	NA	0.0000		9999	0	0	0	0
2019/04/13 17:12:00	BASE	18.47	104	24.85	97	2.1	72	-2.4	87	0	949.4	NA	0.0000		9999	0	0	0	0
2019/04/13 17:13:00	BASE	18.97	105	24.85	97	2.1	72	-2.5	85	0	949.4	NA	0.0000		9999	11580	0	0	0
2019/04/13 17:14:00	BASE	19.67	102	24.85	97	2.0	72	-2.6	82	0	949.3	NA	0.0000		9999	9190	11650	0	0
2019/04/13 17:15:00	BASE	19.31	104	24.85	97	2.0	72	-2.6	81	0	949.3	NA	0.0000		9999	8760	0	0	0
2019/04/13 17:16:00	BASE	18.72	105	24.85	97	2.1	71	-2.6	88	0	949.4	NA	0.0000		9999	0	0	0	0
2019/04/13 17:17:00	BASE	18.76	105	23.97	103	2.1	71	-2.6	97	0	949.4	NA	0.0000		9999	8690	0	0	0
2019/04/13 17:18:00	BASE	18.62	108	23.97	103	2.1	71	-2.6	106	0	949.5	NA	0.0000		9999	0	0	0	0
2019/04/13 17:19:00	BASE	19.09	108	23.77	98	2.1	71	-2.5	113	0	949.6	NA	0.0000		9999	8600	0	0	0
2019/04/13 17:20:00	BASE	19.87	107	23.77	98	2.1	71	-2.5	130	0	949.6	NA	0.0000		9999	6860	0	0	0
2019/04/13 17:21:00	BASE	19.44	112	23.77	98	2.1	72	-2.5	105	0	949.6	NA	0.0000		9999	6630	0	0	0
2019/04/13 17:22:00	BASE	18.71	111	23.77	98	2.0	72	-2.6	103	0	949.6	NA	0.0000		9999	0	0	0	0
2019/04/13 17:23:00	BASE	19.29	104	23.77	98	2.0	72	-2.6	138	0	949.5	NA	0.0000		9999	8790	0	0	0
2019/04/13 17:24:00	BASE	20.76	104	23.20	111	1.9	71	-2.7	145	0	949.5	NA	0.0000		9999	0	0	0	0
2019/04/13 17:25:00	BASE	20.04	107	23.20	111	1.9	71	-2.8	114	0	949.5	NA	0.0000		9999	0	0	0	0
2019/04/13 17:26:00	BASE	18.81	109	23.20	111	1.9	71	-2.8	110	0	949.4	NA	0.0000		9999	0	0	0	0
2019/04/13 17:27:00	BASE	20.74	110	23.97	111	1.8	71	-2.9	107	0	949.3	NA	0.0000		9999	0	0	0	0
2019/04/13 17:28:00	BASE	22.15	109	24.69	108	1.8	71	-2.8	105	0	949.4	NA	0.0000		9999	0	0	0	0
2019/04/13 17:29:00	BASE	20.68	108	24.69	108	1.8	72	-2.8	106	0	949.4	NA	0.0000		9999	0	0	0	0
2019/04/13 17:30:00	BASE	19.99	109	24.69	108	1.8	72	-2.7	105	0	949.3	NA	0.0000		9999	0	0	0	0
2019/04/13 17:31:00	BASE	20.93	110	24.69	108	1.8	72	-2.7	102	0	949.3	NA	0.0000		9999	0	0	0	0
2019/04/13 17:32:00	BASE	20.92	109	24.69	108	1.8	73	-2.6	100	0	949.3	NA	0.0000		9999	0	0	0	0
2019/04/13 17:33:00	BASE	21.00	111	24.69	108	1.8	73	-2.5	98	0	949.2	NA	0.0000		9999	0	0	0	0
2019/04/13 17:34:00	BASE	20.19	112	24.69	108	1.9	73	-2.4	98	0	949.3	NA	0.0000		9999	0	0	0	0
2019/04/13 17:35:00	BASE	20.04	106	24.69	108	1.9	73	-2.4	99	0	949.2	NA	0.0000		9999	0	0	0	0
2019/04/13 17:36:00	BASE	21.29	104	24.69	108	2.0	72	-2.5	103	0	949.2	NA	0.0000		9999	0	0	0	0
2019/04/13 17:37:00	BASE	21.23	106	24.69	108	2.0	72	-2.5	107	0	949.2	NA	0.0000		9999	0	0	0	0
2019/04/13 17:38:00	BASE	20.85	108	24.02	114	2.0	71	-2.6	110	0	949.1	NA	0.0000		9999	9190	0	0	0
2019/04/13 17:39:00	BASE	21.45	110	24.02	114	2.1	71	-2.7	116	0	949.1	NA	0.0000		9999	9090	0	0	0
2019/04/13 17:40:00	BASE	21.89	112	24.02	114	2.1	70	-2.8	111	0	949.1	NA	0.0000		9999	8890	0	0	0
2019/04/13 17:41:00	BASE	21.19	114	24.02	114	2.1	70	-2.8	107	0	949.1	NA	0.0000		9999	8730	0	0	0
2019/04/13 17:42:00	BASE	21.56	113	24.02	114	2.1	70	-2.9	105	0	949.1	NA	0.0000		9999	8140	0	0	0
2019/04/13 17:43:00	BASE	22.41	111	24.02	114	2.1	70	-2.9	104	0	949.1	NA	0.0000		9999	8300	0	0	0
2019/04/13 17:44:00	BASE	23.02	112	25.67	114	2.1	69	-2.9	102	0	949.1	NA	0.0000		9999	8300	0	0	0
2019/04/13 17:45:00	BASE	23.29	111	26.55	112	2.1	69	-2.9	101	0	949.0	NA	0.0000		9999	8430	0	0	0
2019/04/13 17:46:00	BASE	22.37	108	26.55	112	2.1	70	-2.9	100	0	949.0	NA	0.0000		9999	8200	0	0	0
2019/04/13 17:47:00	BASE	21.70	106	26.55	112	2.1	70	-2.9	97	0	949.0	NA	0.0000		9999	8560	0	0	0
2019/04/13 17:48:00	BASE	22.11	109	26.55	112	2.0	70	-2.9	96	0	949.0	NA	0.0000		9999	8370	0	0	0
2019/04/13 17:49:00	BASE	23.38	112	26.55	112	1.9	71	-2.8	95	0	948.9	NA	0.0000		9999	8370	0	0	0
2019/04/13 17:50:00	BASE	24.23	113	26.55	112	1.9	71	-2.7	93	0	948.9	NA	0.0000		9999	8460	0	0	0
2019/04/13 17:51:00	BASE	24.28	114	26.55	112	1.9	71	-2.7	91	0	948.8	NA	0.0000		9999	8960	0	0	0
2019/04/13 17:52:00	BASE	24.25	113	26.55	112	2.0	71	-2.7	88	0	948.8	NA	0.0000		9999	8430	0	0	0
2019/04/13 17:53:00	BASE	24.42	109	27.68	112	2.0	71	-2.7	84	0	948.7	NA	0.0000		9999	8430	0	0	0
2019/04/13 17:54:00	BASE	25.76	108	29.37	101	2.1	71	-2.7	80	0	948.7	NA	0.0000		9999	8300	0	0	0
2019/04/13 17:55:00	BASE	25.91	110	29.37	101	2.2	71	-2.6	75	0	948.7	NA	0.0000		9999	7970	0	0	0
2019/04/13 17:56:00	BASE	23.75	110	29.37	101	2.2	70	-2.6	71	0	948.7	NA	0.0000		9999	7940	0	0	0
2019/04/13 17:57:00	BASE	23.42	109	29.37	101	2.3	71	-2.5	68	0	948.7	NA	0.0000		9999	7680	0	0	0
2019/04/13 17:58:00	BASE	23.58	111	29.37	101	2.3	71	-2.5	64	0	948.7	NA	0.0000		9999	7280	0	0	0
2019/04/13 17:59:00	BASE	23.88	111	29.37	101	2.3	71	-2.5	60	0	948.7	NA	0.0000		9999	7150	0	0	0
2019/04/13 18:00:00	BASE	24.19	110	29.37	101	2.3	71	-2.5	56	0	948.7	NA	0.0000		9999	7090	0	0	0
2019/04/13 18:01:00	BASE	23.72	111	29.37	101	2.3	71	-2.5	54	0	948.7	NA	0.0000		9999	7020	0	0	0
2019/04/13 18:02:00	BASE	24.70	113	29.37	101	2.2	71	-2.5	52	0	948.6	NA	0.0000		9999	7150	0	0	0
2019/04/13 18:03:00	BASE	25.41	115	29.37	101	2.2	71	-2.5	50	0	948.7	NA	0.0000		9999	6960	0	0	0
2019/04/13 18:04:00	BASE	25.50	112	28.35	110	2.2	71	-2.5	49	0	948.7	NA	0.0000		9999	6660	0	0	0
2019/04/13 18:05:00	BASE	24.72	110	28.35	110	2.2	71	-2.6	49	0	948.7	NA	0.0000		9999	4560	0	0	0
2019/04/13 18:06:00	BASE	24.05	110	28.35	110	2.1	71	-2.6	49	0	948.8	NA	0.0000		9999	6730	0	0	0
2019/04/13 18:07:00	BASE	23.90	108	28.35	110	2.1	71	-2.6	48	0	948.9	NA	0.0000		9999	6530	0	0	0
2019/04/13 18:08:00	BASE	23.17	105	28.35	110	2.1	71	-2.6	48	0	948.9	NA	0.0000		9999	4100	0	0	0
2019/04/13 18:09:00	BASE	21.44	102	28.35	110	2.1	71	-2.6	48	0	948.9	NA	0.0000		9999	3940	0	0	0
2019/04/13 18:10:00	BASE	19.00	103	28.35	110	2.1	71	-2.6	48	0	949.0	NA	0.0000		9999	3770	0	0	0
2019/04/13 18:11:00	BASE	19.55	106	28.35	110	2.1	71	-2.6	48	0	948.9	NA	0.0000		9999	5640	0	0	0
2019/04/13 18:12:00	BASE	21.78	107	28.35	110	2.1	71	-2.5	48	0	948.9	NA	0.0000		9999	3670	0	0	0
2019/04/13 18:13:00	BASE	21.64	106	27.32	110	2.1	72	-2.5	48	0	948.9	NA	0.0000		9999	3310	0	0	0
2019/04/13 18:14:00	BASE	21.12	105	26.13	102	2.0	72	-2.5	49	0	949.0	NA	0.0000		9999	5090	0	0	0
2019/04/13 18:15:00	BASE	21.18	106	25.77	109	2.0	72	-2.5	49	0	949.0	NA	0.0000		9999	5050	0	0	0
2019/04/13 18:16:00	BASE	21.31	109	25.77	109	2.0	72	-2.5	50	0	948.9	NA	0.0000		9999	4820	0	0	0
2019/04/13 18:17:00	BASE	22.05	108	25.88	98	2.0	72	-2.5	50	0	948.9	NA	0.0000		9999	2690	0	0	0
2019/04/13 18:18:00	BASE	23.17	107	26.91	109	2.1	72	-2.5	50	0	948.9	NA	0.0000		9999	4660	0	0	0
2019/04/13 18:19:00	BASE	22.62	105	26.91	109	2.1	72	-2.5	50	0	949.0	NA	0.0000		9999	4720	0	0	0
2019/04/13 18:20:00	BASE	20.59	101	26.91	109	2.0	72	-2.5	51	0	949.0	NA	0.0000		9999	4630	0	0	0
2019/04/13 18:21:00	BASE	19.58	100	26.91	109	2.0	72	-2.5	51	0	949.1	NA	0.0000		9999	4660	0	0	0
2019/04/13 18:22:00	BASE	19.02	103	26.91	109	2.0	72	-2.5	52	0	949.1	NA	0.0000		9999	4760	0	0	0
2019/04/13 18:23:00	BASE	19.65	104	26.91	109	1.9	72	-2.5	52	0	949.1	NA	0.0000		9999	4660	0	0	0
2019/04/13 18:24:00	BASE	19.82	102	26.91	109	1.9	73	-2.5	52	0	949.1	NA	0.0000		9999	4560	0	0	0
2019/04/13 18:25:00	BASE	18.53	100	26.91	109	1.9	73	-2.4	52	0	949.2	NA	0.0000		9999	4630	0	0	0
2019/04/13 18:26:00	BASE	18.37	96	26.91	109	1.9	73	-2.4	52	0	949.2	NA	0.0000		9999	4950	0	0	0
2019/04/13 18:27:00	BASE	18.08	92	26.91	109	1.9	73	-2.3	52	0	949.2	NA	0.0000		9999	5090	0	0	0
2019/04/13 18:28:00	BASE	17.18	94	24.13	102	1.9	73	-2.4	52	0	949.2	NA	0.0000		9999	5020	0	0	0
2019/04/13 18:29:00	BASE	17.43	96	23.20	101	2.0	73	-2.4	52	0	949.2	NA	0.0000		9999	5050	0	0	0
2019/04/13 18:30:00	BASE	17.53	96	23.20	101	1.9	73	-2.5	52	0	949.2	NA	0.0000		9999	22640	0	0	0
2019/04/13 18:31:00	BASE	18.51	99	23.20	101	1.9	72	-2.6	52	0	949.1	NA	0.0000		9999	5280	0	0	0
2019/04/13 18:32:00	BASE	19.44	99	23.20	101	1.8	72	-2.7	51	0	949.1	NA	0.0000		9999	5180	0	0	0
2019/04/13 18:33:00	BASE	19.87	101	22.74	101	1.7	73	-2.7	51	0	949.1	NA	0.0000		9999	5050	0	0	0
2019/04/13 18:34:00	BASE	20.40	102	22.74	101	1.7	73	-2.7	51	0	949.1	NA	0.0000		9999	4690	0	0	0
2019/04/13 18:35:00	BASE	19.50	99	22.74	101	1.6	74	-2.6	52	0	949.1	NA	0.0000		9999	4660	0	0	0
2019/04/13 18:36:00	BASE	17.77	95	22.74	101	1.6	74	-2.5	52	0	949.2	NA	0.0000		9999	3050	0	0	0
2019/04/13 18:37:00	BASE	17.60	93	22.74	101	1.7	75	-2.3	53	0	949.2	NA	0.0000		9999	4950	0	0	0
2019/04/13 18:38:00	BASE	16.93	91	22.74	101	1.8	75	-2.3	53	0	949.2	NA	0.0000		9999	4720	0	0	0
2019/04/13 18:39:00	BASE	15.23	87	22.74	101	1.9	74	-2.2	53	0	949.2	NA	0.0000		9999	4860	0	0	0
2019/04/13 18:40:00	BASE	14.59	91	22.74	101	2.0	74	-2.2	53	0	949.2	NA	0.0000		9999	4990	0	0	0
2019/04/13 18:41:00	BASE	15.40	99	22.12	99	2.1	74	-2.2	53	0	949.2	NA	0.0000		9999	5090	0	0	0
2019/04/13 18:42:00	BASE	16.63	104	22.07	101	2.1	73	-2.2	53	0	949.2	NA	0.0000		9999	22900	0	0	0
2019/04/13 18:43:00	BASE	15.26	105	21.56	107	2.1	73	-2.3	53	0	949.3	NA	0.0000		9999	4820	0	0	0
2019/04/13 18:44:00	BASE	14.37	106	21.20	101	2.1	73	-2.3	54	0	949.3	NA	0.0000		9999	4660	0	0	0
2019/04/13 18:45:00	BASE	15.65	110	20.27	92	2.2	73	-2.2	54	0	949.3	NA	0.0000		9999	4690	0	0	0
2019/04/13 18:46:00	BASE	15.71	110	20.27	92	2.2	73	-2.2	54	0	949.4	NA	0.0000		9999	4530	0	0	0
2019/04/13 18:47:00	BASE	14.29	102	18.88	108	2.3	73	-2.1	54	0	949.3	NA	0.0000		9999	4430	0	0	0
2019/04/13 18:48:00	BASE	16.23	96	20.53	97	2.3	72	-2.1	55	0	949.3	NA	0.0000		9999	4130	0	0	0
2019/04/13 18:49:00	BASE	19.17	93	22.69	80	2.3	72	-2.2	56	0	949.3	NA	0.0000		9999	4530	0	0	0
2019/04/13 18:50:00	BASE	19.41	95	22.69	80	2.3	72	-2.3	56	0	949.3	NA	0.0000		9999	2890	0	0	0
2019/04/13 18:51:00	BASE	18.57	97	22.69	80	2.2	72	-2.4	57	0	949.4	NA	0.0000		9999	4100	0	0	0
2019/04/13 18:52:00	BASE	17.29	97	22.69	80	2.0	72	-2.5	58	0	949.4	NA	0.0000	UP	9999	4560	0	0	0
2019/04/13 18:53:00	BASE	15.84	100	22.69	80	1.9	72	-2.6	58	0	949.4	NA	0.0000	UP	9999	4100	0	0	0
2019/04/13 18:54:00	BASE	15.67	101	22.69	80	1.7	73	-2.5	59	0	949.4	NA	0.0000	UP	9999	2850	0	0	0
2019/04/13 18:55:00	BASE	16.01	102	22.69	80	1.7	74	-2.4	59	0	949.4	NA	0.0000	UP	9999	4170	0	0	0
2019/04/13 18:56:00	BASE	15.54	106	22.69	80	1.7	75	-2.2	59	0	949.4	NA	0.0000	UP	9999	2330	0	0	0
2019/04/13 18:57:00	BASE	15.54	104	22.69	80	1.7	76	-2.1	60	0	949.4	NA	0.0000	UP	9999	3810	0	0	0
2019/04/13 18:58:00	BASE	15.74	101	22.69	80	1.8	76	-1.9	61	0	949.4	NA	0.0000	UP	9999	3450	0	0	0
2019/04/13 18:59:00	BASE	14.97	102	21.61	86	2.0	76	-1.8	62	0	949.5	NA	0.0000	UP	9999	3610	0	0	0
2019/04/13 19:00:00	BASE	14.90	107	21.35	90	2.1	76	-1.8	62	0	949.4	NA	0.0000	UP	9999	4130	0	0	0
2019/04/13 19:01:00	BASE	16.05	109	19.60	98	2.2	75	-1.8	63	0	949.5	NA	0.0000	UP	9999	3740	0	0	0
2019/04/13 19:02:00	BASE	15.30	109	18.37	108	2.2	74	-1.9	65	0	949.6	NA	0.0000	UP	9999	3670	0	0	0
2019/04/13 19:03:00	BASE	12.70	109	18.37	108	2.2	74	-2.0	65	0	949.6	NA	0.0000	UP	9999	3810	0	0	0
2019/04/13 19:04:00	BASE	12.42	104	18.37	108	2.1	74	-2.0	65	0	949.6	NA	0.0000		9999	4100	0	0	0
2019/04/13 19:05:00	BASE	12.87	99	18.37	108	2.1	74	-2.1	65	0	949.6	NA	0.0000		9999	4040	0	0	0
2019/04/13 19:06:00	BASE	11.83	100	18.37	108	2.0	74	-2.1	64	0	949.6	NA	0.0000		9999	3870	0	0	0
2019/04/13 19:07:00	BASE	10.91	104	18.37	108	2.0	75	-2.0	63	0	949.6	NA	0.0000		9999	4360	0	0	0
2019/04/13 19:08:00	BASE	10.89	106	18.37	108	2.0	76	-1.9	63	0	949.6	NA	0.0000		9999	3670	0	0	0
2019/04/13 19:09:00	BASE	14.25	106	19.19	105	2.0	76	-1.8	64	0	949.6	NA	0.0000		9999	3610	0	0	0
2019/04/13 19:10:00	BASE	17.14	104	19.19	105	2.0	76	-1.7	64	0	949.6	NA	0.0000		9999	4200	0	0	0
2019/04/13 19:11:00	BASE	17.73	100	19.45	93	2.1	76	-1.6	63	0	949.7	NA	0.0000		9999	4330	0	0	0
2019/04/13 19:12:00	BASE	17.37	96	19.45	93	2.2	76	-1.6	61	0	949.8	NA	0.0000		9999	4360	0	0	0
2019/04/13 19:13:00	BASE	14.92	92	19.45	93	2.3	75	-1.7	58	0	949.8	NA	0.0000		9999	5020	0	0	0
2019/04/13 19:14:00	BASE	12.25	90	19.45	93	2.3	74	-1.8	56	0	949.9	NA	0.0000		9999	5380	0	0	0
2019/04/13 19:15:00	BASE	10.67	92	19.45	93	2.3	73	-2.0	55	0	949.9	NA	0.0000		9999	4890	0	0	0
2019/04/13 19:16:00	BASE	11.65	93	19.45	93	2.3	73	-2.2	54	0	949.9	NA	0.0000		9999	3770	0	0	0
2019/04/13 19:17:00	BASE	14.88	91	19.55	90	2.2	73	-2.2	53	0	949.8	NA	0.0000		9999	4790	0	0	0
2019/04/13 19:18:00	BASE	15.71	91	20.94	99	2.2	72	-2.3	53	0	949.8	NA	0.0000		9999	4760	0	0	0
2019/04/13 19:19:00	BASE	16.24	97	20.94	99	2.1	72	-2.3	54	0	949.8	NA	0.0000		9999	4000	0	0	0
2019/04/13 19:20:00	BASE	16.04	103	20.94	99	2.1	72	-2.3	55	0	949.9	NA	0.0000		9999	4530	0	0	0
2019/04/13 19:21:00	BASE	14.44	102	20.94	99	2.1	72	-2.4	56	0	949.9	NA	0.0000		9999	4200	0	0	0
2019/04/13 19:22:00	BASE	16.75	98	23.66	93	2.2	72	-2.3	58	0	949.8	NA	0.0000		9999	3610	0	0	0
2019/04/13 19:23:00	BASE	20.32	96	23.66	93	2.2	72	-2.3	59	0	949.8	NA	0.0000		9999	4360	0	0	0
2019/04/13 19:24:00	BASE	20.40	99	23.66	93	2.3	72	-2.3	60	0	949.9	NA	0.0000		9999	4860	0	0	0
2019/04/13 19:25:00	BASE	17.83	104	23.66	93	2.4	71	-2.3	61	0	950.0	NA	0.0000		9999	4590	0	0	0
2019/04/13 19:26:00	BASE	16.83	104	23.66	93	2.4	71	-2.3	62	0	950.0	NA	0.0000		9999	4820	0	0	0
2019/04/13 19:27:00	BASE	17.42	101	23.66	93	2.3	71	-2.4	62	0	949.9	NA	0.0000		9999	4460	0	0	0
2019/04/13 19:28:00	BASE	16.92	100	23.66	93	2.2	72	-2.4	63	0	950.0	NA	0.0000		9999	4270	0	0	0
2019/04/13 19:29:00	BASE	16.66	93	23.66	93	2.1	72	-2.4	65	0	950.0	NA	0.0000		9999	4330	0	0	0
2019/04/13 19:30:00	BASE	16.28	93	23.66	93	2.0	73	-2.3	66	0	950.1	NA	0.0000		9999	4360	0	0	0
2019/04/13 19:31:00	BASE	14.76	99	23.66	93	1.9	74	-2.3	67	0	950.1	NA	0.0000		9999	4300	0	0	0
2019/04/13 19:32:00	BASE	14.58	101	23.25	97	1.9	74	-2.3	67	0	950.1	NA	0.0000		9999	4630	0	0	0
2019/04/13 19:33:00	BASE	15.87	107	21.40	115	1.9	73	-2.4	67	0	950.1	NA	0.0000		9999	4950	0	0	0
2019/04/13 19:34:00	BASE	16.49	109	21.40	115	1.9	73	-2.4	66	0	950.1	NA	0.0000		9999	5180	0	0	0
2019/04/13 19:35:00	BASE	16.01	106	21.40	115	1.8	73	-2.5	66	0	950.1	NA	0.0000		9999	4760	0	0	0
2019/04/13 19:36:00	BASE	16.30	104	21.40	115	1.8	73	-2.4	65	0	950.0	NA	0.0000		9999	5770	0	0	0
2019/04/13 19:37:00	BASE	16.36	102	21.40	115	1.8	73	-2.5	64	0	950.1	NA	0.0000		9999	6140	0	0	0
2019/04/13 19:38:00	BASE	14.62	101	21.40	115	1.8	73	-2.5	63	0	950.2	NA	0.0000		9999	6270	0	0	0
2019/04/13 19:39:00	BASE	12.97	105	21.40	115	1.9	72	-2.6	63	0	950.2	NA	0.0000		9999	5870	0	0	0
2019/04/13 19:40:00	BASE	12.87	106	21.40	115	1.9	72	-2.7	62	0	950.1	NA	0.0000		9999	5770	0	0	0
2019/04/13 19:41:00	BASE	14.02	106	21.40	115	1.9	71	-2.8	62	0	950.1	NA	0.0000		9999	5680	0	0	0
2019/04/13 19:42:00	BASE	16.22	101	21.50	100	1.9	71	-2.8	62	0	950.1	NA	0.0000		9999	5320	0	0	0
2019/04/13 19:43:00	BASE	17.80	96	21.50	100	2.0	71	-2.8	61	0	950.2	NA	0.0000		9999	5680	0	0	0
2019/04/13 19:44:00	BASE	16.80	96	21.50	100	2.0	70	-2.9	61	0	950.2	NA	0.0000		9999	5640	0	0	0
2019/04/13 19:45:00	BASE	15.47	97	21.50	100	2.1	69	-2.9	60	0	950.3	NA	0.0000		9999	6370	0	0	0
2019/04/13 19:46:00	BASE	15.96	99	21.50	100	2.2	69	-3.0	59	0	950.2	NA	0.0000		9999	6860	0	0	0
2019/04/13 19:47:00	BASE	18.12	96	22.43	92	2.2	68	-3.1	59	0	950.2	NA	0.0000		9999	6590	0	0	0
2019/04/13 19:48:00	BASE	18.49	94	22.43	92	2.1	68	-3.2	58	0	950.2	NA	0.0000		9999	6560	0	0	0
2019/04/13 19:49:00	BASE	17.12	97	22.43	92	2.1	68	-3.3	58	0	950.2	NA	0.0000		9999	6730	0	0	0
2019/04/13 19:50:00	BASE	16.55	97	22.43	92	2.0	67	-3.4	58	0	950.3	NA	0.0000		9999	6660	0	0	0
2019/04/13 19:51:00	BASE	15.61	102	22.43	92	2.0	67	-3.5	57	0	950.3	NA	0.0000		9999	22380	0	0	0
2019/04/13 19:52:00	BASE	17.14	103	22.43	92	2.0	67	-3.6	57	0	950.3	NA	0.0000		9999	7020	0	0	0
2019/04/13 19:53:00	BASE	18.69	97	22.43	92	1.9	67	-3.6	57	0	950.3	NA	0.0000		9999	7780	0	0	0
2019/04/13 19:54:00	BASE	16.11	98	22.43	92	1.9	67	-3.7	56	0	950.4	NA	0.0000		9999	7450	0	0	0
2019/04/13 19:55:00	BASE	15.09	97	22.43	92	1.9	67	-3.6	55	0	950.4	NA	0.0000		9999	7220	0	0	0
2019/04/13 19:56:00	BASE	16.51	97	22.43	92	1.9	67	-3.5	54	0	950.4	NA	0.0000		9999	6920	0	0	0
2019/04/13 19:57:00	BASE	15.18	100	21.45	94	1.9	67	-3.6	53	0	950.5	NA	0.0000		9999	6990	0	0	0
2019/04/13 19:58:00	BASE	14.38	96	21.45	94	1.8	68	-3.5	53	0	950.4	NA	0.0000		9999	6790	0	0	0
2019/04/13 19:59:00	BASE	16.57	92	21.45	94	1.8	68	-3.5	52	0	950.3	NA	0.0000		9999	6890	0	0	0
2019/04/13 20:00:00	BASE	17.37	96	21.45	94	1.9	67	-3.6	52	0	950.3	NA	0.0000		9999	6730	0	0	0
2019/04/13 20:01:00	BASE	17.35	101	25.05	97	1.9	67	-3.7	51	0	950.2	NA	0.0000		9999	5410	0	0	0
2019/04/13 20:02:00	BASE	19.65	99	25.05	97	1.9	66	-3.7	51	0	950.2	NA	0.0000		9999	6660	0	0	0
2019/04/13 20:03:00	BASE	20.82	100	25.05	97	2.0	66	-3.8	50	0	950.2	NA	0.0000		9999	6630	0	0	0
2019/04/13 20:04:00	BASE	20.33	103	25.05	97	2.0	65	-3.9	49	0	950.2	NA	0.0000		9999	6500	0	0	0
2019/04/13 20:05:00	BASE	18.92	101	25.05	97	2.1	64	-4.0	49	0	950.3	NA	0.0000		9999	6300	0	0	0
2019/04/13 20:06:00	BASE	16.62	104	25.05	97	2.2	63	-4.1	48	0	950.3	NA	0.0000		9999	6230	0	0	0
2019/04/13 20:07:00	BASE	16.41	106	25.05	97	2.3	62	-4.2	48	0	950.3	NA	0.0000		9999	6200	0	0	0
2019/04/13 20:08:00	BASE	15.54	107	25.05	97	2.3	62	-4.2	47	0	950.4	NA	0.0000		9999	6230	0	0	0
2019/04/13 20:09:00	BASE	14.29	110	25.05	97	2.3	62	-4.2	46	0	950.3	NA	0.0000		9999	5710	0	0	0
2019/04/13 20:10:00	BASE	14.39	112	25.05	97	2.3	62	-4.2	45	0	950.3	NA	0.0000		9999	5710	0	0	0
2019/04/13 20:11:00	BASE	13.62	110	23.92	96	2.3	63	-4.1	45	0	950.3	NA	0.0000		9999	6140	0	0	0
2019/04/13 20:12:00	BASE	11.92	110	23.61	103	2.2	63	-4.1	44	0	950.3	NA	0.0000		9999	6330	0	0	0
2019/04/13 20:13:00	BASE	13.79	116	23.61	103	2.2	63	-4.1	43	0	950.2	NA	0.0000		9999	5970	0	0	0
2019/04/13 20:14:00	BASE	16.44	120	21.40	113	2.2	63	-4.2	42	0	950.2	NA	0.0000		9999	5910	0	0	0
2019/04/13 20:15:00	BASE	14.54	120	21.40	113	2.3	62	-4.2	41	0	950.3	NA	0.0000		9999	5970	0	0	0
2019/04/13 20:16:00	BASE	13.56	115	21.40	113	2.4	61	-4.3	40	0	950.2	NA	0.0000		9999	6430	0	0	0
2019/04/13 20:17:00	BASE	16.12	115	21.40	113	2.5	60	-4.4	38	0	950.2	NA	0.0000		9999	6140	0	0	0
2019/04/13 20:18:00	BASE	17.09	122	21.40	113	2.5	60	-4.5	37	0	950.2	NA	0.0000		9999	7740	0	0	0
2019/04/13 20:19:00	BASE	16.24	123	21.40	113	2.5	60	-4.6	36	0	950.2	NA	0.0000		9999	6590	0	0	0
2019/04/13 20:20:00	BASE	16.00	124	21.40	113	2.4	60	-4.6	35	0	950.2	NA	0.0000		9999	6760	0	0	0
2019/04/13 20:21:00	BASE	14.44	127	21.40	113	2.3	61	-4.6	34	0	950.3	NA	0.0000		9999	6860	0	0	0
2019/04/13 20:22:00	BASE	12.90	131	21.40	113	2.1	61	-4.6	33	0	950.2	NA	0.0000		9999	7740	0	0	0
2019/04/13 20:23:00	BASE	12.60	132	19.70	121	2.1	62	-4.5	32	0	950.2	NA	0.0000		9999	7710	0	0	0
2019/04/13 20:24:00	BASE	15.44	131	20.27	134	2.1	62	-4.5	31	0	950.1	NA	0.0000		9999	8240	0	0	0
2019/04/13 20:25:00	BASE	17.18	133	20.27	134	2.2	62	-4.4	30	0	950.2	NA	0.0000		9999	8300	0	0	0
2019/04/13 20:26:00	BASE	15.59	140	20.27	134	2.2	62	-4.4	29	0	950.2	NA	0.0000		9999	8660	0	0	0
2019/04/13 20:27:00	BASE	13.83	145	20.27	134	2.1	62	-4.3	28	0	950.3	NA	0.0000		9999	8830	0	0	0
2019/04/13 20:28:00	BASE	12.69	141	20.27	134	2.1	63	-4.3	27	0	950.2	NA	0.0000		9999	9060	0	0	0
2019/04/13 20:29:00	BASE	12.87	137	20.27	134	2.0	63	-4.2	26	0	950.2	NA	0.0000		9999	9150	0	0	0
2019/04/13 20:30:00	BASE	12.10	132	20.27	134	2.0	64	-4.2	25	0	950.3	NA	0.0000		9999	8760	0	0	0
2019/04/13 20:31:00	BASE	13.03	131	20.27	134	2.0	64	-4.1	24	0	950.2	NA	0.0000		9999	8860	0	0	0
2019/04/13 20:32:00	BASE	14.83	136	20.27	134	2.0	64	-4.2	24	0	950.2	NA	0.0000		9999	8920	0	0	0
2019/04/13 20:33:00	BASE	15.15	142	20.27	134	2.0	64	-4.2	23	0	950.1	NA	0.0000		9999	8730	0	0	0
2019/04/13 20:34:00	BASE	14.97	144	18.21	142	2.0	64	-4.2	23	0	950.2	NA	0.0000		9999	8400	0	0	0
2019/04/13 20:35:00	BASE	15.34	144	18.31	143	1.9	64	-4.2	23	0	950.2	NA	0.0000		9999	8140	0	0	0
2019/04/13 20:36:00	BASE	16.22	144	18.31	143	1.9	64	-4.2	23	0	950.1	NA	0.0000		9999	8460	0	0	0
2019/04/13 20:37:00	BASE	15.44	144	18.31	143	1.9	64	-4.2	22	0	950.2	NA	0.0000		9999	8860	0	0	0
2019/04/13 20:38:00	BASE	13.46	144	18.31	143	1.9	64	-4.2	22	0	950.2	NA	0.0000		9999	8790	0	0	0
2019/04/13 20:39:00	BASE	11.61	144	18.31	143	1.9	64	-4.3	22	0	950.3	NA	0.0000		9999	8600	0	0	0
2019/04/13 20:40:00	BASE	11.37	150	18.31	143	1.9	64	-4.3	21	0	950.3	NA	0.0000		9999	8460	0	0	0
2019/04/13 20:41:00	BASE	11.57	152	18.31	143	1.8	64	-4.3	21	0	950.3	NA	0.0000		9999	8690	0	0	0
2019/04/13 20:42:00	BASE	9.20	150	18.31	143	1.8	64	-4.3	21	0	950.4	NA	0.0000		9999	9020	0	0	0
2019/04/13 20:43:00	BASE	7.16	154	18.31	143	1.7	65	-4.2	21	0	950.5	NA	0.0000		9999	8790	0	0	0
2019/04/13 20:44:00	BASE	7.26	160	18.31	143	1.6	66	-4.2	20	0	950.4	NA	0.0000		9999	8830	0	0	0
2019/04/13 20:45:00	BASE	9.11	159	18.26	149	1.6	66	-4.1	19	0	950.3	NA	0.0000		9999	8890	0	0	0
2019/04/13 20:46:00	BASE	10.29	148	17.49	138	1.6	67	-4.0	18	0	950.4	NA	0.0000		9999	5220	0	0	0
2019/04/13 20:47:00	BASE	10.31	146	14.30	155	1.6	67	-3.8	17	0	950.4	NA	0.0000		9999	4270	0	0	0
2019/04/13 20:48:00	BASE	9.88	149	14.30	155	1.6	68	-3.7	16	0	950.4	NA	0.0000		9999	8830	0	0	0
2019/04/13 20:49:00	BASE	6.85	146	14.30	155	1.6	68	-3.6	15	0	950.5	NA	0.0000		9999	8790	0	0	0
2019/04/13 20:50:00	BASE	3.28	175	14.30	155	1.7	69	-3.5	14	0	950.5	NA	0.0000		9999	8560	0	0	0
2019/04/13 20:51:00	BASE	2.56	227	14.30	155	1.7	68	-3.5	12	0	950.5	NA	0.0000		9999	8530	0	0	0
2019/04/13 20:52:00	BASE	4.03	271	14.30	155	1.7	68	-3.6	11	0	950.5	NA	0.0000		9999	8430	0	0	0
2019/04/13 20:53:00	BASE	4.56	298	14.30	155	1.8	67	-3.6	9	0	950.5	NA	0.0000		9999	8530	0	0	0
2019/04/13 20:54:00	BASE	4.80	284	14.30	155	1.9	67	-3.7	8	0	950.4	NA	0.0000		9999	8400	0	0	0
2019/04/13 20:55:00	BASE	5.23	226	13.02	142	1.9	66	-3.7	7	0	950.4	NA	0.0000		9999	8330	0	0	0
2019/04/13 20:56:00	BASE	4.91	173	13.02	142	1.9	66	-3.7	5	0	950.6	NA	0.0000		9999	7120	0	0	0
2019/04/13 20:57:00	BASE	3.85	162	11.01	150	2.0	67	-3.6	5	0	950.6	NA	0.0000		9999	6990	0	0	0
2019/04/13 20:58:00	BASE	5.05	150	8.28	143	2.0	67	-3.5	4	0	950.6	NA	0.0000		9999	6820	0	0	0
2019/04/13 20:59:00	BASE	6.79	150	8.39	150	1.9	67	-3.5	3	0	950.5	NA	0.0000		9999	8300	0	0	0
2019/04/13 21:00:00	BASE	6.17	159	8.39	150	1.9	67	-3.5	3	0	950.5	NA	0.0000		9999	8240	0	0	0
2019/04/13 21:01:00	BASE	3.77	173	8.39	150	1.9	67	-3.6	3	0	950.6	NA	0.0000		9999	8170	0	0	0
2019/04/13 21:02:00	BASE	4.05	176	9.21	180	1.9	67	-3.7	2	0	950.5	NA	0.0000		9999	6000	0	0	0
2019/04/13 21:03:00	BASE	4.55	158	9.21	180	1.8	66	-3.8	2	0	950.6	NA	0.0000		9999	6000	0	0	0
2019/04/13 21:04:00	BASE	1.95	198	9.21	180	1.9	66	-3.8	2	0	950.6	NA	0.0000		9999	5810	0	0	0
2019/04/13 21:05:00	BASE	2.13	208	9.21	180	1.9	66	-3.8	2	0	950.5	NA	0.0000		9999	5840	0	0	0
2019/04/13 21:06:00	BASE	3.32	193	9.21	180	2.0	66	-3.8	2	0	950.6	NA	0.0000		9999	5710	0	0	0
2019/04/13 21:07:00	BASE	4.24	236	9.21	180	2.0	66	-3.7	2	0	950.5	NA	0.0000		9999	8070	0	0	0
2019/04/13 21:08:00	BASE	5.07	271	9.21	180	2.0	66	-3.7	1	0	950.6	NA	0.0000		9999	8140	0	0	0
2019/04/13 21:09:00	BASE	3.65	281	9.21	180	2.1	66	-3.7	1	0	950.5	NA	0.0000		9999	8300	0	0	0
2019/04/13 21:10:00	BASE	2.58	53	9.21	180	2.1	65	-3.7	1	0	950.5	NA	0.0000		9999	8370	0	0	0
2019/04/13 21:11:00	BASE	2.71	68	9.21	180	2.2	66	-3.6	1	0	950.5	NA	0.0000		9999	8400	0	0	0
2019/04/13 21:12:00	BASE	1.28	139	8.75	264	2.4	66	-3.4	1	0	950.5	NA	0.0000		9999	8240	0	0	0
2019/04/13 21:13:00	BASE	0.78	255	8.75	264	2.4	66	-3.3	1	0	950.5	NA	0.0000		9999	8370	0	0	0
2019/04/13 21:14:00	BASE	1.98	304	8.75	264	2.5	66	-3.2	1	0	950.5	NA	0.0000		9999	8430	0	0	0
2019/04/13 21:15:00	BASE	2.31	349	8.75	264	2.5	66	-3.1	1	0	950.6	NA	0.0000		9999	8370	0	0	0
2019/04/13 21:16:00	BASE	1.99	323	8.75	264	2.5	67	-3.1	1	0	950.6	NA	0.0000		9999	6200	0	0	0
2019/04/13 21:17:00	BASE	1.84	288	7.97	255	2.5	67	-3.1	1	0	950.6	NA	0.0000		9999	8270	0	0	0
2019/04/13 21:18:00	BASE	2.99	127	6.53	50	2.4	67	-3.1	1	0	950.6	NA	0.0000		9999	7970	0	0	0
2019/04/13 21:19:00	BASE	3.55	118	6.53	50	2.3	67	-3.1	1	0	950.6	NA	0.0000		9999	7940	0	0	0
2019/04/13 21:20:00	BASE	2.34	96	6.53	50	2.3	67	-3.2	1	0	950.6	NA	0.0000		9999	7610	0	0	0
2019/04/13 21:21:00	BASE	1.21	78	5.71	133	2.2	67	-3.2	1	0	950.6	NA	0.0000		9999	7450	0	0	0
2019/04/13 21:22:00	BASE	0.92	121	5.71	133	2.2	67	-3.3	1	0	950.5	NA	0.0000		9999	7380	0	0	0
2019/04/13 21:23:00	BASE	0.69	160	5.71	133	2.3	66	-3.4	0	0	950.5	NA	0.0000		9999	7640	0	0	0
2019/04/13 21:24:00	BASE	0.18	187	5.71	133	2.3	65	-3.5	0	0	950.5	NA	0.0000		9999	7610	0	0	0
2019/04/13 21:25:00	BASE	0.35	206	5.71	133	2.3	65	-3.6	0	0	950.5	NA	0.0000		9999	7580	0	0	0
2019/04/13 21:26:00	BASE	0.40	231	5.71	133	2.4	64	-3.7	0	0	950.5	NA	0.0000		9999	8010	0	0	0
2019/04/13 21:27:00	BASE	0.49	265	5.71	133	2.4	64	-3.8	0	0	950.6	NA	0.0000		9999	8070	0	0	0
2019/04/13 21:28:00	BASE	1.18	186	4.27	119	2.4	63	-3.8	0	0	950.6	NA	0.0000		9999	7870	0	0	0
2019/04/13 21:29:00	BASE	1.77	180	6.07	172	2.4	63	-3.8	0	0	950.6	NA	0.0000		9999	7640	0	0	0
2019/04/13 21:30:00	BASE	3.95	170	6.69	143	2.4	64	-3.8	0	0	950.6	NA	0.0000		9999	7740	0	0	0
2019/04/13 21:31:00	BASE	5.86	160	7.20	149	2.4	64	-3.6	0	0	950.6	NA	0.0000		9999	4130	0	0	0
2019/04/13 21:32:00	BASE	6.66	156	8.69	155	2.3	65	-3.5	0	0	950.6	NA	0.0000		9999	3970	0	0	0
2019/04/13 21:33:00	BASE	6.78	148	8.69	155	2.3	67	-3.3	0	0	950.6	NA	0.0000		9999	3970	0	0	0
2019/04/13 21:34:00	BASE	5.73	146	8.69	155	2.3	68	-3.1	0	0	950.7	NA	0.0000		9999	3870	0	0	0
2019/04/13 21:35:00	BASE	4.87	146	8.69	155	2.2	68	-3.1	0	0	950.8	NA	0.0000		9999	3940	0	0	0
2019/04/13 21:36:00	BASE	4.47	148	8.69	155	2.1	69	-3.0	0	0	950.7	NA	0.0000		9999	3870	0	0	0
2019/04/13 21:37:00	BASE	4.97	154	8.69	155	2.1	69	-3.0	0	0	950.7	NA	0.0000		9999	3870	0	0	0
2019/04/13 21:38:00	BASE	5.75	161	8.69	155	2.1	69	-3.0	0	0	950.7	NA	0.0000		9999	3840	0	0	0
2019/04/13 21:39:00	BASE	5.72	166	8.69	155	2.1	69	-3.0	0	0	950.7	NA	0.0000		9999	3810	0	0	0
2019/04/13 21:40:00	BASE	5.26	168	8.69	155	2.2	69	-3.0	0	0	950.7	NA	0.0000		9999	3810	0	0	0
2019/04/13 21:41:00	BASE	5.28	163	8.69	155	2.2	68	-3.0	0	0	950.8	NA	0.0000		9999	3810	0	0	0
2019/04/13 21:42:00	BASE	5.20	159	7.05	143	2.3	68	-3.0	0	0	950.8	NA	0.0000		9999	3770	0	0	0
2019/04/13 21:43:00	BASE	4.02	159	6.74	161	2.3	68	-3.0	0	0	950.8	NA	0.0000		9999	3740	0	0	0
2019/04/13 21:44:00	BASE	3.16	153	6.74	161	2.3	68	-3.0	0	0	950.8	NA	0.0000		9999	3740	0	0	0
2019/04/13 21:45:00	BASE	4.62	142	6.74	161	2.4	68	-3.0	0	0	950.8	NA	0.0000		9999	3740	0	0	0
2019/04/13 21:46:00	BASE	6.32	129	7.31	130	2.4	68	-2.9	0	0	950.8	NA	0.0000		9999	3710	0	0	0
2019/04/13 21:47:00	BASE	6.71	129	7.31	130	2.5	68	-2.8	0	0	950.8	NA	0.0000		9999	3710	0	0	0
2019/04/13 21:48:00	BASE	6.03	139	7.31	130	2.5	68	-2.7	0	0	950.8	NA	0.0000		9999	3710	0	0	0
2019/04/13 21:49:00	BASE	4.74	141	7.31	130	2.6	68	-2.8	0	0	950.9	NA	0.0000		9999	3710	0	0	0
2019/04/13 21:50:00	BASE	4.30	139	7.31	130	2.6	68	-2.8	0	0	950.9	NA	0.0000		9999	3640	0	0	0
2019/04/13 21:51:00	BASE	4.20	132	7.31	130	2.6	67	-2.9	0	0	950.9	NA	0.0000		9999	3510	0	0	0
2019/04/13 21:52:00	BASE	3.91	131	7.31	130	2.6	67	-3.0	0	0	950.9	NA	0.0000		9999	3540	0	0	0
2019/04/13 21:53:00	BASE	4.70	144	7.61	141	2.6	67	-3.0	0	0	950.9	NA	0.0000		9999	3540	0	0	0
2019/04/13 21:54:00	BASE	5.76	148	7.61	141	2.7	67	-2.9	0	0	950.9	NA	0.0000		9999	3540	0	0	0
2019/04/13 21:55:00	BASE	5.74	146	7.61	141	2.7	67	-2.9	0	0	950.9	NA	0.0000		9999	3510	0	0	0
2019/04/13 21:56:00	BASE	5.42	151	7.61	141	2.7	67	-2.8	0	0	950.9	NA	0.0000		9999	3480	0	0	0
2019/04/13 21:57:00	BASE	5.54	151	7.61	141	2.7	67	-2.8	0	0	950.9	NA	0.0000		9999	3540	0	0	0
2019/04/13 21:58:00	BASE	5.66	147	7.61	141	2.7	68	-2.7	0	0	950.9	NA	0.0000		9999	3480	0	0	0
2019/04/13 21:59:00	BASE	5.53	138	7.61	141	2.6	68	-2.6	0	0	951.0	NA	0.0000		9999	3510	0	0	0
2019/04/13 22:00:00	BASE	5.13	135	7.61	141	2.6	69	-2.5	0	0	951.0	NA	0.0000		9999	3450	0	0	0
2019/04/13 22:01:00	BASE	4.42	134	7.61	141	2.7	69	-2.5	0	0	951.0	NA	0.0000		9999	3410	0	0	0
2019/04/13 22:02:00	BASE	3.93	127	7.61	141	2.8	68	-2.5	0	0	951.0	NA	0.0000		9999	3410	0	0	0
2019/04/13 22:03:00	BASE	4.02	123	7.41	141	2.8	68	-2.6	0	0	951.0	NA	0.0000		9999	3410	0	0	0
2019/04/13 22:04:00	BASE	4.11	122	6.22	140	2.8	67	-2.6	0	0	951.0	NA	0.0000		9999	3410	0	0	0
2019/04/13 22:05:00	BASE	4.21	122	6.22	140	2.8	67	-2.7	0	0	951.0	NA	0.0000		9999	3450	0	0	0
2019/04/13 22:06:00	BASE	3.49	125	6.22	140	2.8	67	-2.7	0	0	951.1	NA	0.0000		9999	3480	0	0	0
2019/04/13 22:07:00	BASE	2.92	142	6.22	140	2.9	67	-2.7	0	0	951.1	NA	0.0000		9999	3450	0	0	0
2019/04/13 22:08:00	BASE	2.84	148	5.86	131	2.9	67	-2.7	0	0	951.1	NA	0.0000		9999	3410	0	0	0
2019/04/13 22:09:00	BASE	2.34	139	5.35	133	2.9	67	-2.7	0	0	951.1	NA	0.0000		9999	3380	0	0	0
2019/04/13 22:10:00	BASE	2.65	151	4.99	115	2.8	67	-2.7	0	0	951.1	NA	0.0000		9999	3350	0	0	0
2019/04/13 22:11:00	BASE	3.34	165	4.99	115	2.7	68	-2.6	0	0	951.1	NA	0.0000		9999	3310	0	0	0
2019/04/13 22:12:00	BASE	3.72	170	4.99	115	2.6	69	-2.5	0	0	951.1	NA	0.0000		9999	3310	0	0	0
2019/04/13 22:13:00	BASE	4.22	168	5.81	153	2.5	70	-2.4	0	0	951.1	NA	0.0000		9999	3310	0	0	0
2019/04/13 22:14:00	BASE	4.47	169	5.81	153	2.4	71	-2.3	0	0	951.1	NA	0.0000		9999	3310	0	0	0
2019/04/13 22:15:00	BASE	4.37	178	5.81	153	2.4	72	-2.2	0	0	951.1	NA	0.0000		9999	3310	0	0	0
2019/04/13 22:16:00	BASE	4.13	181	5.81	153	2.3	72	-2.2	0	0	951.1	NA	0.0000		9999	3280	0	0	0
2019/04/13 22:17:00	BASE	3.60	175	5.81	153	2.3	72	-2.2	0	0	951.1	NA	0.0000		9999	3280	0	0	0
2019/04/13 22:18:00	BASE	3.29	158	5.81	153	2.3	72	-2.2	0	0	951.1	NA	0.0000		9999	3310	0	0	0
2019/04/13 22:19:00	BASE	3.04	134	5.81	153	2.3	72	-2.2	0	0	951.1	NA	0.0000		9999	3380	0	0	0
2019/04/13 22:20:00	BASE	4.48	124	7.31	132	2.3	73	-2.1	0	0	951.1	NA	0.0000		9999	3280	0	0	0
2019/04/13 22:21:00	BASE	5.79	128	7.31	132	2.3	73	-2.1	0	0	951.1	NA	0.0000		9999	3150	0	0	0
2019/04/13 22:22:00	BASE	4.89	122	7.31	132	2.4	73	-2.0	0	0	951.2	NA	0.0000		9999	3120	3670	0	0
2019/04/13 22:23:00	BASE	4.70	106	7.31	132	2.4	74	-1.9	0	0	951.2	NA	0.0000		9999	3080	0	0	0
2019/04/13 22:24:00	BASE	5.18	87	7.31	132	2.4	74	-1.7	0	0	951.3	NA	0.0000		9999	3120	0	0	0
2019/04/13 22:25:00	BASE	5.08	78	7.31	132	2.5	75	-1.5	0	0	951.3	NA	0.0000		9999	3150	0	0	0
2019/04/13 22:26:00	BASE	4.90	92	7.31	132	2.6	75	-1.4	0	0	951.3	NA	0.0000		9999	3180	0	0	0
2019/04/13 22:27:00	BASE	5.68	114	7.36	128	2.6	75	-1.3	0	0	951.4	NA	0.0000		9999	3220	0	0	0
2019/04/13 22:28:00	BASE	7.21	115	9.62	110	2.6	75	-1.3	0	0	951.4	NA	0.0000		9999	3220	0	0	0
2019/04/13 22:29:00	BASE	8.34	111	10.55	118	2.6	75	-1.3	0	0	951.4	NA	0.0000		9999	3220	0	0	0
2019/04/13 22:30:00	BASE	8.99	114	11.01	115	2.5	75	-1.4	0	0	951.4	NA	0.0000		9999	3220	0	0	0
2019/04/13 22:31:00	BASE	8.66	117	11.01	115	2.5	76	-1.3	0	0	951.4	NA	0.0000		9999	3220	0	0	0
2019/04/13 22:32:00	BASE	8.76	119	11.01	115	2.5	76	-1.3	0	0	951.4	NA	0.0000		9999	3220	0	0	0
2019/04/13 22:33:01	BASE	8.04	125	11.01	115	2.5	76	-1.3	0	0	951.5	NA	0.0000	UP	9999	3220	0	0	0
2019/04/13 22:34:00	BASE	6.21	132	11.01	115	2.5	76	-1.2	0	0	951.5	NA	0.0000	UP	9999	3280	0	0	0
2019/04/13 22:35:00	BASE	6.86	127	11.01	115	2.5	76	-1.2	0	0	951.5	NA	0.0000	UP	9999	890	0	0	0
2019/04/13 22:36:00	BASE	8.31	122	11.01	115	2.5	76	-1.2	0	0	951.5	NA	0.0000	UP	9999	850	0	0	0
2019/04/13 22:37:00	BASE	7.61	123	11.01	115	2.5	77	-1.1	0	0	951.6	NA	0.0000	UP	9999	720	0	0	0
2019/04/13 22:38:00	BASE	6.94	124	11.01	115	2.5	77	-1.0	0	0	951.6	NA	0.0000	UP	9999	3310	0	0	0
2019/04/13 22:39:00	BASE	7.55	122	11.01	115	2.5	78	-1.0	0	0	951.6	NA	0.0000	UP	9999	1310	0	0	0
2019/04/13 22:40:00	BASE	7.35	118	10.24	123	2.5	78	-0.9	0	0	951.6	NA	0.0000	UP	9999	3310	0	0	0
2019/04/13 22:41:00	BASE	7.60	112	10.24	123	2.5	79	-0.8	0	0	951.6	NA	0.0000	UP	9999	1180	0	0	0
2019/04/13 22:42:00	BASE	7.62	103	9.62	119	2.5	79	-0.8	0	0	951.6	NA	0.0000	UP	9999	3350	0	0	0
2019/04/13 22:43:00	BASE	6.31	102	9.62	119	2.5	80	-0.7	0	0	951.7	NA	0.0000	UP	9999	3280	0	0	0
2019/04/13 22:44:00	BASE	5.68	107	9.62	119	2.5	80	-0.6	0	0	951.6	NA	0.0000	UP	9999	3150	0	0	0
2019/04/13 22:45:00	BASE	6.04	109	9.62	119	2.4	81	-0.6	0	0	951.6	NA	0.0000	UP	9999	3080	0	0	0
2019/04/13 22:46:00	BASE	6.22	106	9.41	109	2.4	81	-0.5	0	0	951.7	NA	0.0000	UP	9999	3050	0	0	0
2019/04/13 22:47:00	BASE	5.75	89	9.41	109	2.4	81	-0.5	0	0	951.7	NA	0.0000	UP	9999	0	0	0	3640
2019/04/13 22:48:00	BASE	4.87	65	9.41	109	2.4	81	-0.5	0	0	951.7	NA	0.0000	UP	9999	0	0	0	3610
2019/04/13 22:49:00	BASE	3.34	56	9.41	109	2.4	82	-0.4	0	0	951.7	NA	0.0000	UP	9999	0	0	0	3610
2019/04/13 22:50:00	BASE	2.74	56	9.41	109	2.5	82	-0.2	0	0	951.7	NA	0.0000	UP	9999	0	0	0	3610
2019/04/13 22:51:00	BASE	1.93	57	7.77	104	2.5	83	-0.1	0	0	951.7	NA	0.0000	UP	9999	0	0	0	3540
2019/04/13 22:52:00	BASE	1.37	73	7.00	90	2.6	83	-0.0	0	0	951.7	NA	0.0000	UP	9999	0	0	0	3510
2019/04/13 22:53:00	BASE	2.28	74	7.00	90	2.6	83	0.1	0	0	951.7	NA	0.0000	UP	9999	0	0	0	3540
2019/04/13 22:54:00	BASE	3.64	72	7.00	90	2.6	84	0.1	0	0	951.7	NA	0.0000	UP	9999	0	0	0	3480
2019/04/13 22:55:00	BASE	4.78	86	7.00	90	2.6	84	0.2	0	0	951.7	NA	0.0000	UP	9999	0	0	0	3480
2019/04/13 22:56:00	BASE	4.66	68	6.07	84	2.6	85	0.3	0	0	951.7	NA	0.0000	UP	9999	0	0	0	3450
2019/04/13 22:57:00	BASE	4.43	47	5.97	80	2.6	85	0.4	0	0	951.8	NA	0.0000	UP	9999	0	0	0	3410
2019/04/13 22:58:00	BASE	3.32	58	5.97	80	2.6	86	0.4	0	0	951.9	NA	0.0000	UP	9999	0	0	0	3350
2019/04/13 22:59:00	BASE	4.06	78	7.15	74	2.6	86	0.5	0	0	951.9	NA	0.0000		9999	0	0	0	3280
2019/04/13 23:00:00	BASE	5.79	78	7.51	56	2.6	86	0.6	0	0	951.9	NA	0.0000		9999	0	0	0	3180
2019/04/13 23:01:00	BASE	6.59	70	8.49	71	2.6	87	0.6	0	0	951.9	NA	0.0000		9999	0	0	0	3120
2019/04/13 23:02:00	BASE	7.61	72	8.59	70	2.6	87	0.7	0	0	951.9	NA	0.0000		9999	0	0	0	3120
2019/04/13 23:03:00	BASE	7.47	76	8.59	70	2.6	88	0.8	0	0	951.9	NA	0.0000		9999	0	0	0	3120
2019/04/13 23:04:00	BASE	7.49	76	8.75	74	2.6	88	0.8	0	0	952.0	NA	0.0000		9999	0	0	0	3080
2019/04/13 23:05:00	BASE	8.07	74	9.05	73	2.5	88	0.8	0	0	952.0	NA	0.0000		9999	0	0	0	3180
2019/04/13 23:06:00	BASE	7.69	75	9.05	73	2.4	89	0.8	0	0	952.0	NA	0.0000		9999	0	0	0	3220
2019/04/13 23:07:00	BASE	6.83	76	9.05	73	2.4	89	0.8	0	0	952.0	NA	0.0000		9999	0	0	0	3810
2019/04/13 23:08:00	BASE	6.61	78	9.05	73	2.3	90	0.9	0	0	952.0	NA	0.0000		9999	0	0	0	3900
2019/04/13 23:09:00	BASE	6.73	78	9.05	73	2.3	91	0.9	0	0	952.0	NA	0.0000		9999	0	0	0	3900
2019/04/13 23:10:00	BASE	6.72	76	9.05	73	2.2	92	1.1	0	0	952.0	NA	0.0000		9999	0	0	0	3870
2019/04/13 23:11:00	BASE	6.08	78	9.05	73	2.2	93	1.2	0	0	952.0	NA	0.0000		9999	0	0	0	3900
2019/04/13 23:12:00	BASE	5.18	83	9.05	73	2.2	94	1.3	0	0	952.1	NA	0.0000		9999	0	0	0	3970
2019/04/13 23:13:00	BASE	4.78	80	9.05	73	2.1	95	1.4	0	0	952.1	NA	0.0000		9999	0	0	0	3970
2019/04/13 23:14:00	BASE	5.04	74	9.05	73	2.1	95	1.4	0	0	952.1	NA	0.0000		9999	0	0	0	3970
2019/04/13 23:15:00	BASE	4.79	74	8.23	76	2.1	96	1.5	0	0	952.1	NA	0.0000		9999	0	0	0	3940
2019/04/13 23:16:00	BASE	4.40	74	7.67	85	2.0	97	1.5	0	0	952.1	NA	0.0000		9999	3940	0	0	0
2019/04/13 23:17:00	BASE	4.60	69	7.46	68	2.0	97	1.6	0	0	952.1	NA	0.0000		9999	3710	0	0	0
2019/04/13 23:18:00	BASE	4.50	62	7.46	68	2.0	98	1.7	0	0	952.1	NA	0.0000		9999	3640	0	0	0
2019/04/13 23:19:00	BASE	3.76	68	7.36	70	2.0	99	1.8	0	0	952.2	NA	0.0000		9999	3610	0	0	0
2019/04/13 23:20:00	BASE	3.32	76	6.58	75	2.0	99	1.8	0	0	952.2	NA	0.0000		9999	3580	0	0	0
2019/04/13 23:21:00	BASE	3.29	83	5.71	71	2.0	100	1.9	0	0	952.2	NA	0.0000		9999	3580	0	0	0
2019/04/13 23:22:00	BASE	3.04	97	5.71	71	1.9	100	1.9	0	0	952.2	NA	0.0000		9999	3540	0	0	0
2019/04/13 23:23:00	BASE	2.58	138	5.71	71	1.9	100	1.9	0	0	952.3	NA	0.0000		9999	3380	0	0	0
2019/04/13 23:24:00	BASE	2.69	183	5.20	62	1.9	100	1.9	0	0	952.3	NA	0.0000		9999	3180	0	0	0
2019/04/13 23:25:00	BASE	3.16	193	5.20	62	1.8	100	1.8	0	0	952.3	NA	0.0000		9999	3150	0	0	0
2019/04/13 23:26:00	BASE	3.17	191	5.20	62	1.8	100	1.8	0	0	952.3	NA	0.0000		9999	3310	0	0	0
2019/04/13 23:27:00	BASE	3.57	184	5.04	158	1.7	100	1.7	0	0	952.3	NA	0.0000		9999	3450	0	0	0
2019/04/13 23:28:00	BASE	3.91	175	5.04	158	1.7	100	1.7	0	0	952.3	NA	0.0000		9999	3180	0	0	0
2019/04/13 23:29:00	BASE	3.59	179	5.04	158	1.7	100	1.7	0	0	952.3	NA	0.0000		9999	3080	0	0	0
2019/04/13 23:30:00	BASE	3.46	189	5.04	158	1.8	100	1.7	0	0	952.3	NA	0.0000		9999	3020	0	0	0
2019/04/13 23:31:00	BASE	3.33	193	5.04	158	1.8	99	1.7	0	0	952.3	NA	0.0000		9999	2720	0	0	0
2019/04/13 23:32:00	BASE	2.72	198	5.04	158	1.9	99	1.8	0	0	952.3	NA	0.0000		9999	2660	3870	0	0
2019/04/13 23:33:00	BASE	2.20	198	5.04	158	2.0	99	1.8	0	0	952.3	NA	0.0000		9999	2690	3870	0	0
2019/04/13 23:34:00	BASE	2.01	189	5.04	158	2.0	99	1.8	0	0	952.3	NA	0.0000		9999	2760	0	0	0
2019/04/13 23:35:00	BASE	2.02	161	5.04	158	2.0	99	1.9	0	0	952.3	NA	0.0000		9999	3740	0	0	0
2019/04/13 23:36:00	BASE	2.29	117	5.04	158	2.0	99	1.9	0	0	952.4	NA	0.0000		9999	3410	0	0	0
2019/04/13 23:37:00	BASE	2.74	95	4.53	190	2.0	99	1.9	0	0	952.4	NA	0.0000		9999	3380	0	0	0
2019/04/13 23:38:00	BASE	2.72	100	4.53	190	2.0	99	1.8	0	0	952.4	NA	0.0000		9999	3280	0	0	0
2019/04/13 23:39:00	BASE	2.78	110	3.81	196	1.9	99	1.8	0	0	952.4	NA	0.0000		9999	3180	3810	0	0
2019/04/13 23:40:00	BASE	3.00	118	3.55	116	1.9	99	1.8	0	0	952.4	NA	0.0000		9999	3050	3770	0	0
2019/04/13 23:41:00	BASE	2.73	126	3.55	116	1.9	99	1.7	0	0	952.5	NA	0.0000		9999	3050	0	0	0
2019/04/13 23:42:00	BASE	2.19	139	3.55	116	1.8	99	1.8	0	0	952.5	NA	0.0000		9999	3710	0	0	0
2019/04/13 23:43:00	BASE	1.70	156	3.55	116	1.8	99	1.7	0	0	952.5	NA	0.0000		9999	3640	0	0	0
2019/04/13 23:44:00	BASE	1.74	182	3.55	116	1.8	100	1.8	0	0	952.5	NA	0.0000		9999	3380	0	0	0
2019/04/13 23:45:00	BASE	1.69	213	3.55	116	1.8	100	1.8	0	0	952.6	NA	0.0000		9999	3350	0	0	0
2019/04/13 23:46:00	BASE	1.64	224	3.55	116	1.8	100	1.8	0	0	952.7	NA	0.0000		9999	3540	0	0	0
2019/04/13 23:47:00	BASE	2.03	207	3.55	116	1.8	100	1.7	0	0	952.7	NA	0.0000		9999	3510	0	0	0
2019/04/13 23:48:00	BASE	2.13	189	3.55	116	1.7	100	1.7	0	0	952.7	NA	0.0000		9999	1710	3540	0	0
2019/04/13 23:49:00	BASE	1.85	177	3.34	120	1.7	100	1.7	0	0	952.7	NA	0.0000		9999	1710	3580	0	0
2019/04/13 23:50:00	BASE	1.62	164	2.93	192	1.6	100	1.6	0	0	952.8	NA	0.0000		9999	1710	0	0	0
2019/04/13 23:51:00	BASE	1.52	160	2.93	192	1.6	100	1.6	0	0	952.8	NA	0.0000		9999	1740	3740	0	0
2019/04/13 23:52:00	BASE	1.29	155	2.93	192	1.5	100	1.5	0	0	952.8	NA	0.0000		9999	3740	0	0	0
2019/04/13 23:53:00	BASE	1.23	145	2.93	192	1.5	100	1.5	0	0	952.8	NA	0.0000		9999	3770	0	0	0
2019/04/13 23:54:00	BASE	1.38	133	2.93	192	1.5	100	1.5	0	0	952.8	NA	0.0000		9999	3450	0	0	0
2019/04/13 23:55:00	BASE	1.38	127	2.93	192	1.5	100	1.5	0	0	952.8	NA	0.0000		9999	4430	0	0	0
2019/04/13 23:56:00	BASE	1.73	125	2.93	192	1.5	100	1.5	0	0	952.8	NA	0.0000		9999	3740	0	0	0
2019/04/13 23:57:00	BASE	2.02	127	2.21	132	1.5	100	1.5	0	0	952.8	NA	0.0000		9999	3710	0	0	0
2019/04/13 23:58:00	BASE	2.15	130	2.68	127	1.5	100	1.5	0	0	952.8	NA	0.0000		9999	3670	0	0	0
2019/04/13 23:59:00	BASE	2.58	136	3.34	146	1.5	100	1.5	0	0	952.8	NA	0.0000		9999	2890	0	0	0